[[{"header":{"parameterUnit":"m.s-1","parameterCategory":1,"la1":30.6,"la2":29.2853,"lo1":-89.7004,"lo2":-87.6739,"dy":0.0162,"dx":0.0183,"nx":112,"ny":82,"refTime":"2023-03-05T18:00:00:Z","depth":0,"parameterNumber":2,"parameterNumberName":"U-component_of_WINDS"},"data":[0.0,0.0,0.0,0.0,0.0,0.0,0.0,0.0,0.0,0.0,0.0,0.0,0.0,0.0,0.0,0.0,0.0,0.0,0.0,0.0,0.0,0.0,0.0,0.0,0.0,0.0,0.0,0.0,0.0,0.0,0.0,0.0,0.0,0.0,0.0,0.0,0.0,0.0,0.0,0.0,0.0,0.0,0.0,0.0,0.0,0.0,0.0,0.0,0.0,0.0,0.0,0.0,0.0,0.0,0.0,0.0,0.0,0.0,0.0,0.0,0.0,0.0,0.0,0.0,0.0,0.0,0.0,0.0,0.0,0.0,0.0,0.0,0.0,0.0,0.0,0.0,0.0,0.0,0.0,0.0,0.0,0.0,0.0,0.0,0.0,0.0,0.0,0.0,0.0,0.0,0.0,-1.0972,-1.1326,-1.1453,-1.1353,-1.1792,-1.1699,-1.0972,0.0,0.0,0.0,0.0,0.0,0.0,0.0,0.0,0.0,0.0,0.0,0.0,0.0,0.0,0.0,0.0,0.0,0.0,0.0,0.0,0.0,0.0,0.0,0.0,0.0,0.0,0.0,0.0,0.0,0.0,0.0,0.0,0.0,0.0,0.0,0.0,0.0,0.0,0.0,0.0,0.0,0.0,0.0,0.0,0.0,0.0,0.0,0.0,0.0,0.0,0.0,0.0,0.0,0.0,0.0,0.0,0.0,0.0,0.0,0.0,0.0,0.0,0.0,0.0,0.0,0.0,0.0,0.0,0.0,0.0,0.0,0.0,0.0,0.0,0.0,0.0,0.0,0.0,0.0,0.0,0.0,0.0,0.0,0.0,0.0,0.0,0.0,0.0,0.0,0.0,0.0,0.0,0.0,0.0,0.0,0.0,0.0,0.0,0.0,0.0,0.0,0.0,0.0,0.0,-1.0871,-1.1377,-1.1477,-1.1557,-1.173,-1.1699,-1.1461,-1.1013,0.0,0.0,0.0,0.0,0.0,0.0,0.0,0.0,0.0,0.0,0.0,0.0,0.0,0.0,0.0,0.0,0.0,0.0,0.0,0.0,0.0,0.0,0.0,0.0,0.0,0.0,0.0,0.0,0.0,0.0,0.0,0.0,0.0,0.0,0.0,0.0,0.0,0.0,0.0,0.0,0.0,0.0,0.0,0.0,0.0,0.0,0.0,0.0,0.0,0.0,0.0,0.0,0.0,0.0,0.0,0.0,0.0,0.0,0.0,0.0,0.0,0.0,0.0,0.0,0.0,0.0,0.0,0.0,0.0,0.0,0.0,0.0,0.0,0.0,0.0,0.0,0.0,0.0,0.0,0.0,0.0,0.0,0.0,0.0,0.0,0.0,0.0,0.0,0.0,0.0,0.0,0.0,0.0,0.0,0.0,0.0,0.0,0.0,0.0,0.0,0.0,0.0,0.0,-1.0769,-1.1099,-1.1507,-1.1636,-1.1782,-1.1998,-1.2053,-1.1873,-1.1326,-1.1412,0.0,0.0,0.0,0.0,0.0,0.0,0.0,0.0,0.0,0.0,0.0,0.0,0.0,0.0,0.0,0.0,0.0,0.0,0.0,0.0,0.0,0.0,0.0,0.0,0.0,0.0,0.0,0.0,0.0,0.0,0.0,0.0,0.0,0.0,0.0,0.0,0.0,0.0,0.0,0.0,0.0,0.0,0.0,0.0,0.0,0.0,0.0,0.0,0.0,0.0,0.0,0.0,0.0,0.0,0.0,0.0,0.0,0.0,0.0,0.0,0.0,0.0,0.0,0.0,0.0,0.0,0.0,0.0,0.0,0.0,0.0,0.0,0.0,0.0,0.0,0.0,0.0,0.0,0.0,0.0,0.0,0.0,0.0,0.0,0.0,0.0,0.0,0.0,0.0,0.0,0.0,0.0,0.0,0.0,0.0,0.0,0.0,0.0,0.0,0.0,0.0,0.0,-1.1047,-1.1318,-1.1657,-1.1811,-1.2069,-1.2324,-1.2365,-1.2206,-1.1596,-1.1478,0.0,0.0,0.0,0.0,0.0,0.0,0.0,0.0,0.0,0.0,0.0,0.0,0.0,0.0,0.0,0.0,0.0,0.0,0.0,0.0,0.0,0.0,0.0,0.0,0.0,0.0,0.0,0.0,0.0,0.0,0.0,0.0,0.0,0.0,0.0,0.0,0.0,0.0,0.0,0.0,0.0,0.0,0.0,0.0,0.0,0.0,0.0,0.0,0.0,0.0,0.0,0.0,0.0,0.0,0.0,0.0,0.0,0.0,0.0,0.0,0.0,0.0,0.0,0.0,0.0,0.0,0.0,0.0,0.0,0.0,0.0,0.0,0.0,0.0,0.0,0.0,0.0,0.0,0.0,0.0,0.0,0.0,0.0,0.0,0.0,0.0,0.0,0.0,0.0,0.0,0.0,0.0,0.0,0.0,0.0,0.0,0.0,0.0,0.0,0.0,0.0,0.0,-1.1377,-1.1657,-1.1947,-1.2204,-1.2453,-1.2655,-1.2365,-1.2062,-1.179,-1.1351,0.0,0.0,0.0,0.0,0.0,0.0,0.0,0.0,0.0,0.0,0.0,0.0,0.0,0.0,0.0,0.0,0.0,0.0,0.0,0.0,0.0,0.0,0.0,0.0,0.0,0.0,0.0,0.0,0.0,0.0,0.0,0.0,0.0,0.0,0.0,0.0,0.0,0.0,0.0,0.0,0.0,0.0,0.0,0.0,0.0,0.0,0.0,0.0,0.0,0.0,0.0,0.0,0.0,0.0,0.0,0.0,0.0,0.0,0.0,0.0,0.0,0.0,0.0,0.0,0.0,0.0,0.0,0.0,0.0,0.0,0.0,0.0,0.0,0.0,0.0,0.0,0.0,0.0,0.0,0.0,0.0,0.0,0.0,0.0,0.0,0.0,0.0,0.0,0.0,0.0,0.0,0.0,0.0,0.0,0.0,0.0,0.0,0.0,0.0,0.0,0.0,0.0,-1.1598,-1.1859,0.0,-1.2493,-1.2613,-1.2751,-1.2554,-1.2232,-1.171,0.0,0.0,0.0,0.0,0.0,0.0,0.0,0.0,0.0,0.0,0.0,0.0,0.0,0.0,0.0,0.0,0.0,0.0,0.0,0.0,0.0,0.0,0.0,0.0,0.0,0.0,0.0,0.0,0.0,0.0,0.0,0.0,0.0,0.0,0.0,0.0,0.0,0.0,0.0,0.0,0.0,0.0,0.0,0.0,0.0,0.0,0.0,0.0,0.0,0.0,0.0,0.0,0.0,0.0,0.0,0.0,0.0,0.0,0.0,0.0,0.0,0.0,0.0,0.0,0.0,0.0,0.0,0.0,0.0,0.0,0.0,0.0,0.0,0.0,0.0,0.0,0.0,0.0,0.0,0.0,0.0,0.0,0.0,0.0,0.0,0.0,0.0,0.0,0.0,0.0,0.0,0.0,0.0,0.0,0.0,0.0,0.0,0.0,0.0,0.0,0.0,0.0,-1.1489,-1.1839,-1.2111,0.0,-1.2663,-1.2769,-1.2658,-1.249,-1.2182,-1.1498,0.0,0.0,0.0,0.0,0.0,0.0,0.0,0.0,0.0,0.0,0.0,0.0,0.0,0.0,0.0,0.0,0.0,0.0,0.0,0.0,0.0,0.0,0.0,0.0,0.0,0.0,0.0,0.0,0.0,0.0,0.0,0.0,0.0,0.0,0.0,0.0,0.0,0.0,0.0,0.0,0.0,0.0,0.0,0.0,0.0,0.0,0.0,0.0,0.0,0.0,0.0,0.0,0.0,0.0,0.0,0.0,0.0,0.0,0.0,0.0,0.0,0.0,0.0,0.0,0.0,0.0,0.0,0.0,0.0,0.0,0.0,0.0,0.0,0.0,0.0,0.0,0.0,0.0,0.0,0.0,0.0,0.0,0.0,0.0,0.0,0.0,0.0,0.0,0.0,0.0,0.0,0.0,0.0,0.0,0.0,0.0,0.0,0.0,0.0,0.0,0.0,0.0,-1.137,-1.2051,-1.2505,-1.2505,-1.2767,-1.2797,-1.2305,-1.2158,-1.1787,0.0,0.0,0.0,0.0,0.0,0.0,0.0,0.0,0.0,0.0,0.0,0.0,0.0,0.0,0.0,0.0,0.0,0.0,0.0,0.0,0.0,0.0,0.0,0.0,0.0,0.0,0.0,0.0,0.0,0.0,0.0,0.0,0.0,0.0,0.0,0.0,0.0,0.0,0.0,0.0,0.0,0.0,0.0,0.0,0.0,0.0,0.0,0.0,0.0,0.0,0.0,0.0,0.0,0.0,0.0,0.0,0.0,0.0,0.0,0.0,0.0,0.0,0.0,0.0,0.0,0.0,0.0,0.0,0.0,0.0,0.0,0.0,0.0,0.0,0.0,0.0,0.0,0.0,0.0,0.0,0.0,0.0,0.0,0.0,0.0,0.0,0.0,0.0,0.0,0.0,0.0,0.0,0.0,0.0,0.0,0.0,0.0,0.0,0.0,0.0,0.0,0.0,0.0,-1.1558,-1.2045,-1.236,-1.2369,-1.2427,-1.2367,-1.1996,-1.1677,-1.1358,-1.0933,0.0,0.0,0.0,0.0,0.0,0.0,0.0,0.0,0.0,0.0,0.0,0.0,0.0,0.0,0.0,0.0,0.0,0.0,0.0,0.0,0.0,0.0,0.0,0.0,0.0,0.0,0.0,0.0,0.0,0.0,0.0,0.0,0.0,0.0,0.0,0.0,0.0,0.0,0.0,0.0,0.0,0.0,0.0,0.0,0.0,0.0,0.0,0.0,0.0,0.0,0.0,0.0,0.0,0.0,0.0,0.0,0.0,0.0,0.0,0.0,0.0,0.0,0.0,0.0,0.0,0.0,0.0,0.0,0.0,0.0,0.0,0.0,0.0,0.0,0.0,0.0,0.0,0.0,0.0,0.0,0.0,0.0,0.0,0.0,0.0,0.0,0.0,0.0,0.0,0.0,0.0,0.0,0.0,0.0,0.0,0.0,0.0,0.0,0.0,0.0,0.0,0.0,-1.1522,-1.2019,-1.2336,-1.2296,-1.2378,-1.2262,-1.1869,-1.161,-1.1221,-1.0836,0.0,0.0,0.0,0.0,0.0,0.0,0.0,0.0,0.0,0.0,0.0,0.0,0.0,0.0,0.0,0.0,0.0,0.0,0.0,0.0,0.0,0.0,0.0,0.0,0.0,0.0,0.0,0.0,0.0,0.0,0.0,0.0,0.0,0.0,0.0,0.0,0.0,0.0,0.0,0.0,0.0,0.0,0.0,0.0,0.0,0.0,0.0,0.0,0.0,0.0,0.0,0.0,0.0,0.0,0.0,0.0,0.0,0.0,0.0,0.0,0.0,0.0,0.0,0.0,0.0,0.0,0.0,0.0,0.0,0.0,0.0,0.0,0.0,0.0,0.0,0.0,0.0,0.0,0.0,0.0,0.0,0.0,0.0,0.0,0.0,0.0,0.0,0.0,0.0,0.0,0.0,0.0,0.0,0.0,0.0,0.0,0.0,0.0,0.0,0.0,0.0,0.0,-1.1309,-1.1947,-1.236,-1.2158,-1.2454,-1.2376,-1.1901,-1.1621,-1.1286,-1.0886,0.0,0.0,0.0,0.0,0.0,0.0,0.0,0.0,0.0,0.0,0.0,0.0,0.0,0.0,0.0,0.0,0.0,0.0,0.0,0.0,0.0,0.0,0.0,0.0,0.0,0.0,0.0,0.0,0.0,0.0,0.0,0.0,0.0,0.0,0.0,0.0,0.0,0.0,0.0,0.0,0.0,0.0,0.0,0.0,0.0,0.0,0.0,0.0,0.0,0.0,0.0,0.0,0.0,0.0,0.0,0.0,0.0,0.0,0.0,0.0,-0.9554,0.0,0.0,0.0,0.0,0.0,0.0,0.0,0.0,0.0,0.0,0.0,0.0,0.0,0.0,0.0,0.0,0.0,0.0,0.0,0.0,0.0,0.0,0.0,0.0,0.0,0.0,0.0,0.0,0.0,0.0,0.0,0.0,0.0,0.0,0.0,0.0,0.0,0.0,0.0,0.0,0.0,-1.1063,-1.1696,-1.2028,-1.1833,-1.1847,-1.1758,-1.156,-1.1011,-1.0597,-1.0188,-0.9725,0.0,0.0,0.0,0.0,0.0,0.0,0.0,0.0,0.0,0.0,0.0,0.0,0.0,0.0,0.0,0.0,0.0,0.0,0.0,0.0,0.0,0.0,0.0,0.0,0.0,0.0,0.0,0.0,0.0,0.0,0.0,0.0,0.0,0.0,0.0,0.0,0.0,0.0,0.0,0.0,0.0,0.0,0.0,0.0,0.0,0.0,0.0,0.0,0.0,0.0,0.0,0.0,0.0,0.0,0.0,0.0,0.0,0.0,0.0,0.0,-0.9794,0.0,0.0,0.0,0.0,0.0,0.0,0.0,0.0,0.0,0.0,0.0,0.0,0.0,0.0,0.0,0.0,0.0,0.0,0.0,0.0,0.0,0.0,0.0,0.0,0.0,0.0,0.0,0.0,0.0,0.0,0.0,0.0,0.0,0.0,0.0,0.0,0.0,0.0,0.0,0.0,-1.101,-1.1502,-1.1787,-1.1587,-1.1733,-1.1702,-1.1417,-1.0988,-1.0629,-1.0275,-0.9658,0.0,0.0,0.0,0.0,0.0,0.0,0.0,0.0,0.0,0.0,0.0,0.0,0.0,0.0,0.0,0.0,0.0,0.0,0.0,0.0,0.0,0.0,0.0,0.0,0.0,0.0,0.0,0.0,0.0,0.0,0.0,0.0,0.0,0.0,0.0,0.0,0.0,0.0,0.0,0.0,0.0,0.0,0.0,0.0,0.0,0.0,0.0,0.0,0.0,0.0,0.0,0.0,0.0,-1.0764,-1.0764,-1.0764,-1.0764,-1.0892,-1.1124,-1.0829,-1.0442,-1.0,0.0,0.0,0.0,0.0,0.0,0.0,0.0,0.0,0.0,0.0,0.0,0.0,0.0,0.0,0.0,0.0,0.0,0.0,0.0,0.0,0.0,0.0,0.0,0.0,0.0,-1.1241,-1.1191,0.0,0.0,0.0,0.0,0.0,0.0,0.0,0.0,0.0,0.0,0.0,0.0,-1.089,-1.135,-1.1583,-1.1475,-1.1687,-1.1706,-1.1409,-1.1037,-1.0738,-1.0368,-0.9654,-0.9129,0.0,0.0,0.0,0.0,0.0,0.0,0.0,0.0,0.0,0.0,0.0,0.0,0.0,0.0,0.0,0.0,0.0,0.0,0.0,0.0,0.0,0.0,0.0,0.0,0.0,0.0,0.0,0.0,0.0,0.0,0.0,0.0,-1.0418,-1.0601,0.0,0.0,0.0,0.0,0.0,0.0,0.0,0.0,0.0,0.0,0.0,0.0,0.0,-1.0448,-1.0691,-1.0909,-1.104,-1.104,-1.1099,-1.1109,-1.1044,-1.1044,-1.1157,-1.1379,-1.1733,0.0,-1.0424,-1.0691,0.0,0.0,0.0,0.0,0.0,0.0,0.0,0.0,0.0,0.0,0.0,0.0,0.0,0.0,0.0,0.0,0.0,0.0,0.0,0.0,0.0,0.0,-1.1619,-1.1722,-1.1621,-1.1633,0.0,-1.1436,-1.0902,-1.1016,-1.1054,0.0,0.0,0.0,0.0,0.0,0.0,0.0,-1.0488,-1.1011,-1.134,-1.1352,-1.1248,-1.1186,-1.1111,-1.0443,-0.9992,-0.9695,-0.9135,-0.8755,-0.8742,-0.8245,0.0,0.0,0.0,0.0,0.0,0.0,0.0,0.0,0.0,0.0,0.0,0.0,0.0,0.0,0.0,0.0,0.0,0.0,0.0,0.0,0.0,0.0,0.0,0.0,0.0,0.0,0.0,0.0,0.0,-1.0428,-1.0611,-1.0649,-1.0621,-1.0621,0.0,0.0,0.0,0.0,0.0,0.0,0.0,0.0,0.0,-1.0582,-1.0572,-1.0649,-1.0802,-1.105,-1.1174,-1.126,-1.1566,-1.1583,-1.1319,-1.1815,-1.2065,-1.209,-1.2172,-1.1885,-1.139,-1.1656,-1.1537,-1.1093,0.0,0.0,0.0,0.0,-1.0501,-1.0603,-1.0479,-1.0489,0.0,-1.0643,0.0,0.0,0.0,0.0,0.0,0.0,0.0,0.0,0.0,0.0,-1.1503,-1.1833,-1.1823,-1.1739,-1.1804,-1.1461,-1.1234,0.0,-1.1397,-1.1168,-1.0749,0.0,0.0,0.0,0.0,-1.0619,-1.0754,-1.0974,-1.1109,-1.0998,-1.0958,-1.0825,-1.0455,-0.9964,-0.9576,-0.9276,-0.8801,-0.8501,-0.8299,-0.7732,-0.7202,0.0,0.0,0.0,0.0,0.0,0.0,0.0,0.0,0.0,0.0,0.0,0.0,0.0,0.0,0.0,0.0,0.0,0.0,0.0,0.0,0.0,0.0,0.0,0.0,0.0,0.0,0.0,0.0,-1.0611,-1.0764,-1.0736,-1.0736,-1.0736,0.0,0.0,0.0,0.0,0.0,0.0,-1.0802,-1.0725,-1.0697,-1.0736,-1.0812,-1.0916,-1.1067,-1.1276,-1.1437,-1.156,-1.2031,-1.2048,-1.1619,-1.2505,-1.2816,-1.2648,-1.2561,-1.2441,-1.222,-1.2221,-1.2062,-1.1794,-1.1336,-1.1314,-1.1458,-1.1045,-1.0993,-1.1124,-1.0947,-1.0922,-1.0929,-1.0949,0.0,-1.1422,-1.1514,0.0,0.0,0.0,0.0,-1.124,-1.1997,-1.1905,-1.1596,-1.1973,-1.1956,-1.1795,-1.1696,-1.1506,-1.1441,0.0,-1.1553,-1.1145,-1.06,0.0,0.0,0.0,0.0,-1.0551,-1.0802,-1.0912,-1.0924,-1.0738,-1.071,-1.0467,-0.9962,-0.9635,-0.9334,-0.9021,-0.8493,-0.8171,-0.8073,-0.7226,-0.6676,-0.6505,0.0,0.0,0.0,0.0,0.0,0.0,0.0,0.0,0.0,0.0,0.0,0.0,0.0,0.0,0.0,0.0,0.0,0.0,0.0,0.0,0.0,0.0,0.0,0.0,0.0,0.0,0.0,0.0,0.0,-1.104,-1.1078,0.0,0.0,0.0,0.0,-1.1078,-1.1088,-1.1088,-1.1078,-1.0964,-1.0964,-1.1147,-1.1185,-1.1314,-1.1579,-1.1763,-1.192,-1.2077,-1.2556,-1.2419,-1.1819,-1.2736,-1.3026,-1.2807,-1.3128,-1.3086,-1.2775,-1.192,-1.1341,-1.1101,-1.1306,-1.1435,-1.1528,-1.146,-1.1385,-1.1268,-1.098,-1.0971,-1.1054,-1.1005,-1.1195,-1.1542,-1.1842,-1.1553,0.0,0.0,-1.1624,-1.1772,-1.1971,-1.2353,-1.2622,-1.2256,-1.2106,-1.203,-1.204,-1.17,-1.1333,0.0,-1.1073,-1.0591,-1.0717,0.0,-1.0065,-1.0245,-1.0367,-1.0405,-1.0444,-1.0619,-1.0767,-1.0551,-1.0355,-1.0137,-0.9938,-0.9552,-0.9227,-0.8901,-0.8252,-0.7914,-0.8175,-0.7289,-0.6695,-0.6636,-0.6119,0.0,0.0,0.0,0.0,0.0,0.0,0.0,0.0,0.0,0.0,0.0,0.0,0.0,0.0,0.0,0.0,0.0,0.0,0.0,0.0,0.0,0.0,0.0,0.0,0.0,0.0,0.0,0.0,-1.152,-1.1664,0.0,-1.1833,-1.1796,-1.1774,-1.1811,-1.192,-1.1957,-1.1811,-1.1847,-1.1859,-1.1796,-1.1822,-1.1859,-1.192,-1.2102,-1.2258,-1.2305,-1.3004,-1.2881,-1.2075,-1.3129,-1.3312,-1.2869,-1.2861,-1.289,-1.2882,-1.2105,-1.1783,-1.1767,-1.2035,-1.1938,-1.1728,-1.1536,-1.149,-1.1505,-1.1353,-1.1432,-1.1546,-1.1597,-1.1697,-1.1842,-1.2137,-1.212,-1.2017,-1.2117,-1.2183,-1.2343,-1.2721,-1.2624,-1.2407,-1.2372,-1.22,-1.2012,-1.179,-1.1631,-1.1528,-1.1499,-1.1118,-1.0773,-1.0468,-1.0364,-1.0231,-1.0102,-1.0156,-1.0352,-1.0483,-1.045,-1.0394,-1.0334,-1.0015,-0.9727,-0.9567,-0.8953,-0.861,-0.8438,-0.7963,-0.7612,-0.749,-0.7126,-0.6648,-0.6144,-0.5719,-0.5408,0.0,0.0,0.0,0.0,0.0,0.0,0.0,0.0,0.0,0.0,0.0,0.0,0.0,0.0,0.0,0.0,0.0,0.0,0.0,0.0,0.0,0.0,0.0,0.0,0.0,0.0,-1.1001,-1.1472,-1.1778,-1.2,-1.2162,-1.2246,-1.2282,-1.2318,-1.2461,-1.2461,-1.2342,-1.2401,-1.2365,-1.2282,-1.2282,-1.2318,-1.2365,-1.2508,-1.2579,-1.2639,-1.3285,-1.3162,-1.2412,-1.3345,-1.3524,-1.3079,-1.2989,-1.3021,-1.3047,-1.2652,-1.2398,-1.2348,-1.2339,-1.2192,-1.1927,-1.1746,-1.1652,-1.1626,-1.1592,-1.1779,-1.1947,-1.1998,-1.211,-1.2222,-1.2342,-1.2474,-1.2618,-1.2649,-1.2706,-1.289,-1.3227,-1.2965,-1.2522,-1.2629,-1.2435,-1.2168,-1.1808,-1.1726,-1.1632,-1.1409,-1.1111,-1.076,-1.0375,-1.0336,-1.022,-0.9946,-1.009,-1.0223,-1.0223,-1.0154,-1.0046,-0.9889,-0.9646,-0.9379,-0.9192,-0.859,-0.8227,-0.8201,-0.7665,-0.7275,-0.7132,-0.6694,-0.6294,-0.5863,-0.544,-0.5022,-0.478,0.0,0.0,0.0,0.0,0.0,0.0,0.0,0.0,0.0,0.0,0.0,0.0,0.0,0.0,0.0,0.0,0.0,0.0,0.0,0.0,0.0,0.0,0.0,-0.9896,-1.0156,-1.0464,-1.0979,-1.1387,-1.1835,-1.239,-1.2532,-1.2603,-1.2544,-1.2603,-1.2638,-1.2638,-1.2567,-1.2567,-1.2638,-1.2567,-1.265,-1.2931,-1.2931,-1.2978,-1.3107,-1.346,-1.3301,-1.277,-1.347,-1.3668,-1.3455,-1.3553,-1.3497,-1.3326,-1.3528,-1.3232,-1.2569,-1.2181,-1.2091,-1.2135,-1.209,-1.1941,-1.1716,-1.1642,-1.1919,-1.2287,-1.2094,-1.2274,-1.2621,-1.256,-1.2688,-1.284,-1.2973,-1.3111,-1.3316,-1.3484,-1.3346,-1.3134,-1.2956,-1.2721,-1.2486,-1.2109,-1.1868,-1.1632,-1.1409,-1.0887,-1.0513,-1.0513,-1.0143,-0.9933,-0.9889,-1.0106,0.0,-0.9661,-0.9808,-0.9741,-0.9371,-0.9255,-0.9169,-0.8877,-0.8303,-0.8018,-0.8189,-0.7211,-0.6841,-0.7041,-0.6178,-0.5653,-0.5625,-0.5186,-0.4734,-0.4287,0.0,0.0,0.0,0.0,0.0,0.0,0.0,0.0,0.0,0.0,0.0,0.0,0.0,0.0,0.0,0.0,0.0,0.0,0.0,0.0,0.0,0.0,-0.9947,-1.0391,-1.0294,-1.0602,-1.1793,-1.2087,-1.2461,-1.3123,-1.3263,-1.3331,-1.331,-1.3446,-1.3493,-1.3331,-1.3459,-1.3459,-1.3331,-1.3391,-1.3425,-1.3412,-1.3493,-1.3506,-1.3391,-1.3628,-1.3619,-1.3435,-1.3702,-1.393,-1.4094,-1.387,-1.3826,-1.3918,-1.3721,-1.3433,-1.3168,-1.2949,-1.2657,-1.2382,-1.2292,-1.2298,-1.2349,-1.2293,-1.2505,-1.2781,-1.253,-1.248,-1.256,-1.2313,-1.2598,-1.2876,-1.2699,-1.2998,-1.3454,-1.347,-1.3273,-1.298,-1.2914,-1.2613,-1.2238,-1.1861,-1.1726,-1.1571,-1.1093,-1.0732,-1.0513,-1.0513,-1.0293,-1.0073,-0.9933,-0.9927,0.0,-0.9855,-0.9751,-0.9567,-0.9262,-0.8968,-0.8726,-0.8707,-0.807,-0.7629,-0.7665,-0.7155,-0.6533,-0.6071,-0.5832,-0.5478,-0.5013,-0.4656,-0.4452,0.0,0.0,0.0,0.0,0.0,0.0,0.0,0.0,0.0,0.0,0.0,0.0,0.0,0.0,0.0,0.0,0.0,0.0,0.0,0.0,0.0,0.0,-1.0387,-1.0521,-1.0786,-1.0421,-1.0534,-1.1658,-1.2113,-1.267,-1.3429,-1.3628,-1.3728,-1.3769,-1.3927,-1.4007,-1.3894,-1.3974,-1.3974,-1.3894,-1.3941,-1.3941,-1.3881,-1.3894,-1.3795,-1.3674,-1.3639,-1.3702,-1.3816,-1.373,-1.3976,0.0,-1.4057,-1.4026,-1.423,-1.3831,-1.3621,0.0,0.0,0.0,0.0,0.0,-1.2622,-1.2663,-1.2777,-1.2864,-1.2989,-1.2744,-1.256,-1.2436,-1.2243,-1.2495,-1.2785,-1.252,-1.2927,-1.3366,-1.3215,-1.302,-1.29,-1.2826,-1.2526,-1.215,-1.1706,-1.1571,-1.1428,-1.0807,-1.0507,0.0,-1.0509,-1.029,-0.9992,-0.9695,-0.9806,-0.9787,-0.9538,-0.9597,-0.9437,-0.9101,-0.8793,-0.8524,-0.8448,-0.7639,0.0,0.0,0.0,-0.6231,-0.563,-0.5369,0.0,0.0,0.0,-0.4212,-0.43,0.0,0.0,0.0,-0.421,-0.4359,0.0,0.0,0.0,0.0,0.0,0.0,0.0,0.0,0.0,0.0,0.0,0.0,0.0,0.0,0.0,0.0,-1.0602,-1.1137,-1.1029,-1.0636,-1.057,-1.121,-1.1819,-1.2554,-1.3462,-1.3643,-1.3769,-1.3939,-1.4049,-1.4127,-1.4224,0.0,0.0,0.0,0.0,-1.4268,-1.4332,-1.4144,-1.4013,-1.3908,-1.3659,-1.3725,-1.4111,-1.3827,-1.4098,-1.4787,-1.43,-1.425,-1.4395,-1.3984,-1.3736,-1.3525,-1.322,-1.3066,-1.2939,-1.2846,-1.283,-1.2829,-1.302,0.0,0.0,-1.2789,-1.2552,-1.2305,-1.2243,-1.2357,-1.2504,-1.2303,-1.2714,-1.3149,-1.2791,-1.2741,-1.2826,-1.2599,-1.2378,-1.2083,-1.1484,-1.1353,-1.121,-1.0594,-1.0288,-1.029,-1.0445,-1.0144,-0.9776,-0.9428,-0.9657,-0.9736,-0.9147,-0.9404,-0.945,-0.8972,0.0,0.0,-0.8189,-0.7325,-0.6861,-0.7037,-0.6294,-0.5758,-0.5361,-0.4926,-0.4569,-0.43,-0.4034,-0.4034,-0.43,-0.4034,-0.4034,-0.4295,-0.4306,-0.4363,0.0,0.0,0.0,0.0,0.0,0.0,0.0,0.0,0.0,0.0,0.0,0.0,0.0,0.0,0.0,-1.0077,-1.0375,-1.0673,-1.102,-1.1528,-1.1964,-1.2279,-1.1927,-1.2241,-1.367,-1.3472,-1.3307,-1.3506,-1.355,-1.3598,-1.3723,-1.4177,-1.4497,-1.462,-1.462,-1.462,-1.462,-1.4415,-1.4254,-1.4138,0.0,0.0,-1.479,-1.4848,-1.5037,-1.5306,-1.5014,-1.4687,-1.4403,-1.4057,-1.3705,-1.3276,-1.3162,-1.3145,-1.3147,-1.2638,-1.2602,-1.2738,-1.2436,-1.2422,-1.2595,-1.2456,-1.2367,-1.2243,-1.1996,-1.2097,0.0,-1.1978,-1.2369,-1.2791,-1.2586,-1.2597,-1.2599,-1.2378,-1.2164,-1.1874,-1.1267,-1.1141,-1.0998,-1.0351,-1.0207,-1.0084,-0.9834,-0.9878,-0.991,-0.9865,-0.9865,-0.9805,-0.9504,-0.9542,-0.9413,-0.8922,-0.8761,-0.8424,-0.8028,-0.7355,-0.6994,-0.6877,-0.5766,-0.5144,-0.5099,-0.4654,-0.4389,-0.43,-0.421,-0.421,-0.43,-0.421,-0.421,-0.4297,-0.4263,-0.4474,0.0,0.0,0.0,0.0,0.0,0.0,0.0,0.0,0.0,0.0,0.0,-0.9709,0.0,0.0,-1.0042,-1.0049,-1.0508,-1.1034,-1.1633,-1.2455,-1.2776,-1.2183,-1.2101,-1.2358,-1.2997,-1.2881,-1.2871,-1.3118,-1.3495,-1.3734,-1.3838,-1.4382,-1.4749,-1.4842,-1.4794,-1.4746,-1.4746,-1.4529,-1.4487,-1.4614,-1.4515,-1.4811,-1.541,-1.5355,-1.5411,-1.5492,-1.5278,-1.4925,-1.437,-1.3952,-1.3552,-1.317,-1.3065,-1.3085,-1.3189,-1.2941,-1.2896,-1.2998,-1.2837,-1.273,-1.2622,-1.2504,-1.2313,-1.212,-1.1864,-1.197,-1.2071,-1.1646,-1.2112,-1.2614,-1.211,-1.2192,-1.2378,-1.2077,-1.1855,-1.1558,-1.1037,-1.0842,-1.0634,-1.0137,-1.0062,-1.0035,-0.9935,-0.9856,-0.9737,-0.9699,-0.967,-0.9697,-0.9481,-0.9522,-0.9411,-0.899,-0.864,-0.8249,-0.782,-0.7031,-0.6595,-0.6337,-0.5513,-0.501,-0.501,-0.4565,-0.43,-0.43,-0.421,-0.4123,-0.4123,-0.4164,-0.4184,-0.4186,-0.4414,-0.4436,0.0,0.0,0.0,0.0,0.0,0.0,0.0,0.0,-0.9049,-0.9398,-0.9578,-0.9677,-0.9664,-0.9958,-1.0087,-0.984,-1.054,-1.1345,-1.1983,-1.283,-1.3104,-1.2315,-1.2442,-1.2498,-1.2203,-1.2232,-1.2416,-1.2716,-1.3389,-1.3813,-1.3941,-1.4552,-1.4949,-1.5043,-1.4904,-1.4825,-1.4808,-1.4592,-1.4602,-1.4835,-1.4761,-1.5079,-1.5667,-1.5668,-1.5642,-1.549,-1.5234,-1.4832,-1.4291,-1.381,-1.342,-1.317,-1.2968,-1.2984,-1.3185,-1.3227,-1.3193,-1.3188,-1.3305,-1.3047,-1.2647,-1.2536,-1.2313,-1.1996,-1.174,-1.1799,-1.1761,-1.1311,-1.1808,-1.2291,-1.1552,-1.1786,-1.2077,-1.1706,-1.1471,-1.1242,-1.0812,-1.0541,-1.0327,-1.0003,-0.9922,-0.991,-1.0108,-0.9827,-0.9489,-0.9377,-0.9493,-0.95,-0.9246,-0.9436,-0.9345,-0.8907,-0.8376,-0.7956,-0.7357,-0.6579,-0.6052,-0.5855,-0.5339,-0.496,-0.4979,-0.4539,-0.437,-0.43,-0.4123,-0.3946,-0.3946,-0.4101,-0.4139,-0.4158,-0.44,-0.4321,-0.8655,-0.8678,-0.869,-0.869,-0.8645,-0.8589,0.0,0.0,-0.8642,-0.9202,-0.9072,-0.9005,-0.9522,-0.9448,-0.9356,-0.9449,-1.0041,-1.0685,-1.1158,-1.1827,-1.2837,-1.4269,-1.3162,-1.217,-1.2028,-1.1937,-1.1958,-1.2162,-1.2713,-1.3133,-1.3363,-1.4399,-1.5058,-1.5178,-1.5058,-1.4935,-1.4808,-1.4543,-1.436,-1.4311,-1.4912,-1.5257,-1.5293,-1.5964,-1.6053,-1.556,-1.4801,-1.4312,-1.4005,-1.3726,-1.342,-1.317,-1.2968,-1.3116,-1.3329,-1.2865,-1.2859,-1.298,-1.2839,-1.2496,-1.2071,-1.2143,-1.1996,-1.174,-1.1428,-1.1394,-1.129,-1.094,-1.1193,-1.147,-1.1224,-1.143,-1.1706,-1.126,-1.1186,-1.0956,-1.0363,-1.0223,-1.0148,-0.9922,-0.9922,-0.9781,-0.9433,-0.9342,-0.9387,-0.9584,-0.9592,-0.95,-0.9087,-0.9186,-0.917,-0.8723,-0.8201,-0.7435,-0.6509,-0.615,-0.5758,-0.5479,-0.5152,-0.4952,-0.4788,-0.4615,-0.4393,-0.4297,-0.43,-0.43,-0.43,-0.431,-0.4264,-0.4342,-0.4095,-0.4181,-0.8834,-0.8767,0.0,0.0,-0.8905,-0.885,-0.8728,-0.8606,-0.8559,-0.8775,-0.8656,-0.8588,-0.9051,-0.9124,-0.9205,0.0,-0.9802,-1.0343,-1.1067,-1.1777,-1.2499,-1.3207,-1.2635,-1.2195,-1.217,-1.1811,-1.1637,-1.1803,-1.238,-1.2925,-1.3406,-1.4126,-1.4729,-1.5178,-1.4949,-1.4794,-1.4746,-1.4525,-1.4653,-1.5114,-1.5278,-1.5608,-1.6055,-1.6355,-1.6132,-1.548,-1.4651,-1.4197,-1.3994,-1.3525,-1.3276,-1.3045,-1.2666,-1.2679,-1.2832,-1.2735,-1.2919,-1.3109,-1.287,-1.251,-1.2171,-1.2135,-1.1934,-1.1622,-1.1365,-1.1368,-1.1389,-1.1125,-1.1242,-1.1361,-1.0949,-1.096,-1.1028,-1.0528,-1.0484,-1.0519,-1.0143,-0.9992,-0.9997,-0.9916,-0.9771,-0.9695,-0.9473,-0.9165,-0.9086,-0.938,-0.9361,-0.9215,-0.9165,-0.9,-0.864,-0.8028,-0.7508,-0.6898,-0.6325,-0.5927,-0.5598,-0.5452,-0.5124,-0.4893,-0.4768,-0.4567,-0.4446,-0.4224,-0.4273,-0.421,-0.4034,-0.4172,-0.4124,-0.3976,-0.39,-0.4052,-0.8955,0.0,0.0,-0.9097,-0.9081,-0.896,-0.8773,-0.8551,-0.8393,-0.8386,-0.8347,-0.8365,-0.8651,-0.8905,-0.9162,-0.9381,-0.9686,-1.0173,-1.0926,-1.153,-1.1996,-1.2333,-1.2148,-1.211,-1.2381,-1.1806,-1.1466,-1.1601,-1.2388,-1.3065,-1.351,-1.4138,-1.4717,-1.5118,-1.4856,-1.47,-1.4637,-1.4461,-1.4668,-1.5269,-1.5136,-1.5376,-1.5947,-1.5994,-1.5688,-1.5139,-1.4468,-1.4093,-1.3915,-1.3372,-1.3094,-1.291,-1.2421,-1.2273,-1.2351,-1.2466,-1.2646,-1.2923,-1.28,-1.2469,-1.205,-1.2089,-1.1809,-1.1498,-1.131,-1.1277,-1.1258,-1.0999,-1.1016,-1.1044,-1.056,-1.0472,-1.0437,-0.9935,-0.9972,-1.0067,-0.9771,-0.9771,-0.9771,-0.9771,-0.962,-0.9468,-0.9392,-0.9008,-0.8774,-0.8908,-0.8792,-0.8808,-0.895,-0.8491,-0.7989,-0.7348,-0.677,-0.6428,-0.6144,-0.5661,-0.5389,-0.5314,-0.5128,-0.4894,-0.4701,-0.4605,-0.4413,-0.4206,-0.4267,-0.421,-0.4036,-0.4093,-0.4043,-0.3793,-0.383,-0.387,0.0,0.0,-0.9381,-0.9301,-0.9046,-0.8816,-0.8789,-0.8344,-0.7966,-0.8082,-0.8215,-0.8308,-0.841,-0.8739,-0.912,-0.9449,-0.9712,-1.0072,-1.0565,-1.0735,-1.1312,-1.2623,-1.2036,-1.1834,0.0,-1.1968,-1.1534,-1.1579,-1.2824,-1.3561,-1.3591,-1.4644,-1.5179,-1.5013,-1.4887,-1.47,-1.4501,-1.4319,-1.4124,-1.3947,-1.421,-1.4246,-1.4098,-1.4562,-1.4588,-1.4321,-1.4257,-1.4035,-1.3763,-1.3248,-1.2968,-1.2832,-1.2323,-1.2172,-1.2158,-1.1797,-1.1827,-1.2091,-1.239,-1.2094,-1.1607,-1.1951,-1.1747,-1.1303,-1.1122,-1.094,-1.0758,-1.0441,-1.0263,-1.0213,-0.9946,-1.0061,-1.0081,-0.9723,-0.9755,-0.9771,-0.9397,-0.9322,-0.9322,-0.9322,-0.9322,-0.917,-0.878,-0.8703,-0.8544,-0.8199,-0.8064,-0.8098,-0.8427,-0.7694,-0.7017,-0.6655,-0.6285,-0.5922,-0.554,-0.5328,-0.5189,-0.5192,-0.5089,-0.4893,-0.4694,-0.4706,-0.4547,-0.4291,-0.4297,-0.43,-0.43,-0.4302,-0.4256,-0.4062,-0.3989,-0.3765,0.0,0.0,-0.9354,-0.9432,-0.9155,-0.8833,-0.8745,-0.8439,-0.8148,-0.8111,-0.8043,-0.8052,-0.828,-0.8589,-0.8905,-0.9178,-0.9686,-1.0148,-1.0487,-1.0839,-1.1277,-1.1867,-1.1762,0.0,0.0,0.0,0.0,-1.2296,-1.2706,-1.33,-1.4099,-1.4371,-1.4627,-1.4935,-1.4669,-1.4479,-1.4383,-1.4176,-1.4166,-1.4367,-1.4608,-1.4576,-1.4387,-1.4297,-1.4239,-1.4275,-1.3916,-1.3768,-1.3773,-1.32,-1.292,-1.2725,-1.2175,-1.1908,-1.1822,-1.1516,-1.1343,-1.1317,-1.1696,-1.1555,-1.1272,-1.1607,-1.1291,-1.0847,-1.1058,-1.087,-1.0665,-1.0594,-1.0263,-0.9913,-0.9814,-0.9719,-0.9624,-0.9051,-0.9343,-0.962,-0.9175,-0.9089,-0.9084,-0.9084,-0.8856,-0.8632,-0.8551,-0.8169,-0.7773,-0.7331,-0.7675,-0.7981,-0.7846,-0.7426,-0.6973,-0.6668,-0.6193,-0.5811,-0.5689,-0.5441,-0.5226,-0.5064,-0.503,-0.4797,-0.4446,-0.4513,-0.4495,-0.4214,-0.4271,-0.43,-0.43,-0.4123,-0.3959,-0.3803,-0.3509,-0.3343,0.0,-0.9159,-0.9159,-0.9237,-0.9042,-0.8833,-0.8717,-0.8393,-0.8062,-0.8015,-0.7918,-0.7908,-0.8109,-0.8449,-0.8756,-0.8987,-0.9555,-1.0072,-1.0449,-1.0825,-1.1192,-1.1466,-1.163,0.0,0.0,0.0,0.0,-1.3082,-1.3277,-1.3679,-1.4352,-1.44,-1.4567,-1.4856,-1.4556,-1.4332,-1.43,-1.4013,-1.3918,-1.4053,-1.4111,-1.4025,-1.3848,-1.3643,-1.3582,-1.3625,-1.3466,-1.3432,-1.344,-1.3092,-1.2822,-1.2578,-1.2076,-1.1778,-1.1628,-1.1326,-1.1074,-1.0902,-1.1277,-1.1146,-1.0928,-1.1199,-1.0975,-1.0632,-1.0766,-1.0662,-1.0467,-1.0399,-0.9993,-0.9578,-0.9479,-0.9378,-0.9146,-0.8654,-0.892,-0.9165,-0.8789,-0.8708,-0.8703,-0.8703,-0.8399,-0.8169,-0.8097,-0.7533,-0.6991,-0.6701,-0.7012,-0.7193,-0.7076,-0.682,-0.6525,-0.627,-0.5922,-0.5759,-0.5605,-0.5479,-0.5304,-0.5096,-0.5063,-0.4804,-0.4415,-0.4477,-0.4444,-0.4218,-0.4271,-0.43,-0.43,-0.4123,-0.3857,-0.3587,-0.3408,-0.3141,-0.8668,-0.8911,-0.8875,-0.8802,-0.8762,-0.8728,-0.8679,-0.8166,-0.7725,-0.7802,-0.7869,-0.7927,0.0,0.0,-0.8673,-0.886,-0.9343,-0.988,-1.0424,-1.0729,-1.1062,0.0,0.0,0.0,0.0,0.0,0.0,-1.395,0.0,-1.4688,-1.4454,-1.4788,-1.4921,-1.4808,-1.4461,-1.43,-1.4268,-1.3815,-1.3425,-1.3072,-1.2815,-1.2627,-1.2484,-1.2582,-1.2552,-1.2423,-1.2979,-1.3076,-1.2766,-1.2857,-1.2696,-1.2452,-1.2017,-1.1719,-1.1477,-1.1226,-1.0922,-1.0775,-1.1064,-1.0863,-1.053,-1.0681,-1.0661,-1.0516,-1.0342,-1.0321,-1.0244,-0.9932,-0.9536,-0.9274,-0.9017,-0.8923,-0.879,-0.8372,-0.8475,-0.8551,-0.8178,-0.8102,-0.8106,-0.8106,-0.7944,-0.7706,-0.7484,-0.6834,-0.6378,-0.6461,-0.6182,-0.6065,-0.6196,-0.5928,-0.5761,-0.5523,-0.5531,-0.5465,-0.5523,-0.5447,-0.5352,-0.5201,-0.5114,-0.485,-0.4515,-0.4519,-0.4389,-0.4297,-0.43,-0.43,-0.43,-0.43,-0.4032,-0.3587,-0.3587,-0.3409,-0.8945,-0.8982,-0.8923,-0.8718,-0.8305,-0.8053,-0.8336,-0.808,-0.7802,-0.7869,-0.7976,-0.8072,0.0,0.0,0.0,-0.8789,-0.9369,0.0,-1.0298,-1.0835,0.0,0.0,0.0,-1.2571,-1.3797,-1.3809,0.0,0.0,-1.4824,-1.4672,-1.4845,-1.485,-1.4825,-1.4746,-1.4397,-1.4138,-1.4007,-1.3539,-1.3163,-1.2885,-1.2745,-1.2556,-1.2282,-1.2093,-1.2101,-1.2261,-1.2137,-1.2194,-1.2287,-1.2345,-1.2205,-1.194,-1.1809,-1.1728,-1.1628,-1.1226,-1.0972,-1.0836,-1.0625,-1.0337,-1.0181,-1.0359,-1.0342,-1.0231,-1.0467,-1.0444,-1.0244,-1.0053,-0.9664,-0.921,-0.8958,-0.8856,-0.8785,-0.8221,-0.8396,-0.8551,-0.8178,-0.7953,-0.7876,-0.7876,-0.7565,-0.7253,-0.6868,-0.6518,-0.6234,-0.6074,-0.5796,-0.5785,-0.6201,-0.5966,-0.5741,-0.5658,-0.5574,-0.5447,-0.5417,-0.5553,-0.5563,-0.5326,-0.5124,-0.4858,-0.4621,-0.4444,-0.4364,-0.43,-0.43,-0.43,-0.43,-0.43,-0.4121,-0.3857,-0.3857,-0.3678,-0.887,-0.8924,-0.8885,-0.8382,-0.8175,-0.8144,-0.8284,-0.8033,-0.7821,-0.7898,-0.7966,0.0,0.0,0.0,0.0,0.0,0.0,0.0,-1.026,-1.0811,-1.1293,0.0,-1.2162,0.0,-1.3992,-1.4227,-1.4659,0.0,-1.5111,-1.4862,-1.4951,-1.478,-1.4624,-1.4525,-1.4235,-1.3908,-1.3539,-1.3301,-1.299,-1.2662,-1.2603,-1.2461,-1.221,-1.1932,-1.183,-1.1905,0.0,-1.1706,-1.1733,-1.1802,-1.1777,-1.1677,-1.1535,-1.1527,-1.1569,-1.1226,-1.1023,-1.082,-1.036,-1.0102,-0.9977,-1.0,-1.0048,-1.0105,-1.0162,-1.0153,-1.011,-0.9862,-0.9472,-0.9022,-0.8894,-0.8789,-0.8508,-0.8075,-0.8254,-0.8327,-0.7944,-0.7646,-0.7492,-0.7338,-0.7103,-0.6872,-0.6486,-0.6312,-0.6097,-0.5799,-0.5592,-0.5566,-0.5791,-0.5581,-0.5457,-0.5295,-0.5272,-0.522,-0.5207,-0.524,-0.5249,-0.5122,-0.4944,-0.47,-0.4567,-0.4389,-0.43,-0.43,-0.4212,-0.4212,-0.43,-0.4212,-0.4034,-0.3859,-0.3982,-0.3908,-0.8696,-0.8813,-0.8823,-0.8038,-0.8161,-0.8469,-0.8326,-0.8052,-0.785,-0.7898,0.0,-0.8042,-0.829,0.0,-0.8773,-0.8871,0.0,-0.9944,-1.0285,-1.0783,-1.1282,-1.1665,-1.2431,-1.3181,-1.3844,-1.437,-1.4855,-1.5255,-1.5253,-1.5117,-1.4856,-1.461,-1.442,-1.4268,-1.4007,-1.3607,-1.3107,-1.3072,-1.2885,-1.2508,-1.2437,-1.2329,-1.2138,-1.1918,-1.1697,-1.1511,-1.1566,0.0,-1.1095,-1.117,-1.1337,-1.1444,-1.1179,-1.1244,-1.1427,-1.1175,-1.0972,-1.0769,-1.0205,-1.0029,-1.0,-0.9688,-0.9835,-1.0013,-0.9731,-0.9784,-0.9926,-0.9542,-0.9157,-0.8835,-0.8823,-0.8565,-0.8197,-0.8,-0.8015,-0.7918,-0.7557,-0.7334,-0.7026,-0.6641,-0.6563,-0.6563,-0.6338,-0.6208,-0.5927,-0.5655,-0.5498,-0.5408,-0.5165,-0.5165,-0.509,-0.4867,-0.4869,-0.4994,-0.5009,-0.4875,-0.4763,-0.4769,-0.4613,-0.448,-0.4385,-0.43,-0.43,-0.43,-0.4036,-0.4036,-0.43,-0.4036,-0.3948,-0.3948,-0.4106,-0.3957,-0.9158,-0.9014,-0.891,-0.8221,-0.7984,-0.8005,-0.8252,-0.8205,0.0,0.0,0.0,-0.8354,-0.8432,-0.8778,0.0,-0.9262,0.0,0.0,0.0,0.0,-1.1918,0.0,0.0,0.0,0.0,0.0,0.0,0.0,0.0,-1.4732,-1.4578,-1.4533,-1.4324,-1.3974,-1.3769,-1.3467,-1.3107,-1.2945,-1.2721,-1.2401,-1.2413,-1.2233,-1.1943,-1.187,-1.1649,-1.1421,-1.1162,0.0,-1.0567,-1.0685,-1.0826,-1.0922,-1.0789,-1.1,-1.1276,-1.0922,-1.0667,-1.0522,-1.0102,-1.0128,-1.0156,-0.9761,-0.9835,-1.007,-0.984,-0.9899,-0.9919,-0.9466,-0.9087,-0.8705,-0.8312,-0.8046,-0.7808,-0.7624,-0.7625,-0.753,-0.7302,-0.7099,-0.6865,-0.6641,-0.6563,-0.6563,-0.6338,-0.6122,-0.5892,-0.564,-0.5422,-0.5277,-0.5045,-0.5048,-0.5083,-0.5098,-0.5109,-0.5117,-0.49,-0.5068,-0.5011,-0.486,-0.4768,-0.4641,-0.4659,-0.4389,-0.43,-0.43,-0.4036,-0.4036,-0.43,-0.4036,-0.4036,-0.421,-0.4226,-0.4232,-0.9323,-0.9181,-0.9081,-0.8344,-0.8145,-0.8209,-0.8361,0.0,0.0,0.0,0.0,-0.8421,-0.8695,0.0,0.0,0.0,0.0,0.0,0.0,0.0,0.0,0.0,0.0,0.0,0.0,0.0,0.0,0.0,0.0,-1.4624,-1.4501,-1.4259,-1.398,-1.3695,-1.3514,-1.3276,-1.299,-1.2862,-1.2721,-1.2556,-1.2449,-1.2269,-1.2041,-1.187,-1.1697,-1.1533,-1.1002,0.0,-1.0544,-1.017,-1.0349,-1.0759,-1.049,-1.0723,-1.1175,-1.0922,-1.0667,-1.047,-1.0102,-1.0068,-1.0159,-0.9875,-1.003,-1.0279,-0.9778,-0.9784,-0.9919,-0.9402,-0.8958,-0.8576,-0.8317,-0.7959,-0.7605,-0.7494,-0.7309,-0.7166,-0.6953,-0.6809,-0.6714,-0.649,-0.6412,-0.6335,-0.6099,-0.6018,-0.5786,-0.5479,-0.5398,-0.5243,-0.5015,-0.5018,-0.4983,-0.5015,-0.4975,-0.4883,-0.4867,-0.4831,-0.4717,-0.4694,-0.4536,-0.4444,-0.441,-0.4366,-0.421,-0.4123,-0.3946,-0.3946,-0.4123,-0.3946,-0.4036,-0.43,-0.4349,-0.4371,-0.9451,-0.9341,-0.9248,-0.8564,-0.8479,-0.8583,-0.8611,-0.8414,0.0,0.0,-0.8432,-0.8432,-0.8845,0.0,0.0,0.0,0.0,0.0,0.0,0.0,0.0,0.0,0.0,0.0,0.0,0.0,0.0,0.0,0.0,0.0,-1.4452,-1.4026,-1.3708,-1.3514,-1.323,-1.3026,-1.2896,-1.2716,-1.2646,-1.2662,-1.2484,-1.233,-1.221,-1.1943,-1.1745,-1.1597,-1.1002,0.0,0.0,-0.9834,-0.9994,-1.0579,-1.0202,-1.0415,-1.0914,-1.0838,-1.0624,-1.0368,-1.0102,-1.0007,-1.0017,-0.9893,-1.015,-1.0375,-0.9669,-0.9714,-0.9856,-0.9338,-0.8829,-0.8452,-0.8387,-0.7859,-0.7324,-0.7296,-0.7027,-0.6771,-0.6552,-0.6529,-0.649,-0.6257,-0.618,-0.6103,-0.5864,-0.5864,-0.5709,-0.5321,-0.5321,-0.5323,-0.5093,-0.5093,-0.505,-0.4903,-0.4833,-0.4737,-0.4746,-0.4533,-0.4453,-0.4458,-0.4311,-0.4233,-0.414,-0.4226,-0.4184,-0.4011,-0.3939,-0.3946,-0.3946,-0.3946,-0.4036,-0.4212,-0.4282,-0.4314,-0.9623,-0.9478,-0.9343,-0.9078,-0.8937,-0.8878,-0.8928,0.0,0.0,-0.8499,-0.8404,-0.8375,-0.86,-0.8745,0.0,0.0,0.0,0.0,0.0,0.0,0.0,0.0,0.0,0.0,0.0,0.0,0.0,0.0,0.0,0.0,-1.4222,-1.3941,-1.3741,-1.3581,-1.3019,-1.2811,-1.2896,-1.2356,-1.2222,-1.2508,-1.2449,-1.233,-1.2198,-1.1993,-1.1689,-1.1319,-1.1029,0.0,0.0,-0.9892,-0.984,-0.9977,-0.9919,-1.0114,-1.0385,-1.0503,-1.0316,-1.0051,-0.9999,-0.9947,-0.9893,-0.9783,-0.9921,-1.0107,-0.9838,-0.9805,-0.967,-0.9028,-0.8705,-0.8387,-0.7927,-0.7353,-0.6884,-0.6579,-0.6603,-0.6552,-0.6396,-0.6298,-0.6257,-0.6018,-0.5941,-0.5864,-0.5637,-0.5637,-0.5556,-0.5321,-0.5479,-0.5479,-0.5321,-0.5401,-0.5485,-0.526,-0.5098,-0.4865,-0.4714,-0.4559,-0.4454,-0.4225,-0.4068,-0.4038,-0.4048,-0.4136,-0.4185,-0.4185,-0.3999,-0.4036,-0.43,-0.4036,-0.3948,-0.3946,-0.422,-0.4224,-0.9591,-0.9446,-0.9301,-0.919,-0.9015,-0.8933,-0.9038,0.0,0.0,-0.8762,-0.8628,-0.8544,-0.8806,-0.8905,-0.9216,0.0,0.0,0.0,0.0,0.0,0.0,0.0,0.0,0.0,0.0,0.0,0.0,0.0,0.0,0.0,-1.3493,-1.3297,-1.3103,-1.2902,-1.2576,-1.2381,-1.235,-1.2414,-1.2503,-1.2685,-1.2484,-1.2365,-1.2294,-1.1943,-1.1601,-1.1282,-1.0878,0.0,0.0,-0.9862,-0.9871,-1.0009,-1.0126,-1.0191,-1.0343,-1.0638,-1.0411,-0.9999,-0.9999,-0.9894,-0.9783,-0.9728,-0.9748,-0.9755,-0.9695,-0.9637,-0.953,-0.9081,-0.8705,-0.8382,-0.7992,-0.74,-0.6832,-0.6505,-0.6518,-0.6481,-0.6186,-0.631,-0.6331,-0.5941,-0.5864,-0.5864,-0.5637,-0.5479,-0.5401,-0.5321,-0.5398,-0.5401,-0.5479,-0.5559,-0.5559,-0.5479,-0.5323,-0.509,-0.4859,-0.4883,-0.4836,-0.4535,-0.4447,-0.4342,-0.4123,-0.4126,-0.403,-0.3996,-0.4031,-0.4074,-0.4034,-0.4123,-0.4123,-0.4123,-0.421,-0.421,-0.9658,-0.9499,-0.9339,-0.9298,-0.9124,-0.9015,0.0,0.0,-0.8656,-0.8889,-0.8767,-0.8684,-0.8955,-0.8999,-0.9239,0.0,0.0,-1.0666,0.0,0.0,0.0,0.0,0.0,0.0,0.0,0.0,0.0,0.0,0.0,0.0,0.0,-1.2464,-1.2376,-1.2494,-1.2228,-1.2175,-1.2311,-1.2462,-1.2622,-1.2768,-1.252,-1.2413,-1.2365,-1.1892,-1.1549,-1.1271,-1.0829,0.0,0.0,-0.9902,-0.9839,-0.9882,-1.0215,-1.0216,-1.0187,-1.0647,-1.0462,-0.9999,-0.9999,-0.9782,-0.9554,-0.959,-0.9579,-0.9465,-0.9486,-0.9444,-0.9396,-0.9081,-0.87,-0.8252,-0.7857,-0.7335,-0.6828,-0.6485,-0.6525,-0.6539,-0.615,-0.63,-0.6395,-0.5886,-0.5758,-0.5696,-0.5505,-0.5375,-0.5321,-0.5398,-0.5476,-0.5553,-0.5634,-0.5792,-0.5792,-0.5712,-0.5553,-0.5398,-0.509,-0.5086,-0.5034,-0.4752,-0.4737,-0.4554,-0.4351,-0.4165,-0.4063,-0.3955,-0.4157,-0.4116,-0.4001,-0.4198,-0.43,-0.4212,-0.43,-0.43,-0.9944,-0.9762,-0.9497,-0.9497,-0.9351,-0.919,0.0,0.0,-0.8789,-0.8789,-0.869,-0.8684,-0.8955,-0.8905,-0.9008,-0.9605,-0.9605,0.0,0.0,0.0,0.0,0.0,0.0,0.0,0.0,0.0,0.0,0.0,0.0,0.0,0.0,-1.1514,-1.1707,-1.2742,-1.2152,-1.2209,-1.3082,-1.2448,-1.2314,-1.2709,-1.2484,-1.2413,-1.2365,-1.1892,-1.1549,0.0,0.0,0.0,0.0,-1.0019,-0.9734,-0.9359,-1.0057,-1.0047,-0.978,-1.0458,-1.0411,-0.9999,-0.9999,-0.9636,-0.9214,-0.9357,-0.9332,-0.9219,-0.9114,-0.9194,-0.9274,-0.9081,-0.8501,-0.7857,-0.733,-0.7073,-0.6796,-0.6503,-0.6472,-0.6573,-0.636,-0.6298,-0.614,-0.5613,-0.539,-0.528,-0.515,-0.5234,-0.5398,-0.5559,-0.5786,-0.586,-0.5864,-0.6099,-0.618,-0.5941,-0.586,-0.5709,-0.5321,-0.5085,-0.498,-0.4862,-0.4708,-0.4592,-0.4696,-0.4532,-0.4365,-0.4365,-0.4295,-0.4173,-0.4175,-0.4259,-0.4121,-0.3948,-0.421,-0.43,-0.9607,-0.9552,-0.9458,-0.9324,-0.9217,-0.9255,-0.9676,0.0,-0.9579,-1.0179,-1.011,-1.0061,-1.0302,-1.032,-1.0558,-1.1296,-1.154,0.0,0.0,0.0,0.0,0.0,0.0,0.0,0.0,0.0,0.0,0.0,0.0,0.0,0.0,-1.1083,-1.1175,-1.2027,-1.1741,-1.1883,-1.2481,-1.2497,-1.261,-1.2768,-1.2544,-1.2437,-1.2377,-1.1979,-1.1564,0.0,0.0,0.0,0.0,-1.0019,-0.999,-0.9998,-1.0295,-1.0392,-1.041,-1.0847,-1.0718,-1.0316,-1.0265,-0.9836,-0.933,-0.9171,-0.9167,-0.9181,-0.8895,-0.8927,-0.9017,-0.856,-0.8242,-0.7857,-0.7335,-0.7073,-0.6867,-0.6647,-0.6616,-0.6542,-0.623,-0.6215,-0.6156,-0.5735,-0.5463,-0.5433,-0.5631,-0.5446,-0.5398,-0.5786,-0.6022,-0.6295,-0.6472,-0.6627,-0.6677,-0.6709,-0.6546,-0.6177,-0.5556,-0.5482,-0.5401,-0.5356,-0.5095,-0.4992,-0.4949,-0.4615,-0.4395,-0.4464,-0.4329,-0.4202,-0.4259,-0.4285,-0.43,-0.421,-0.43,-0.43,0.0,-1.0325,-1.0232,-0.9821,-0.9663,0.0,0.0,0.0,-1.0132,-1.0912,-1.0958,-1.0908,-1.1124,-1.1186,-1.1388,-1.1908,-1.2234,0.0,0.0,0.0,0.0,0.0,0.0,0.0,0.0,0.0,0.0,0.0,0.0,0.0,0.0,-1.0723,-1.0834,-1.1497,-1.1423,-1.1703,-1.2371,-1.2509,-1.2677,-1.292,-1.2697,-1.2544,-1.2484,-1.2029,-1.17,0.0,0.0,0.0,0.0,-1.0127,-1.0146,-1.0297,-1.0328,-1.0486,-1.0706,-1.0788,-1.0655,-1.047,-1.0265,-0.9836,-0.9361,-0.9113,-0.9033,-0.8964,-0.8854,-0.8896,-0.8829,-0.8436,-0.8177,-0.7922,-0.7466,-0.7138,-0.688,-0.6802,-0.6612,-0.6466,-0.6226,-0.6134,-0.6012,-0.5718,-0.547,-0.5532,-0.5924,-0.5832,-0.5786,-0.6247,-0.6405,-0.662,-0.686,-0.6946,-0.7021,-0.7108,-0.6875,-0.6579,-0.6026,-0.5813,-0.572,-0.5655,-0.5466,-0.5276,-0.5333,-0.4949,-0.4704,-0.4685,-0.4428,-0.4285,-0.4253,-0.4283,-0.43,-0.43,-0.43,-0.43,0.0,0.0,0.0,0.0,0.0,0.0,0.0,0.0,0.0,0.0,0.0,-1.1431,-1.1554,-1.1572,-1.1663,-1.1801,0.0,0.0,0.0,0.0,0.0,0.0,0.0,0.0,0.0,0.0,0.0,0.0,0.0,0.0,0.0,-1.0424,-1.0649,-1.1162,-1.1175,-1.1642,-1.2633,-1.2437,-1.2551,-1.2948,-1.2742,-1.2649,-1.2614,-1.2162,-1.1909,0.0,0.0,0.0,0.0,-1.0273,-1.0217,-1.0312,-1.0185,-1.0348,-1.0637,-1.0431,-1.0409,-1.0438,-1.0146,-0.9784,-0.942,-0.9109,-0.8905,-0.8741,-0.8931,-0.8894,-0.877,-0.8511,-0.8247,-0.7987,-0.7727,-0.7274,-0.6905,-0.6921,-0.6662,-0.6356,-0.6298,-0.6037,-0.5731,-0.5591,-0.5488,-0.5585,-0.6047,-0.6242,-0.649,-0.6865,-0.6942,-0.7006,-0.7111,-0.7122,-0.7181,-0.7191,-0.7116,-0.7033,-0.6798,-0.6175,-0.5882,-0.5961,-0.5642,-0.5613,-0.573,-0.5357,-0.5127,-0.4872,-0.461,-0.4437,-0.427,-0.4349,-0.43,-0.43,-0.43,-0.43,0.0,0.0,0.0,0.0,0.0,0.0,0.0,0.0,0.0,0.0,0.0,0.0,0.0,0.0,0.0,0.0,0.0,0.0,0.0,0.0,0.0,0.0,0.0,0.0,0.0,0.0,0.0,0.0,0.0,0.0,0.0,-1.0681,-1.0748,-1.0884,-1.0848,-1.1203,-1.1994,-1.1702,-1.161,-1.1745,-1.2033,-1.214,-1.2085,-1.2295,-1.2246,0.0,0.0,0.0,-1.0867,-1.0428,-1.0368,-1.0577,-1.0293,-1.0346,-1.0538,-1.0703,-1.0635,-1.0508,-1.0527,-1.0257,-0.9821,-0.9437,-0.9187,-0.8973,-0.8989,-0.8894,-0.87,-0.8371,-0.8236,-0.8042,-0.7657,-0.733,-0.707,-0.6967,-0.651,-0.616,-0.6239,-0.6033,-0.58,-0.5731,-0.5778,-0.5989,-0.6409,-0.6538,-0.6641,-0.6865,-0.7022,-0.7211,-0.7512,-0.76,-0.7635,-0.7689,-0.7526,-0.725,-0.7116,-0.6665,-0.6336,-0.6147,-0.5985,-0.5877,-0.5733,-0.5255,-0.5063,-0.4975,-0.48,-0.4625,-0.4539,-0.4734,-0.4746,-0.4569,-0.4569,-0.448,-1.3437,-1.282,-1.2012,0.0,0.0,0.0,0.0,0.0,0.0,0.0,0.0,0.0,0.0,0.0,0.0,0.0,0.0,0.0,0.0,0.0,0.0,0.0,0.0,0.0,0.0,0.0,0.0,0.0,0.0,0.0,0.0,-1.0705,-1.0777,-1.0801,-1.1001,-1.1294,-1.1659,-1.1318,-1.1299,-1.1545,-1.1647,-1.1834,-1.198,-1.2123,-1.2212,0.0,0.0,0.0,-1.1207,-1.0687,-1.0607,-1.0775,-1.0296,-1.0343,-1.0624,-1.0562,-1.0565,-1.0586,-1.0596,-1.0257,-0.9761,-0.9437,-0.9266,-0.924,-0.9078,-0.9053,-0.8958,-0.8436,-0.8306,-0.8242,-0.7852,-0.7526,-0.725,-0.698,-0.6615,-0.6364,-0.6169,-0.6104,-0.6036,-0.6033,-0.6194,-0.6378,-0.6769,-0.6872,-0.6949,-0.7173,-0.7253,-0.7434,-0.7704,-0.7737,-0.7817,-0.7916,-0.7612,-0.7458,-0.7361,-0.694,-0.6564,-0.6245,-0.5959,-0.5709,-0.5394,-0.5318,-0.5257,-0.5114,-0.4809,-0.4722,-0.477,-0.4856,-0.4879,-0.4835,-0.4835,-0.4746,-1.3615,-1.3259,-1.274,-1.2203,0.0,0.0,0.0,0.0,0.0,0.0,0.0,0.0,0.0,0.0,0.0,0.0,0.0,0.0,0.0,0.0,0.0,0.0,0.0,0.0,0.0,0.0,0.0,0.0,0.0,0.0,0.0,-1.0681,-1.0777,-1.0825,-1.1282,-1.1505,-1.1548,-1.1175,-1.1253,-1.1755,-1.1533,-1.1665,-1.2132,-1.2007,-1.2149,-1.2437,0.0,0.0,-1.1516,-1.1016,-1.0903,-1.0882,-1.0349,-1.0386,-1.0695,-1.0301,-1.0386,-1.0731,-1.0604,-1.0216,-0.9758,-0.9439,-0.9482,-0.9564,-0.9309,-0.9286,-0.9274,-0.8705,-0.8582,-0.8447,-0.8117,-0.7787,-0.7447,-0.7048,-0.6817,-0.6587,-0.6275,-0.6327,-0.6382,-0.637,-0.657,-0.6783,-0.7157,-0.7257,-0.7334,-0.7484,-0.7484,-0.7549,-0.7736,-0.784,-0.7805,-0.7797,-0.7654,-0.7539,-0.7421,-0.6974,-0.656,-0.6272,-0.5806,-0.5435,-0.5144,-0.5405,-0.5452,-0.5092,-0.4917,-0.4746,-0.4837,-0.4837,-0.4976,-0.5075,-0.5075,-0.5075,-1.3648,-1.3408,-1.3285,-1.3576,-1.3746,0.0,0.0,0.0,0.0,0.0,0.0,0.0,0.0,0.0,0.0,0.0,0.0,0.0,0.0,0.0,0.0,0.0,0.0,0.0,0.0,0.0,0.0,0.0,0.0,0.0,0.0,-1.0825,-1.092,-1.1038,-1.1017,-1.1259,-1.1743,-1.1309,-1.1279,-1.1618,-1.1588,-1.1815,-1.2267,-1.2611,-1.2718,-1.2697,0.0,-1.1799,-1.1734,-1.1538,-1.1192,-1.0742,-1.0834,-1.0701,-1.0474,-1.0525,-1.0672,-1.0876,-1.0697,-1.0692,-1.0688,-1.0094,-1.0205,-1.049,-0.985,-0.9703,-0.9606,-0.9087,-0.8829,-0.8641,-0.8117,-0.7857,-0.7583,-0.7247,-0.695,-0.666,-0.6635,-0.6569,-0.6596,-0.6544,-0.6889,-0.7153,-0.7176,-0.7334,-0.7484,-0.7484,-0.7484,-0.7549,-0.7736,-0.784,-0.768,-0.7469,-0.7488,-0.7246,-0.6853,-0.649,-0.6163,-0.5978,-0.5961,-0.5733,-0.5178,-0.5122,-0.4999,-0.4811,-0.488,-0.4967,-0.4984,-0.5231,-0.5289,-0.514,-0.5315,-0.5315,-1.396,-1.3859,-1.3884,-1.4141,0.0,-1.3704,0.0,0.0,0.0,0.0,0.0,0.0,0.0,0.0,0.0,0.0,0.0,0.0,0.0,0.0,0.0,0.0,0.0,0.0,0.0,0.0,0.0,0.0,0.0,0.0,0.0,0.0,-1.1038,-1.1155,-1.1336,-1.1709,-1.2278,-1.1965,-1.1817,-1.1873,-1.1725,-1.1907,-1.2364,-1.2423,-1.2626,-1.285,0.0,-1.2441,-1.24,-1.2367,-1.2077,-1.1644,-1.158,-1.127,-1.0922,-1.0913,-1.0941,-1.0995,-1.0762,-1.0677,-1.0547,-1.0154,-1.0177,-1.0342,-1.0021,-0.9869,-0.9734,-0.9396,-0.9081,-0.8765,-0.8242,-0.7987,-0.7751,-0.7446,-0.7296,-0.7267,-0.7003,-0.7167,-0.7362,-0.7283,-0.7507,-0.7642,-0.7569,-0.7569,-0.7642,-0.7484,-0.7484,-0.7512,-0.7602,-0.7536,-0.7525,-0.7623,-0.7315,-0.7108,-0.7112,-0.6558,-0.6078,-0.5678,-0.5448,-0.5374,-0.5278,-0.503,-0.4885,-0.4943,-0.4971,-0.5052,-0.5276,-0.5355,-0.5499,-0.5616,-0.5704,-0.5741,-1.4157,-1.4222,-1.4332,-1.4397,0.0,-1.3642,-1.3529,0.0,0.0,0.0,0.0,0.0,0.0,0.0,0.0,0.0,0.0,0.0,0.0,0.0,0.0,0.0,0.0,0.0,0.0,0.0,0.0,0.0,0.0,0.0,0.0,0.0,-1.1155,-1.1285,-1.1597,-1.209,-1.2789,-1.2551,-1.2443,-1.2459,-1.207,-1.2159,-1.2572,-1.2395,-1.2503,-1.2897,-1.3004,-1.293,-1.2747,-1.3029,-1.2828,-1.231,-1.2175,-1.1851,-1.1445,-1.1329,-1.1225,-1.1133,-1.1021,-1.0801,-1.0614,-1.0504,-1.0486,-1.0439,-1.0329,-1.0194,-0.9926,-0.9658,-0.9402,-0.9017,-0.8436,-0.8218,-0.8128,-0.7729,-0.7853,-0.787,-0.7507,-0.7781,-0.8097,-0.794,-0.8021,-0.803,-0.788,-0.7804,-0.7723,-0.7565,-0.7561,-0.7484,-0.7484,-0.733,-0.7386,-0.76,-0.7141,-0.6875,-0.716,-0.66,-0.6062,-0.5633,-0.514,-0.5026,-0.5402,-0.5044,-0.4975,-0.5223,-0.514,-0.5297,-0.5551,-0.5551,-0.5696,-0.5985,-0.5988,-0.6127,-1.4046,-1.4208,-1.4397,-1.4397,-1.4392,0.0,-1.4328,-1.4483,0.0,0.0,0.0,0.0,0.0,0.0,0.0,0.0,0.0,0.0,0.0,0.0,0.0,0.0,0.0,0.0,0.0,0.0,0.0,0.0,0.0,0.0,0.0,0.0,0.0,-1.1466,-1.1396,-1.1903,-1.3047,-1.2678,-1.2831,-1.3485,-1.2839,-1.2761,-1.3135,-1.2916,-1.2859,-1.2897,-1.3104,-1.2796,-1.2238,-1.324,-1.2914,-1.1808,-1.2345,-1.2158,-1.1612,-1.1786,-1.1601,-1.1327,-1.1626,-1.166,-1.1616,-1.1662,-1.1639,-1.1618,-1.1142,-1.0793,-1.0434,-0.9926,-0.974,-0.9542,-0.8705,-0.8673,-0.87,-0.8088,-0.8282,-0.8524,-0.801,-0.8178,-0.8327,-0.8102,-0.8102,-0.8102,-0.8106,-0.7953,-0.7804,-0.7804,-0.7642,-0.7484,-0.7484,-0.7484,-0.7334,-0.7034,-0.6957,-0.6736,-0.6369,-0.6129,-0.5889,-0.5876,-0.5479,-0.5303,-0.5523,-0.5314,-0.5246,-0.5254,-0.5485,-0.5565,-0.5575,-0.5575,-0.5638,-0.5842,-0.6089,-0.618,-1.4189,-1.4287,-1.4397,-1.4397,0.0,0.0,0.0,0.0,0.0,0.0,0.0,0.0,0.0,0.0,0.0,0.0,0.0,0.0,0.0,0.0,0.0,0.0,0.0,0.0,0.0,0.0,0.0,0.0,0.0,0.0,0.0,0.0,0.0,-1.1421,-1.1307,-1.1651,-1.2479,-1.2458,-1.2697,-1.3239,-1.3141,-1.312,-1.3198,-1.2943,-1.2873,-1.291,-1.3412,-1.3451,-1.3173,-1.3948,-1.3757,-1.2986,-1.2829,-1.2522,-1.2166,-1.1972,-1.1921,-1.1895,-1.1737,-1.1764,-1.1906,-1.1791,-1.1638,-1.1472,-1.1308,-1.0996,-1.0681,-1.0371,-1.0308,-1.0047,-0.9087,-0.9008,-0.9086,-0.848,-0.8692,-0.8942,-0.8524,-0.8699,-0.8941,-0.8865,-0.8718,-0.8641,-0.8479,-0.8178,-0.7953,-0.7804,-0.7642,-0.7484,-0.7484,-0.7411,-0.7334,-0.7249,-0.7176,-0.6872,-0.6338,-0.6405,-0.6405,-0.6177,-0.5712,-0.5503,-0.5553,-0.5659,-0.5709,-0.5709,-0.586,-0.6018,-0.6254,-0.6254,-0.6281,-0.6485,-0.6567,-0.6702,-1.4392,-1.4383,-1.4429,0.0,0.0,0.0,0.0,0.0,0.0,0.0,0.0,0.0,0.0,0.0,0.0,0.0,0.0,0.0,0.0,0.0,0.0,0.0,0.0,0.0,0.0,0.0,0.0,0.0,0.0,0.0,0.0,0.0,0.0,0.0,-1.1307,-1.1623,-1.2448,-1.2471,-1.2772,-1.3314,-1.34,-1.3323,-1.3163,-1.2943,-1.2838,-1.2922,-1.3638,-1.3766,-1.3455,-1.4115,-1.4017,-1.3434,-1.3064,-1.2735,-1.248,-1.2126,-1.2172,-1.2316,-1.2077,-1.2151,-1.2297,-1.2193,-1.1947,-1.1624,-1.1487,-1.1185,-1.087,-1.0688,-1.0618,-1.0491,-0.9658,-0.9533,-0.9608,-0.9117,-0.9306,-0.9518,-0.9153,-0.9275,-0.9473,-0.9322,-0.9175,-0.8946,-0.8784,-0.8479,-0.8178,-0.803,-0.7795,-0.7565,-0.7565,-0.7411,-0.7334,-0.7407,-0.7253,-0.6949,-0.649,-0.6758,-0.6869,-0.6563,-0.6373,-0.612,-0.5799,-0.6018,-0.6173,-0.6247,-0.6321,-0.6578,-0.6869,-0.674,-0.6817,-0.6939,-0.6887,-0.6924,-1.4603,-1.4465,0.0,0.0,0.0,0.0,0.0,0.0,0.0,0.0,0.0,0.0,0.0,0.0,0.0,0.0,0.0,0.0,0.0,0.0,0.0,0.0,0.0,0.0,0.0,0.0,0.0,0.0,0.0,0.0,0.0,0.0,0.0,0.0,-1.1376,-1.1894,-1.3166,-1.2858,-1.3122,-1.3973,-1.3669,-1.3357,-1.3107,-1.2943,-1.2873,-1.2864,-1.3715,-1.3595,-1.2888,-1.3685,-1.3475,-1.2726,-1.2849,-1.2735,-1.248,-1.2332,-1.2383,-1.2518,-1.2761,-1.288,-1.2981,-1.2995,-1.2674,-1.2243,-1.1926,-1.1498,-1.1066,-1.0688,-1.0681,-1.0744,-1.0364,-1.038,-1.0321,-1.0055,-1.0194,-1.0292,-1.0008,-0.9903,-0.9771,-0.9397,-0.9175,-0.9022,-0.9022,-0.8637,-0.8403,-0.8403,-0.8025,-0.7804,-0.7804,-0.7642,-0.7407,-0.7261,-0.7022,-0.6945,-0.6868,-0.7021,-0.7114,-0.7114,-0.7516,-0.7381,-0.6355,-0.6493,-0.6718,-0.6945,-0.6945,-0.7102,-0.7426,-0.7099,-0.695,-0.7111,-0.6939,-0.6942,-1.4406,0.0,0.0,0.0,0.0,0.0,0.0,0.0,0.0,0.0,0.0,0.0,0.0,0.0,0.0,0.0,0.0,0.0,0.0,0.0,0.0,0.0,0.0,0.0,0.0,0.0,0.0,0.0,0.0,0.0,0.0,0.0,0.0,0.0,-1.1444,-1.1586,-1.1851,-1.2412,-1.2743,-1.2864,-1.3434,-1.3506,-1.3107,-1.2943,-1.2873,-1.2839,-1.3332,-1.3517,-1.3484,-1.385,-1.3478,-1.2736,-1.2954,-1.2881,-1.2665,-1.2692,-1.2911,-1.3212,-1.3218,-1.338,-1.3502,-1.3304,-1.292,-1.2436,-1.212,-1.1809,-1.1498,-1.1185,-1.1247,-1.131,-1.0933,-1.0939,-1.0921,-1.0613,-1.0969,-1.1242,-1.084,-1.0489,-1.0293,-1.0368,-0.9846,-0.9473,-0.9625,-0.9084,-0.8627,-0.8627,-0.825,-0.7953,-0.7804,-0.7723,-0.7614,-0.734,-0.7434,-0.749,-0.7288,-0.7581,-0.7613,-0.7293,-0.7914,-0.7979,-0.7384,-0.7696,-0.7934,-0.7934,-0.8099,-0.8214,-0.8346,-0.7919,-0.7778,-0.7827,-0.7488,-0.7326,-1.4667,0.0,0.0,0.0,0.0,0.0,0.0,0.0,0.0,0.0,0.0,0.0,0.0,0.0,0.0,0.0,0.0,0.0,0.0,0.0,0.0,0.0,0.0,0.0,0.0,0.0,0.0,0.0,0.0,0.0,0.0,0.0,0.0,0.0,-1.1519,-1.1722,-1.2168,-1.2399,-1.2747,-1.3277,-1.3503,-1.352,-1.3382,-1.3116,-1.2943,-1.2875,-1.3267,-1.3556,-1.3702,-1.4025,-1.3687,-1.2954,-1.3125,-1.3115,-1.3005,-1.3052,-1.3412,-1.3848,-1.3677,-1.3731,-1.389,-1.345,-1.3033,-1.2621,-1.2305,-1.1934,-1.1685,-1.1498,-1.1435,-1.1435,-1.1247,-1.1489,-1.166,-1.1329,-1.15,-1.1683,-1.1525,-1.1224,-1.0962,-1.0962,-1.0363,-0.9992,-1.0143,-0.9614,-0.916,-0.9084,-0.8627,-0.825,-0.8025,-0.7953,-0.7867,-0.7728,-0.7911,-0.7905,-0.7679,-0.8081,-0.8288,-0.7879,-0.8535,-0.8795,-0.8546,-0.8552,-0.8556,-0.8478,-0.8559,-0.8644,-0.8729,-0.8291,-0.8077,-0.8066,-0.788,-0.7714,0.0,0.0,0.0,0.0,0.0,0.0,0.0,0.0,0.0,0.0,0.0,0.0,0.0,0.0,0.0,0.0,0.0,0.0,0.0,0.0,0.0,0.0,0.0,0.0,0.0,0.0,0.0,0.0,0.0,0.0,0.0,0.0,0.0,-1.1725,-1.1615,-1.2115,-1.3329,-1.2607,-1.2949,-1.4362,-1.369,-1.3507,-1.3776,-1.3412,-1.3116,-1.2957,-1.3497,-1.368,-1.3604,-1.4183,-1.4009,-1.3316,-1.3429,-1.354,-1.3516,-1.343,-1.3863,-1.4364,-1.4099,-1.4059,-1.4121,-1.3571,-1.3155,-1.2805,-1.2428,-1.2058,-1.1692,-1.1659,-1.1541,-1.1416,-1.1445,-1.1949,-1.2458,-1.2147,-1.197,-1.1866,-1.2038,-1.1929,-1.1632,-1.126,-1.0812,-1.0513,-1.0513,-1.0218,-0.9846,-0.962,-0.916,-0.8703,-0.8479,-0.825,-0.8176,-0.8132,-0.8304,-0.8302,-0.8082,-0.8581,-0.8852,-0.8598,-0.9189,-0.9551,-0.9541,-0.9041,-0.8779,-0.8825,-0.8573,-0.8573,-0.882,-0.838,-0.8143,-0.8145,-0.8112,-0.803,0.0,0.0,0.0,0.0,0.0,0.0,0.0,0.0,0.0,0.0,0.0,0.0,0.0,0.0,0.0,0.0,0.0,0.0,0.0,0.0,0.0,0.0,0.0,0.0,0.0,0.0,0.0,0.0,0.0,0.0,0.0,0.0,0.0,-1.1869,-1.1869,-1.1939,-1.2013,-1.224,-1.2499,0.0,-1.3389,-1.3686,-1.3653,-1.3664,-1.345,-1.3087,-1.3833,-1.3777,-1.3217,-1.4325,-1.4271,-1.3493,-1.4041,-1.4072,-1.3881,-1.4312,-1.4574,-1.4722,-1.4589,-1.4464,-1.4359,-1.4001,-1.358,-1.3155,-1.2797,-1.2428,-1.2173,-1.2322,-1.2262,-1.2129,-1.2387,-1.2483,-1.2516,-1.2771,-1.2813,-1.2884,-1.2718,-1.2305,-1.1929,-1.1855,-1.1335,-1.0962,-1.0962,-1.0663,-1.0218,-0.9695,-0.9468,-0.9241,-0.8703,-0.8627,-0.8476,-0.8361,-0.8383,-0.8382,-0.8496,-0.863,-0.8656,-0.8574,-0.9105,-0.9358,-0.9393,-0.9507,-0.9644,-0.968,-0.9433,-0.9352,-0.9437,-0.8825,-0.851,-0.8299,-0.819,-0.803,0.0,0.0,0.0,0.0,0.0,0.0,0.0,0.0,0.0,0.0,0.0,0.0,0.0,0.0,0.0,0.0,0.0,0.0,0.0,0.0,0.0,0.0,0.0,0.0,0.0,0.0,0.0,0.0,0.0,0.0,0.0,-1.2266,-1.2226,-1.2138,-1.2102,-1.2192,-1.2365,-1.2261,-1.2612,-1.344,-1.3565,-1.3784,-1.4118,-1.3906,-1.3728,-1.3672,-1.4184,-1.4253,-1.4004,-1.4847,-1.4812,-1.4203,-1.4714,-1.4729,-1.4553,-1.5023,-1.5249,-1.5184,-1.5109,-1.4824,-1.4529,-1.4121,-1.37,-1.3208,-1.292,-1.2552,-1.2383,-1.2598,-1.2497,-1.2377,-1.2714,-1.2779,-1.276,-1.2775,-1.2953,-1.3086,-1.2945,-1.2673,-1.2378,-1.215,-1.1781,-1.1558,-1.1558,-1.1111,-1.0588,-1.0143,-0.9846,-0.962,-0.916,-0.9008,-0.8942,-0.8681,-0.8779,-0.8782,-0.8578,-0.8837,-0.8919,-0.8919,-0.925,-0.9528,-0.9747,-0.9933,-0.9943,-0.9747,-0.9662,-0.9537,-0.9281,-0.9013,-0.8723,-0.8403,-0.8476,-0.8398,0.0,0.0,0.0,0.0,0.0,0.0,0.0,0.0,0.0,0.0,0.0,0.0,0.0,0.0,0.0,0.0,0.0,0.0,0.0,0.0,0.0,0.0,0.0,0.0,0.0,0.0,0.0,0.0,0.0,0.0,-1.2572,-1.2562,-1.2518,-1.2443,-1.2343,-1.2525,-1.3041,-1.2479,-1.2993,-1.4487,-1.3859,-1.4012,-1.4777,-1.4311,-1.4093,-1.4152,-1.4462,-1.4731,-1.4988,-1.5385,-1.5367,-1.5063,-1.5359,-1.5393,-1.5258,-1.5685,-1.5797,-1.572,-1.5478,-1.5128,-1.4656,-1.424,-1.3804,-1.343,-1.3141,-1.2811,-1.268,-1.2962,-1.2868,-1.2674,-1.3014,-1.31,-1.3094,-1.2822,-1.2969,-1.3062,-1.2783,-1.2739,-1.2594,-1.2224,-1.1972,-1.187,-1.1922,-1.1484,-1.0962,-1.0588,-1.0218,-0.9916,-0.962,-0.9473,-0.9316,-0.9106,-0.9203,-0.9192,-0.8806,-0.9138,-0.938,-0.938,-0.9631,-0.9871,-1.0151,-1.0223,-1.0062,-0.974,-0.9662,-0.9498,-0.9175,-0.9099,-0.8885,-0.8535,-0.8862,-0.8965,0.0,0.0,0.0,0.0,0.0,0.0,0.0,0.0,0.0,0.0,0.0,0.0,0.0,0.0,0.0,0.0,0.0,0.0,0.0,0.0,0.0,0.0,0.0,0.0,0.0,0.0,0.0,0.0,0.0,0.0,-1.2848,-1.2792,-1.27,-1.2572,-1.2558,-1.2506,-1.2427,-1.2839,-1.3114,-1.3243,-1.3941,-1.4616,-1.5206,-1.5194,-1.4728,-1.3991,-1.471,-1.4928,-1.4871,-1.5618,-1.5724,-1.5461,-1.6081,-1.6093,-1.578,-1.6271,-1.6291,-1.5999,-1.5526,-1.5196,-1.4911,-1.4538,-1.4292,-1.4141,-1.3962,-1.3936,-1.3999,-1.4158,-1.4042,-1.3915,-1.4128,-1.4037,-1.3909,-1.367,-1.3693,-1.343,-1.2353,-1.2102,-1.2033,-1.1612,-1.1462,-1.1499,-1.1668,-1.1409,-1.0962,-1.0588,-1.0594,-1.0443,-0.9695,-0.9695,-0.9706,-0.9286,-0.9291,-0.9377,-0.9479,-0.9561,-0.9637,-0.9785,-1.0013,-1.0149,-1.0192,-1.0343,-1.0413,-1.0413,-1.0041,-0.9803,-0.9771,-0.9397,-0.9115,-0.8904,-0.9163,-0.9274,0.0,0.0,0.0,0.0,0.0,0.0,0.0,0.0,0.0,0.0,0.0,0.0,0.0,0.0,0.0,0.0,0.0,0.0,0.0,0.0,0.0,0.0,0.0,0.0,0.0,0.0,0.0,0.0,0.0,-1.2938,-1.3064,-1.2938,-1.2829,-1.2776,-1.2697,-1.2812,-1.3129,-1.3261,-1.3567,-1.4121,-1.4845,-1.5198,-1.5237,-1.5505,-1.5462,-1.5171,-1.5604,-1.5865,-1.5995,-1.6193,-1.6259,-1.6284,-1.6811,-1.6846,-1.6632,-1.706,-1.6853,-1.6343,-1.5941,-1.5694,-1.5552,-1.507,-1.4978,-1.4914,-1.453,-1.4391,-1.4405,-1.4509,-1.4332,-1.4188,-1.4411,-1.4142,-1.3666,-1.3352,-1.3095,-1.2691,-1.1818,-1.1938,-1.2165,-1.1747,-1.1565,-1.1526,-1.1656,-1.1484,-1.1111,-1.0738,-1.0663,-1.0438,-0.9992,-0.9992,-0.9992,-0.9695,-0.9771,-0.9771,-0.9771,-0.9771,-0.9922,-1.0218,-1.0218,-1.0368,-1.0663,-1.0663,-1.0738,-1.0812,-1.0443,-1.0143,-1.0073,-0.9898,-0.9782,-0.9577,-0.9741,-0.9828,0.0,0.0,0.0,0.0,0.0,0.0,0.0,0.0,0.0,0.0,0.0,0.0,0.0,0.0,0.0,0.0,0.0,0.0,0.0,0.0,0.0,0.0,0.0,0.0,0.0,0.0,0.0,0.0,0.0,-1.2993,-1.3136,-1.2975,-1.2867,-1.2867,-1.2954,-1.3231,-1.3711,-1.3823,-1.4322,-1.5231,-1.5574,-1.558,-1.5297,-1.5805,-1.6096,-1.6272,-1.6397,-1.6584,-1.6796,-1.6685,-1.676,-1.699,-1.7303,-1.7399,-1.7397,-1.763,-1.7256,-1.6627,-1.6285,-1.6105,-1.5928,-1.5557,-1.5494,-1.5513,-1.5156,-1.4988,-1.4933,-1.4957,-1.4747,-1.4493,-1.4608,-1.4316,-1.3801,-1.3172,-1.2876,-1.2473,-1.1536,-1.1793,-1.2158,-1.1954,-1.1817,-1.1742,-1.1803,-1.1632,-1.1335,-1.0962,-1.0812,-1.0663,-1.0293,-1.0368,-1.0293,-1.0067,-1.0218,-1.0293,-1.0218,-1.0218,-1.0396,-1.0912,-1.0703,-1.0842,-1.1371,-1.1073,-1.1037,-1.126,-1.0887,-1.0513,-1.0368,-1.0324,-1.029,-1.0126,-1.0295,-1.0345,0.0,0.0,0.0,0.0,0.0,0.0,0.0,0.0,0.0,0.0,0.0,0.0,0.0,0.0,0.0,0.0,0.0,0.0,0.0,0.0,0.0,0.0,0.0,0.0,0.0,0.0,0.0,0.0,0.0,-1.2995,-1.3013,-1.2885,-1.2811,-1.2811,-1.3475,-1.3725,-1.352,-1.4565,-1.5362,-1.5854,-1.5682,-1.558,-1.5492,-1.6298,-1.6676,-1.6663,-1.6726,-1.6664,-1.6547,-1.677,-1.7091,-1.7393,-1.7518,-1.7649,-1.7751,-1.7739,-1.7412,-1.6899,-1.6534,-1.6097,-1.5713,-1.5766,-1.5735,-1.5697,-1.5882,-1.5987,-1.6009,-1.5762,-1.5621,-1.5325,-1.48,-1.4878,-1.4857,-1.3775,-1.3779,-1.3504,-1.1694,-1.1447,-1.1647,-1.1948,-1.1956,-1.1964,-1.2251,-1.1929,-1.1558,-1.1111,-1.1409,-1.1335,-1.0588,-1.0812,-1.0887,-1.0519,-1.0519,-1.0663,-1.1037,-1.1037,-1.1301,-1.2043,-1.179,-1.1759,-1.2126,-1.1633,-1.1484,-1.1632,-1.126,-1.0962,-1.0738,-1.0605,-1.0509,-1.0444,-1.0541,-1.0685,0.0,0.0,0.0,0.0,0.0,0.0,0.0,0.0,0.0,0.0,0.0,0.0,0.0,0.0,0.0,0.0,0.0,0.0,0.0,0.0,0.0,0.0,0.0,0.0,0.0,0.0,0.0,0.0,0.0,0.0,-1.2942,-1.2887,-1.2869,-1.2848,-1.3127,-1.3517,-1.4076,-1.5329,-1.5948,-1.59,-1.6174,-1.6217,-1.6107,-1.7078,-1.7455,-1.7309,-1.797,-1.8113,-1.7851,-1.7626,-1.7965,-1.8538,-1.8436,-1.8406,-1.8431,-1.8081,-1.7645,-1.7145,-1.6694,-1.657,-1.6556,-1.6062,-1.6239,-1.6515,-1.5936,-1.5812,-1.5788,-1.5329,-1.506,-1.4883,-1.4848,-1.4653,-1.431,-1.3723,-1.3696,-1.3613,-1.2659,-1.2438,-1.2419,-1.2326,-1.2227,-1.2179,-1.2478,-1.2157,-1.1855,-1.1706,-1.1558,-1.1409,-1.1111,-1.1111,-1.1037,-1.0887,-1.0887,-1.1037,-1.126,-1.126,-1.1527,-1.2016,-1.1845,-1.1832,-1.2091,-1.1614,-1.1409,-1.1484,-1.126,-1.1111,-1.1186,-1.1065,-1.097,-1.0913,-1.1004,-1.0919,0.0,0.0,0.0,0.0,0.0,0.0,0.0,0.0,0.0,0.0,0.0,0.0,0.0,0.0,0.0,0.0,0.0,0.0,0.0,0.0,0.0,0.0,0.0,0.0,0.0,0.0,0.0,0.0,0.0,0.0,-1.2797,-1.2797,-1.3021,-1.3524,-1.3686,-1.4211,-1.5126,-1.5946,-1.6207,-1.5985,-1.6473,-1.6635,-1.6491,-1.7577,-1.8057,-1.8068,-1.882,-1.8933,-1.8564,-1.8403,-1.8681,-1.9253,-1.8896,-1.8878,-1.8893,-1.8356,-1.7978,-1.7677,-1.7156,-1.7197,-1.7388,-1.6812,-1.6904,-1.7071,-1.6525,-1.6224,-1.6035,-1.5695,-1.537,-1.5195,-1.5172,-1.4798,-1.4354,-1.4263,-1.4171,-1.4044,-1.3707,-1.3477,-1.3219,-1.2938,-1.2813,-1.2734,-1.2865,-1.2599,-1.2378,-1.2231,-1.2003,-1.1855,-1.1632,-1.1558,-1.1484,-1.1335,-1.1421,-1.1558,-1.1784,-1.1784,-1.2011,-1.251,-1.2166,-1.2065,-1.2433,-1.1859,-1.1527,-1.1627,-1.1309,-1.1186,-1.1409,-1.1223,-1.1159,-1.1165,-1.1196,-1.0993,0.0,0.0,0.0,0.0,0.0,0.0,0.0,0.0,0.0,0.0,0.0,0.0,0.0,0.0,0.0,0.0,0.0,0.0,0.0,0.0,0.0,0.0,0.0,0.0,0.0,0.0,0.0,0.0,0.0,-1.2597,-1.2591,-1.262,-1.3275,-1.4748,-1.5248,-1.5851,-1.6549,-1.6328,-1.6166,-1.6126,-1.6548,-1.6711,-1.6708,-1.7758,-1.8462,-1.8855,-1.9206,-1.9072,-1.8701,-1.9017,-1.9277,-1.9364,-1.897,-1.8992,-1.9133,-1.8572,-1.846,-1.8463,-1.7897,-1.7807,-1.7988,-1.7927,-1.77,-1.7451,-1.762,-1.7335,-1.6872,-1.6872,-1.6585,-1.6227,-1.5922,-1.5424,-1.5116,-1.5466,-1.5291,-1.4959,-1.4813,-1.4332,-1.3863,-1.3669,-1.3716,-1.379,-1.3572,-1.3346,-1.3046,-1.2673,-1.2826,-1.2673,-1.2077,-1.2157,-1.215,-1.1781,-1.198,-1.2312,-1.2472,-1.2479,-1.2792,-1.3512,-1.2812,-1.2636,-1.3254,-1.2235,-1.1846,-1.2056,-1.1476,-1.1186,-1.1409,-1.1186,-1.1111,-1.1117,-1.1165,-1.0979,-1.9,0.0,0.0,0.0,0.0,0.0,0.0,0.0,0.0,0.0,0.0,0.0,0.0,0.0,0.0,0.0,0.0,0.0,0.0,0.0,0.0,0.0,0.0,0.0,0.0,0.0,0.0,0.0,-1.2565,-1.2642,-1.2604,-1.3155,-1.3682,-1.4131,-1.5213,-1.583,-1.5886,-1.6255,-1.6549,-1.6829,-1.7441,-1.7861,-1.8175,-1.9287,-1.9715,-1.9634,-2.0288,-2.0398,-2.0098,-1.994,-1.9974,-2.0089,-1.9687,-1.9312,-1.8987,-1.841,-1.7999,-1.7778,-1.7625,-1.7648,-1.775,-1.7624,-1.7688,-1.7705,-1.7323,-1.707,-1.6876,-1.6552,-1.6356,-1.6271,-1.6172,-1.6296,-1.6392,-1.6276,-1.6234,-1.6104,-1.5756,-1.5486,-1.5072,-1.4435,-1.4291,-1.4217,-1.4145,-1.3855,-1.3564,-1.3273,-1.3193,-1.2973,-1.2673,-1.2452,-1.2224,-1.215,-1.2207,-1.2312,-1.2472,-1.2655,-1.2923,-1.332,-1.31,-1.2966,-1.2915,-1.2382,-1.1967,-1.1834,-1.1372,-1.1111,-1.1186,-1.1111,-1.1111,-1.1111,-1.097,-1.0848,0.0,0.0,0.0,0.0,0.0,0.0,0.0,-1.5847,0.0,0.0,0.0,0.0,0.0,0.0,0.0,0.0,0.0,0.0,0.0,0.0,0.0,0.0,0.0,0.0,0.0,0.0,0.0,-1.2302,-1.2467,-1.2604,-1.2678,-1.3641,-1.4208,-1.4277,-1.5574,-1.6214,-1.6105,-1.6365,-1.6737,-1.7222,-1.7823,-1.8336,-1.885,-1.9627,-2.0128,-2.0361,-2.0755,-2.1038,-2.1142,-2.0813,-2.0567,-2.0372,-1.9952,-1.95,-1.9028,-1.8464,-1.8248,-1.8247,-1.8067,-1.8243,-1.8607,-1.8352,-1.8335,-1.8424,-1.7975,-1.7765,-1.7571,-1.7246,-1.6994,-1.6788,-1.6824,-1.6999,-1.7116,-1.7038,-1.689,-1.6751,-1.6482,-1.6281,-1.5921,-1.5141,-1.4856,-1.4713,-1.4649,-1.4361,-1.4072,-1.3928,-1.3637,-1.3346,-1.32,-1.29,-1.2673,-1.2526,-1.2579,-1.2606,-1.2682,-1.2876,-1.3101,-1.338,-1.328,-1.316,-1.322,-1.257,-1.2056,-1.1839,-1.1301,-1.1037,-1.1111,-1.1111,-1.1111,-1.1111,-1.0962,-1.0962,0.0,0.0,0.0,0.0,0.0,0.0,-1.6099,-1.5684,-1.561,0.0,0.0,0.0,0.0,0.0,0.0,0.0,0.0,0.0,0.0,0.0,0.0,0.0,0.0,0.0,0.0,-1.1979,-1.2096,-1.2282,-1.2383,-1.2605,-1.3002,-1.4106,-1.479,-1.4937,-1.6184,-1.6837,-1.6811,-1.6702,-1.6945,-1.7521,-1.8099,-1.8692,-1.9212,-1.9596,-2.0255,-2.1106,-2.0912,-2.1217,-2.1746,-2.1471,-2.097,-2.0372,-1.9952,-1.9577,-1.9218,-1.8654,-1.885,-1.9332,-1.8934,-1.9206,-1.9803,-1.9462,-1.9351,-1.9285,-1.9208,-1.8921,-1.8576,-1.8395,-1.794,-1.7608,-1.7539,-1.7608,-1.7608,-1.7539,-1.7382,-1.7235,-1.7038,-1.6821,-1.6473,-1.578,-1.5426,-1.5213,-1.5007,-1.4792,-1.4569,-1.4425,-1.408,-1.379,-1.3564,-1.3346,-1.3193,-1.2973,-1.3016,-1.3044,-1.2968,-1.3104,-1.332,-1.3581,-1.3387,-1.338,-1.3574,-1.2769,-1.2245,-1.1994,-1.1206,-1.0962,-1.1111,-1.1186,-1.1186,-1.1186,-1.1186,-1.1186,0.0,0.0,0.0,0.0,0.0,0.0,-1.7344,-1.6593,-1.5827,0.0,0.0,0.0,0.0,0.0,0.0,0.0,0.0,0.0,0.0,0.0,0.0,0.0,0.0,0.0,0.0,-1.2301,-1.2185,-1.2226,-1.2471,-1.3183,-1.4432,-1.4794,-1.5217,-1.5824,-1.6694,-1.7032,-1.6879,-1.7385,-1.7855,-1.8298,-1.9448,-2.0224,-2.0643,-2.1554,-2.186,-2.1743,-2.1835,-2.182,-2.1602,-2.1104,-2.0759,-2.051,-2.0003,-1.9825,-1.9746,-1.9183,-1.9172,-1.9414,-1.9331,-1.9282,-1.9382,-1.9488,-1.9539,-1.9539,-1.9539,-1.9341,-1.9075,-1.8617,-1.8279,-1.8144,-1.794,-1.8076,-1.8212,-1.794,-1.7872,-1.7794,-1.7579,-1.7166,-1.683,-1.6621,-1.614,-1.5655,-1.5655,-1.5158,-1.4792,-1.4569,-1.4425,-1.4209,-1.3992,-1.371,-1.3419,-1.3419,-1.3322,-1.3196,-1.3044,-1.3246,-1.3378,-1.3293,-1.346,-1.3394,-1.3019,-1.3067,-1.2679,-1.1809,-1.1315,-1.1111,-1.1335,-1.1484,-1.1558,-1.1558,-1.1558,-1.1558,0.0,0.0,0.0,-1.8723,0.0,0.0,0.0,-1.6683,-1.6364,0.0,0.0,0.0,0.0,0.0,0.0,0.0,0.0,0.0,0.0,0.0,0.0,0.0,0.0,0.0,0.0,-1.2499,-1.2737,-1.2885,-1.3091,-1.3557,-1.4414,-1.5152,-1.5746,-1.6184,-1.6808,-1.7261,-1.7444,-1.7716,-1.8247,-1.9077,-2.0011,-2.0659,-2.1081,-2.1734,-2.1993,-2.1917,-2.1851,-2.1899,-2.2005,-2.1287,-2.1152,-2.1277,-2.0549,-2.0135,-1.9982,-1.9674,-1.9541,-1.9485,-1.9554,-1.9646,-1.977,-1.9738,-1.9813,-1.9813,-1.9736,-1.9539,-1.9218,-1.8741,-1.8472,-1.8269,-1.8212,-1.8279,-1.8337,-1.8076,-1.8076,-1.8066,-1.7774,-1.7451,-1.7185,-1.7038,-1.6621,-1.6132,-1.6,-1.5655,-1.5292,-1.507,-1.4713,-1.4497,-1.4353,-1.4065,-1.3775,-1.3775,-1.3557,-1.3354,-1.328,-1.3328,-1.3354,-1.329,-1.3491,-1.3518,-1.3128,-1.3113,-1.2525,-1.1422,-1.1326,-1.1326,-1.1409,-1.1632,-1.1706,-1.1706,-1.1706,-1.1781,0.0,0.0,0.0,0.0,0.0,-1.82,0.0,0.0,0.0,0.0,0.0,0.0,0.0,0.0,0.0,0.0,0.0,0.0,0.0,0.0,0.0,0.0,0.0,0.0,0.0,-1.2993,-1.3579,-1.3993,-1.3946,-1.41,-1.4586,-1.5566,-1.6226,-1.6476,-1.7028,-1.7552,-1.7985,-1.8147,-1.8659,-1.9578,-2.0413,-2.0947,-2.1301,-2.168,-2.1951,-2.2077,-2.1753,-2.1876,-2.2228,-2.143,-2.1508,-2.1957,-2.1082,-2.0561,-2.0353,-2.0344,-2.0158,-1.9938,-1.998,-2.0206,-2.0346,-2.0074,-2.0074,-2.0085,-1.9868,-1.9605,-1.9218,-1.8942,-1.8607,-1.8405,-1.8337,-1.8405,-1.8405,-1.8144,-1.8212,-1.8269,-1.791,-1.7657,-1.7461,-1.7314,-1.6959,-1.6612,-1.6272,-1.6008,-1.5726,-1.5576,-1.507,-1.4713,-1.4713,-1.4425,-1.4274,-1.4274,-1.392,-1.3637,-1.3637,-1.3422,-1.3339,-1.3264,-1.3558,-1.362,-1.3402,-1.2993,-1.2355,-1.1426,-1.1569,-1.1652,-1.1646,-1.1797,-1.1815,-1.1781,-1.1781,-1.1929,0.0,0.0,0.0,0.0,-1.8759,0.0,0.0,0.0,0.0,0.0,0.0,0.0,0.0,0.0,0.0,0.0,0.0,0.0,0.0,0.0,0.0,0.0,0.0,0.0,0.0,0.0,-1.4562,-1.5487,-1.4952,-1.5229,-1.6775,-1.6415,-1.6471,-1.7093,-1.7787,-1.8091,-1.7891,-1.9122,-1.9655,-1.9529,-2.1306,-2.2079,-2.1918,-2.2847,-2.3083,-2.2788,-2.2441,-2.2016,-2.1469,-2.1033,-2.1251,-2.1831,-2.1148,-2.1199,-2.1553,-2.1343,-2.1221,-2.1163,-2.1055,-2.0741,-2.041,-2.0346,-2.0216,-2.0009,-1.9747,-1.9473,-1.9285,-1.9142,-1.8942,-1.8674,-1.8549,-1.8741,-1.8942,-1.8539,-1.8482,-1.8405,-1.8269,-1.792,-1.7647,-1.7461,-1.7314,-1.7028,-1.6603,-1.6132,-1.5797,-1.5797,-1.5426,-1.5133,-1.5133,-1.4927,-1.4792,-1.4792,-1.4505,-1.4209,-1.4057,-1.3667,-1.3396,-1.325,-1.3311,-1.3209,-1.3012,-1.2852,-1.2782,-1.2706,-1.2349,-1.227,-1.2476,-1.2476,-1.2441,-1.2224,-1.2077,-1.2077,0.0,0.0,0.0,0.0,0.0,0.0,-1.868,0.0,-1.8446,0.0,0.0,0.0,0.0,0.0,0.0,0.0,0.0,0.0,0.0,0.0,0.0,0.0,0.0,0.0,0.0,0.0,0.0,0.0,-1.54,-1.5615,-1.6395,-1.6678,-1.6914,-1.7199,-1.7841,-1.8329,-1.8655,-1.9519,-2.0226,-2.0834,-2.1973,-2.2555,-2.2641,-2.329,-2.3304,-2.2889,-2.2555,-2.2253,-2.1975,-2.1215,-2.1564,-2.2485,-2.1686,-2.1562,-2.1844,-2.1982,-2.1594,-2.1128,-2.1181,-2.0967,-2.0658,-2.0464,-2.0281,-2.002,-1.9681,-1.9539,-1.9407,-1.9142,-1.8942,-1.8808,-1.8684,-1.8808,-1.8875,-1.8549,-1.8617,-1.8607,-1.8337,-1.8066,-1.7794,-1.7657,-1.7373,-1.7166,-1.6959,-1.6482,-1.607,-1.6,-1.5638,-1.5355,-1.5355,-1.5213,-1.507,-1.507,-1.4856,-1.4649,-1.4569,-1.4209,-1.4,-1.392,-1.3609,-1.3336,-1.3273,-1.29,-1.2656,-1.2527,-1.2318,-1.2241,-1.2222,-1.2163,-1.2273,-1.2559,-1.2483,-1.249,-2.0524,0.0,0.0,0.0,0.0,0.0,0.0,0.0,0.0,0.0,0.0,0.0,0.0,0.0,0.0,0.0,0.0,0.0,0.0,0.0,0.0,0.0,0.0,0.0,0.0,0.0,0.0,-1.5696,-1.6019,-1.6266,-1.6417,-1.7226,-1.7666,-1.7666,-1.8291,-1.8893,-1.9396,-2.0097,-2.0907,-2.1783,-2.2498,-2.2918,-2.3132,-2.3438,-2.3348,-2.2889,-2.2586,-2.2404,-2.2223,-2.1542,-2.1917,-2.2739,-2.2145,-2.2058,-2.2256,-2.2457,-2.1982,-2.128,-2.1409,-2.1296,-2.0903,-2.0593,-2.0335,-2.0151,-1.9802,-1.9671,-1.9539,-1.9341,-1.9075,-1.8875,-1.8875,-1.8875,-1.8875,-1.8684,-1.8741,-1.8741,-1.8405,-1.8202,-1.8008,-1.7716,-1.7442,-1.7245,-1.7176,-1.6691,-1.6272,-1.6132,-1.585,-1.5638,-1.5638,-1.5559,-1.5488,-1.5488,-1.5355,-1.5221,-1.5158,-1.4784,-1.4569,-1.4433,-1.4,-1.371,-1.3637,-1.3283,-1.2879,-1.2574,-1.2496,-1.2312,-1.225,-1.2234,-1.2414,-1.2795,-1.2716,-1.2606,0.0,0.0,0.0,-1.9711,0.0,0.0,0.0,0.0,-1.9778,0.0,0.0,0.0,0.0,0.0,0.0,0.0,0.0,0.0,0.0,0.0,0.0,0.0,0.0,0.0,0.0,0.0,0.0,-1.6351,-1.7046,-1.7534,-1.7729,-1.8495,-1.8908,-1.8834,-1.9626,-1.9997,-1.9876,-2.1243,-2.1856,-2.171,-2.2838,-2.328,-2.3102,-2.3368,-2.3275,-2.2889,-2.2692,-2.2245,-2.1636,-2.1947,-2.2193,-2.2343,-2.2495,-2.2753,-2.3053,-2.2896,-2.2604,-2.2173,-2.2185,-2.1737,-2.1094,-2.07,-2.0518,-2.0335,-2.0172,-1.9857,-1.9605,-1.9605,-1.9341,-1.9075,-1.9075,-1.9075,-1.9075,-1.9065,-1.8942,-1.8741,-1.8549,-1.8414,-1.8134,-1.7608,-1.747,-1.7401,-1.6978,-1.6551,-1.6272,-1.6272,-1.6202,-1.6061,-1.6061,-1.6202,-1.6272,-1.6272,-1.6132,-1.6,-1.5797,-1.5426,-1.4919,-1.4425,-1.4361,-1.4281,-1.4057,-1.394,-1.3658,-1.3265,-1.3196,-1.3035,-1.2863,-1.3144,-1.3144,-1.287,-1.235,-1.2229,0.0,0.0,-1.9413,-1.969,0.0,0.0,0.0,0.0,0.0,0.0,0.0,0.0,0.0,0.0,0.0,0.0,0.0,0.0,0.0,0.0,0.0,0.0,0.0,0.0,0.0,0.0,0.0,-1.7379,-1.7404,-1.7628,-1.823,-1.8614,-1.8783,-1.8768,-1.948,-2.0036,-2.0431,-2.1345,-2.2169,-2.2967,-2.3251,-2.3502,-2.3675,-2.3606,-2.3304,-2.2889,-2.2692,-2.2278,-2.1753,-2.2111,-2.2297,-2.2467,-2.2721,-2.307,-2.3271,-2.2969,-2.2604,-2.2123,-2.1788,-2.1474,-2.1158,-2.0903,-2.0722,-2.054,-2.0335,-2.0129,-1.9911,-1.9802,-1.9605,-1.9407,-1.9407,-1.9341,-1.9208,-1.9208,-1.9142,-1.8942,-1.8741,-1.8549,-1.8347,-1.8076,-1.7794,-1.7588,-1.7323,-1.6978,-1.6621,-1.6542,-1.6342,-1.6202,-1.6202,-1.6412,-1.6473,-1.6342,-1.6403,-1.6342,-1.614,-1.5788,-1.5426,-1.4991,-1.4713,-1.4497,-1.4425,-1.3887,-1.3579,-1.3431,-1.3159,-1.2989,-1.2914,-1.2913,-1.2928,-1.297,-1.2498,-1.2382,-1.9783,-1.9478,0.0,-1.9581,-1.9705,0.0,-1.994,0.0,0.0,0.0,0.0,0.0,0.0,0.0,0.0,0.0,0.0,0.0,0.0,0.0,0.0,0.0,0.0,0.0,0.0,0.0,-1.6955,-1.7925,-1.793,-1.8161,0.0,0.0,-1.9327,-1.9327,-2.0002,-2.0583,-2.1004,-2.1945,-2.278,-2.3522,-2.3637,-2.383,-2.3982,-2.3668,-2.329,-2.2904,-2.2798,-2.2521,-2.2131,-2.2719,-2.291,-2.2946,-2.3258,-2.3483,-2.3522,-2.321,-2.28,-2.2309,-2.1788,-2.1474,-2.136,-2.1146,-2.0967,-2.0722,-2.0593,-2.0388,-2.0183,-1.9987,-1.9868,-1.9671,-1.9605,-1.9473,-1.9417,-1.9351,-1.9208,-1.9075,-1.8875,-1.8684,-1.8549,-1.8279,-1.7998,-1.7725,-1.7539,-1.7254,-1.6899,-1.6673,-1.6473,-1.6412,-1.6482,-1.6621,-1.6682,-1.6621,-1.6682,-1.6612,-1.6403,-1.607,-1.5788,-1.5426,-1.507,-1.4856,-1.4713,-1.4209,-1.3783,-1.3645,-1.3346,-1.3119,-1.29,-1.2914,-1.2927,-1.2887,-1.2623,-1.2477]},{"header":{"parameterUnit":"m.s-1","parameterCategory":1,"la1":30.6,"la2":29.2853,"lo1":-89.7004,"lo2":-87.6739,"dy":0.0162,"dx":0.0183,"nx":112,"ny":82,"refTime":"2023-03-05T18:00:00:Z","depth":0,"parameterNumber":3,"parameterNumberName":"V-component_of_WINDS"},"data":[0.0,0.0,0.0,0.0,0.0,0.0,0.0,0.0,0.0,0.0,0.0,0.0,0.0,0.0,0.0,0.0,0.0,0.0,0.0,0.0,0.0,0.0,0.0,0.0,0.0,0.0,0.0,0.0,0.0,0.0,0.0,0.0,0.0,0.0,0.0,0.0,0.0,0.0,0.0,0.0,0.0,0.0,0.0,0.0,0.0,0.0,0.0,0.0,0.0,0.0,0.0,0.0,0.0,0.0,0.0,0.0,0.0,0.0,0.0,0.0,0.0,0.0,0.0,0.0,0.0,0.0,0.0,0.0,0.0,0.0,0.0,0.0,0.0,0.0,0.0,0.0,0.0,0.0,0.0,0.0,0.0,0.0,0.0,0.0,0.0,0.0,0.0,0.0,0.0,0.0,0.0,-2.3265,-2.3095,-2.3098,-2.3277,-2.4584,-2.5232,-2.479,0.0,0.0,0.0,0.0,0.0,0.0,0.0,0.0,0.0,0.0,0.0,0.0,0.0,0.0,0.0,0.0,0.0,0.0,0.0,0.0,0.0,0.0,0.0,0.0,0.0,0.0,0.0,0.0,0.0,0.0,0.0,0.0,0.0,0.0,0.0,0.0,0.0,0.0,0.0,0.0,0.0,0.0,0.0,0.0,0.0,0.0,0.0,0.0,0.0,0.0,0.0,0.0,0.0,0.0,0.0,0.0,0.0,0.0,0.0,0.0,0.0,0.0,0.0,0.0,0.0,0.0,0.0,0.0,0.0,0.0,0.0,0.0,0.0,0.0,0.0,0.0,0.0,0.0,0.0,0.0,0.0,0.0,0.0,0.0,0.0,0.0,0.0,0.0,0.0,0.0,0.0,0.0,0.0,0.0,0.0,0.0,0.0,0.0,0.0,0.0,0.0,0.0,0.0,0.0,-2.3313,-2.307,-2.302,-2.3307,-2.405,-2.439,-2.4718,-2.5028,0.0,0.0,0.0,0.0,0.0,0.0,0.0,0.0,0.0,0.0,0.0,0.0,0.0,0.0,0.0,0.0,0.0,0.0,0.0,0.0,0.0,0.0,0.0,0.0,0.0,0.0,0.0,0.0,0.0,0.0,0.0,0.0,0.0,0.0,0.0,0.0,0.0,0.0,0.0,0.0,0.0,0.0,0.0,0.0,0.0,0.0,0.0,0.0,0.0,0.0,0.0,0.0,0.0,0.0,0.0,0.0,0.0,0.0,0.0,0.0,0.0,0.0,0.0,0.0,0.0,0.0,0.0,0.0,0.0,0.0,0.0,0.0,0.0,0.0,0.0,0.0,0.0,0.0,0.0,0.0,0.0,0.0,0.0,0.0,0.0,0.0,0.0,0.0,0.0,0.0,0.0,0.0,0.0,0.0,0.0,0.0,0.0,0.0,0.0,0.0,0.0,0.0,0.0,-2.336,-2.34,-2.3724,-2.3726,-2.4024,-2.4875,-2.5412,-2.5754,-2.5893,-2.7216,0.0,0.0,0.0,0.0,0.0,0.0,0.0,0.0,0.0,0.0,0.0,0.0,0.0,0.0,0.0,0.0,0.0,0.0,0.0,0.0,0.0,0.0,0.0,0.0,0.0,0.0,0.0,0.0,0.0,0.0,0.0,0.0,0.0,0.0,0.0,0.0,0.0,0.0,0.0,0.0,0.0,0.0,0.0,0.0,0.0,0.0,0.0,0.0,0.0,0.0,0.0,0.0,0.0,0.0,0.0,0.0,0.0,0.0,0.0,0.0,0.0,0.0,0.0,0.0,0.0,0.0,0.0,0.0,0.0,0.0,0.0,0.0,0.0,0.0,0.0,0.0,0.0,0.0,0.0,0.0,0.0,0.0,0.0,0.0,0.0,0.0,0.0,0.0,0.0,0.0,0.0,0.0,0.0,0.0,0.0,0.0,0.0,0.0,0.0,0.0,0.0,0.0,-2.3424,-2.3728,-2.4302,-2.4488,-2.4884,-2.5693,-2.6366,-2.6783,-2.6989,-2.8055,0.0,0.0,0.0,0.0,0.0,0.0,0.0,0.0,0.0,0.0,0.0,0.0,0.0,0.0,0.0,0.0,0.0,0.0,0.0,0.0,0.0,0.0,0.0,0.0,0.0,0.0,0.0,0.0,0.0,0.0,0.0,0.0,0.0,0.0,0.0,0.0,0.0,0.0,0.0,0.0,0.0,0.0,0.0,0.0,0.0,0.0,0.0,0.0,0.0,0.0,0.0,0.0,0.0,0.0,0.0,0.0,0.0,0.0,0.0,0.0,0.0,0.0,0.0,0.0,0.0,0.0,0.0,0.0,0.0,0.0,0.0,0.0,0.0,0.0,0.0,0.0,0.0,0.0,0.0,0.0,0.0,0.0,0.0,0.0,0.0,0.0,0.0,0.0,0.0,0.0,0.0,0.0,0.0,0.0,0.0,0.0,0.0,0.0,0.0,0.0,0.0,0.0,-2.3851,-2.4302,-2.4226,-2.4883,-2.5674,-2.6531,-2.6517,-2.6934,-2.8116,-2.8633,0.0,0.0,0.0,0.0,0.0,0.0,0.0,0.0,0.0,0.0,0.0,0.0,0.0,0.0,0.0,0.0,0.0,0.0,0.0,0.0,0.0,0.0,0.0,0.0,0.0,0.0,0.0,0.0,0.0,0.0,0.0,0.0,0.0,0.0,0.0,0.0,0.0,0.0,0.0,0.0,0.0,0.0,0.0,0.0,0.0,0.0,0.0,0.0,0.0,0.0,0.0,0.0,0.0,0.0,0.0,0.0,0.0,0.0,0.0,0.0,0.0,0.0,0.0,0.0,0.0,0.0,0.0,0.0,0.0,0.0,0.0,0.0,0.0,0.0,0.0,0.0,0.0,0.0,0.0,0.0,0.0,0.0,0.0,0.0,0.0,0.0,0.0,0.0,0.0,0.0,0.0,0.0,0.0,0.0,0.0,0.0,0.0,0.0,0.0,0.0,0.0,0.0,-2.4179,-2.4725,0.0,-2.6045,-2.6594,-2.75,-2.7548,-2.7799,-2.8446,0.0,0.0,0.0,0.0,0.0,0.0,0.0,0.0,0.0,0.0,0.0,0.0,0.0,0.0,0.0,0.0,0.0,0.0,0.0,0.0,0.0,0.0,0.0,0.0,0.0,0.0,0.0,0.0,0.0,0.0,0.0,0.0,0.0,0.0,0.0,0.0,0.0,0.0,0.0,0.0,0.0,0.0,0.0,0.0,0.0,0.0,0.0,0.0,0.0,0.0,0.0,0.0,0.0,0.0,0.0,0.0,0.0,0.0,0.0,0.0,0.0,0.0,0.0,0.0,0.0,0.0,0.0,0.0,0.0,0.0,0.0,0.0,0.0,0.0,0.0,0.0,0.0,0.0,0.0,0.0,0.0,0.0,0.0,0.0,0.0,0.0,0.0,0.0,0.0,0.0,0.0,0.0,0.0,0.0,0.0,0.0,0.0,0.0,0.0,0.0,0.0,0.0,-2.436,-2.4821,-2.5535,0.0,-2.7002,-2.7384,-2.8101,-2.8219,-2.8353,-2.8637,0.0,0.0,0.0,0.0,0.0,0.0,0.0,0.0,0.0,0.0,0.0,0.0,0.0,0.0,0.0,0.0,0.0,0.0,0.0,0.0,0.0,0.0,0.0,0.0,0.0,0.0,0.0,0.0,0.0,0.0,0.0,0.0,0.0,0.0,0.0,0.0,0.0,0.0,0.0,0.0,0.0,0.0,0.0,0.0,0.0,0.0,0.0,0.0,0.0,0.0,0.0,0.0,0.0,0.0,0.0,0.0,0.0,0.0,0.0,0.0,0.0,0.0,0.0,0.0,0.0,0.0,0.0,0.0,0.0,0.0,0.0,0.0,0.0,0.0,0.0,0.0,0.0,0.0,0.0,0.0,0.0,0.0,0.0,0.0,0.0,0.0,0.0,0.0,0.0,0.0,0.0,0.0,0.0,0.0,0.0,0.0,0.0,0.0,0.0,0.0,0.0,0.0,-2.4523,-2.5844,-2.6817,-2.6817,-2.7536,-2.8081,-2.83,-2.8299,-2.8456,0.0,0.0,0.0,0.0,0.0,0.0,0.0,0.0,0.0,0.0,0.0,0.0,0.0,0.0,0.0,0.0,0.0,0.0,0.0,0.0,0.0,0.0,0.0,0.0,0.0,0.0,0.0,0.0,0.0,0.0,0.0,0.0,0.0,0.0,0.0,0.0,0.0,0.0,0.0,0.0,0.0,0.0,0.0,0.0,0.0,0.0,0.0,0.0,0.0,0.0,0.0,0.0,0.0,0.0,0.0,0.0,0.0,0.0,0.0,0.0,0.0,0.0,0.0,0.0,0.0,0.0,0.0,0.0,0.0,0.0,0.0,0.0,0.0,0.0,0.0,0.0,0.0,0.0,0.0,0.0,0.0,0.0,0.0,0.0,0.0,0.0,0.0,0.0,0.0,0.0,0.0,0.0,0.0,0.0,0.0,0.0,0.0,0.0,0.0,0.0,0.0,0.0,0.0,-2.5362,-2.6277,-2.7121,-2.7781,-2.8076,-2.8273,-2.8432,-2.8543,-2.8651,-2.8858,0.0,0.0,0.0,0.0,0.0,0.0,0.0,0.0,0.0,0.0,0.0,0.0,0.0,0.0,0.0,0.0,0.0,0.0,0.0,0.0,0.0,0.0,0.0,0.0,0.0,0.0,0.0,0.0,0.0,0.0,0.0,0.0,0.0,0.0,0.0,0.0,0.0,0.0,0.0,0.0,0.0,0.0,0.0,0.0,0.0,0.0,0.0,0.0,0.0,0.0,0.0,0.0,0.0,0.0,0.0,0.0,0.0,0.0,0.0,0.0,0.0,0.0,0.0,0.0,0.0,0.0,0.0,0.0,0.0,0.0,0.0,0.0,0.0,0.0,0.0,0.0,0.0,0.0,0.0,0.0,0.0,0.0,0.0,0.0,0.0,0.0,0.0,0.0,0.0,0.0,0.0,0.0,0.0,0.0,0.0,0.0,0.0,0.0,0.0,0.0,0.0,0.0,-2.634,-2.7316,-2.8201,-2.8793,-2.9161,-2.9422,-2.9562,-2.9664,-2.9814,-2.9976,0.0,0.0,0.0,0.0,0.0,0.0,0.0,0.0,0.0,0.0,0.0,0.0,0.0,0.0,0.0,0.0,0.0,0.0,0.0,0.0,0.0,0.0,0.0,0.0,0.0,0.0,0.0,0.0,0.0,0.0,0.0,0.0,0.0,0.0,0.0,0.0,0.0,0.0,0.0,0.0,0.0,0.0,0.0,0.0,0.0,0.0,0.0,0.0,0.0,0.0,0.0,0.0,0.0,0.0,0.0,0.0,0.0,0.0,0.0,0.0,0.0,0.0,0.0,0.0,0.0,0.0,0.0,0.0,0.0,0.0,0.0,0.0,0.0,0.0,0.0,0.0,0.0,0.0,0.0,0.0,0.0,0.0,0.0,0.0,0.0,0.0,0.0,0.0,0.0,0.0,0.0,0.0,0.0,0.0,0.0,0.0,0.0,0.0,0.0,0.0,0.0,0.0,-2.7301,-2.8665,-2.9656,-2.9718,-3.0442,-3.1021,-3.1206,-3.129,-3.1434,-3.1616,0.0,0.0,0.0,0.0,0.0,0.0,0.0,0.0,0.0,0.0,0.0,0.0,0.0,0.0,0.0,0.0,0.0,0.0,0.0,0.0,0.0,0.0,0.0,0.0,0.0,0.0,0.0,0.0,0.0,0.0,0.0,0.0,0.0,0.0,0.0,0.0,0.0,0.0,0.0,0.0,0.0,0.0,0.0,0.0,0.0,0.0,0.0,0.0,0.0,0.0,0.0,0.0,0.0,0.0,0.0,0.0,0.0,0.0,0.0,0.0,-1.8256,0.0,0.0,0.0,0.0,0.0,0.0,0.0,0.0,0.0,0.0,0.0,0.0,0.0,0.0,0.0,0.0,0.0,0.0,0.0,0.0,0.0,0.0,0.0,0.0,0.0,0.0,0.0,0.0,0.0,0.0,0.0,0.0,0.0,0.0,0.0,0.0,0.0,0.0,0.0,0.0,0.0,-2.7381,-2.8768,-2.9771,-2.9849,-3.0662,-3.1239,-3.1334,-3.1531,-3.1672,-3.1827,-3.1808,0.0,0.0,0.0,0.0,0.0,0.0,0.0,0.0,0.0,0.0,0.0,0.0,0.0,0.0,0.0,0.0,0.0,0.0,0.0,0.0,0.0,0.0,0.0,0.0,0.0,0.0,0.0,0.0,0.0,0.0,0.0,0.0,0.0,0.0,0.0,0.0,0.0,0.0,0.0,0.0,0.0,0.0,0.0,0.0,0.0,0.0,0.0,0.0,0.0,0.0,0.0,0.0,0.0,0.0,0.0,0.0,0.0,0.0,0.0,0.0,-1.8814,0.0,0.0,0.0,0.0,0.0,0.0,0.0,0.0,0.0,0.0,0.0,0.0,0.0,0.0,0.0,0.0,0.0,0.0,0.0,0.0,0.0,0.0,0.0,0.0,0.0,0.0,0.0,0.0,0.0,0.0,0.0,0.0,0.0,0.0,0.0,0.0,0.0,0.0,0.0,0.0,-2.8682,-2.9769,-3.0706,-3.1199,-3.2019,-3.2592,-3.2693,-3.2839,-3.2957,-3.309,-3.2868,0.0,0.0,0.0,0.0,0.0,0.0,0.0,0.0,0.0,0.0,0.0,0.0,0.0,0.0,0.0,0.0,0.0,0.0,0.0,0.0,0.0,0.0,0.0,0.0,0.0,0.0,0.0,0.0,0.0,0.0,0.0,0.0,0.0,0.0,0.0,0.0,0.0,0.0,0.0,0.0,0.0,0.0,0.0,0.0,0.0,0.0,0.0,0.0,0.0,0.0,0.0,0.0,0.0,-1.7479,-1.7479,-1.7479,-1.7479,-1.795,-1.879,-1.9141,-1.9333,-1.9521,0.0,0.0,0.0,0.0,0.0,0.0,0.0,0.0,0.0,0.0,0.0,0.0,0.0,0.0,0.0,0.0,0.0,0.0,0.0,0.0,0.0,0.0,0.0,0.0,0.0,-2.6482,-2.6525,0.0,0.0,0.0,0.0,0.0,0.0,0.0,0.0,0.0,0.0,0.0,0.0,-3.0123,-3.0974,-3.1825,-3.2631,-3.3467,-3.3998,-3.4099,-3.4221,-3.4316,-3.445,-3.3947,-3.4071,0.0,0.0,0.0,0.0,0.0,0.0,0.0,0.0,0.0,0.0,0.0,0.0,0.0,0.0,0.0,0.0,0.0,0.0,0.0,0.0,0.0,0.0,0.0,0.0,0.0,0.0,0.0,0.0,0.0,0.0,0.0,0.0,-1.7687,-1.7555,0.0,0.0,0.0,0.0,0.0,0.0,0.0,0.0,0.0,0.0,0.0,0.0,0.0,-1.7737,-1.7706,-1.7458,-1.7329,-1.7329,-1.7338,-1.7354,-1.7419,-1.7419,-1.7855,-1.866,-1.9336,0.0,-1.9298,-2.0108,0.0,0.0,0.0,0.0,0.0,0.0,0.0,0.0,0.0,0.0,0.0,0.0,0.0,0.0,0.0,0.0,0.0,0.0,0.0,0.0,0.0,0.0,-2.7043,-2.7954,-2.8229,-2.8435,0.0,-2.7608,-2.6159,-2.6111,-2.6688,0.0,0.0,0.0,0.0,0.0,0.0,0.0,-3.0245,-3.1531,-3.2471,-3.2736,-3.3617,-3.4173,-3.4197,-3.4427,-3.4561,-3.4666,-3.4696,-3.5116,-3.6065,-3.536,0.0,0.0,0.0,0.0,0.0,0.0,0.0,0.0,0.0,0.0,0.0,0.0,0.0,0.0,0.0,0.0,0.0,0.0,0.0,0.0,0.0,0.0,0.0,0.0,0.0,0.0,0.0,0.0,0.0,-1.7704,-1.7572,-1.7549,-1.7589,-1.7589,0.0,0.0,0.0,0.0,0.0,0.0,0.0,0.0,0.0,-1.7612,-1.7595,-1.7549,-1.7455,-1.7345,-1.7289,-1.7257,-1.764,-1.7582,-1.7265,-1.8107,-1.8667,-1.9069,-1.9479,-1.9586,-1.963,-2.1028,-2.1472,-2.1309,0.0,0.0,0.0,0.0,-2.1062,-2.1861,-2.2094,-2.224,0.0,-2.2189,0.0,0.0,0.0,0.0,0.0,0.0,0.0,0.0,0.0,0.0,-2.7601,-2.8923,-2.9264,-2.9424,-2.9777,-2.9471,-2.9077,0.0,-2.9307,-2.9479,-2.9135,0.0,0.0,0.0,0.0,-3.084,-3.1681,-3.2329,-3.2963,-3.3597,-3.4492,-3.4862,-3.4465,-3.5036,-3.5428,-3.5548,-3.5628,-3.6102,-3.7051,-3.6375,-3.6205,0.0,0.0,0.0,0.0,0.0,0.0,0.0,0.0,0.0,0.0,0.0,0.0,0.0,0.0,0.0,0.0,0.0,0.0,0.0,0.0,0.0,0.0,0.0,0.0,0.0,0.0,0.0,0.0,-1.7572,-1.7479,-1.7519,-1.7519,-1.7519,0.0,0.0,0.0,0.0,0.0,0.0,-1.7455,-1.7502,-1.7542,-1.7519,-1.7472,-1.7384,-1.7288,-1.7199,-1.7117,-1.7057,-1.7753,-1.7694,-1.7065,-1.854,-1.9272,-1.9383,-1.9718,-1.9909,-2.0137,-2.1383,-2.1987,-2.2065,-2.1777,-2.2206,-2.2855,-2.1795,-2.217,-2.3193,-2.3212,-2.3289,-2.3436,-2.375,0.0,-2.5209,-2.4413,0.0,0.0,0.0,0.0,-2.697,-2.8092,-2.8216,-2.8345,-2.9267,-2.9779,-3.0137,-3.0469,-3.1187,-3.1648,0.0,-3.1316,-3.1256,-3.0785,0.0,0.0,0.0,0.0,-3.1997,-3.2757,-3.3091,-3.3621,-3.4582,-3.5306,-3.5623,-3.5321,-3.5958,-3.642,-3.6519,-3.6425,-3.6859,-3.798,-3.7175,-3.6921,-3.7368,0.0,0.0,0.0,0.0,0.0,0.0,0.0,0.0,0.0,0.0,0.0,0.0,0.0,0.0,0.0,0.0,0.0,0.0,0.0,0.0,0.0,0.0,0.0,0.0,0.0,0.0,0.0,0.0,0.0,-1.7329,-1.7305,0.0,0.0,0.0,0.0,-1.7305,-1.7321,-1.7321,-1.7305,-1.7377,-1.7377,-1.733,-1.7306,-1.7175,-1.6926,-1.6799,-1.6712,-1.6623,-1.7361,-1.7411,-1.6879,-1.8359,-1.9131,-1.9349,-2.0119,-2.0541,-2.0644,-2.0338,-2.0355,-2.0553,-2.1042,-2.1967,-2.2995,-2.2985,-2.3087,-2.3232,-2.3413,-2.3395,-2.3572,-2.5159,-2.6056,-2.6545,-2.6754,-2.6412,0.0,0.0,-2.772,-2.842,-2.8549,-2.9278,-2.9737,-2.8874,-2.9592,-3.0737,-3.178,-3.2364,-3.2453,0.0,-3.1489,-3.1654,-3.157,0.0,-3.1682,-3.1069,-3.144,-3.2024,-3.2627,-3.3678,-3.4675,-3.5619,-3.5818,-3.6246,-3.709,-3.7272,-3.7354,-3.7433,-3.6841,-3.7234,-3.8876,-3.7501,-3.7493,-3.9129,-3.7571,0.0,0.0,0.0,0.0,0.0,0.0,0.0,0.0,0.0,0.0,0.0,0.0,0.0,0.0,0.0,0.0,0.0,0.0,0.0,0.0,0.0,0.0,0.0,0.0,0.0,0.0,0.0,0.0,-1.6919,-1.6892,0.0,-1.6821,-1.6847,-1.6815,-1.6789,-1.6712,-1.6686,-1.6789,-1.6763,-1.6779,-1.6847,-1.6805,-1.6779,-1.6712,-1.6581,-1.649,-1.6479,-1.7735,-1.7729,-1.6697,-1.8751,-1.9551,-1.926,-1.9617,-2.004,-2.0416,-2.0047,-2.0306,-2.1011,-2.1823,-2.2453,-2.2893,-2.3012,-2.3428,-2.3985,-2.4208,-2.4516,-2.5045,-2.6201,-2.6583,-2.6754,-2.7584,-2.821,-2.8657,-2.872,-2.9413,-3.017,-3.0522,-3.0667,-3.0903,-3.161,-3.1782,-3.1916,-3.2394,-3.3073,-3.3481,-3.316,-3.3228,-3.3157,-3.2701,-3.3123,-3.3206,-3.2284,-3.2963,-3.3598,-3.3761,-3.418,-3.4809,-3.5743,-3.6421,-3.6944,-3.7329,-3.8023,-3.8442,-3.846,-3.8282,-3.8712,-3.9928,-3.8923,-3.8691,-3.9347,-3.8266,-3.7878,0.0,0.0,0.0,0.0,0.0,0.0,0.0,0.0,0.0,0.0,0.0,0.0,0.0,0.0,0.0,0.0,0.0,0.0,0.0,0.0,0.0,0.0,0.0,0.0,0.0,0.0,-1.5711,-1.6383,-1.6285,-1.6292,-1.6512,-1.6474,-1.6448,-1.6421,-1.6313,-1.6313,-1.6378,-1.6382,-1.6409,-1.6448,-1.6448,-1.6421,-1.6409,-1.6301,-1.6246,-1.625,-1.755,-1.7546,-1.6472,-1.8622,-1.9404,-1.9119,-1.9532,-1.9956,-2.0381,-2.0445,-2.0736,-2.1174,-2.181,-2.2339,-2.279,-2.2928,-2.337,-2.397,-2.4441,-2.526,-2.6215,-2.6791,-2.7041,-2.729,-2.8049,-2.9035,-2.9908,-2.998,-3.0676,-3.1508,-3.213,-3.2089,-3.2202,-3.3332,-3.3259,-3.2983,-3.3114,-3.3578,-3.4023,-3.4099,-3.4197,-3.4125,-3.3672,-3.4072,-3.4229,-3.3577,-3.4064,-3.4514,-3.4514,-3.4555,-3.5033,-3.6274,-3.6965,-3.7618,-3.8287,-3.8747,-3.9125,-3.9429,-3.898,-3.9253,-4.045,-3.9475,-3.9185,-3.9825,-3.9332,-3.8797,-3.8237,0.0,0.0,0.0,0.0,0.0,0.0,0.0,0.0,0.0,0.0,0.0,0.0,0.0,0.0,0.0,0.0,0.0,0.0,0.0,0.0,0.0,0.0,0.0,-1.4881,-1.4847,-1.5014,-1.5679,-1.553,-1.5635,-1.6293,-1.6258,-1.6203,-1.6274,-1.6203,-1.6176,-1.6176,-1.6231,-1.6231,-1.6176,-1.6231,-1.6191,-1.5968,-1.5968,-1.5955,-1.59,-1.6696,-1.6797,-1.6271,-1.7876,-1.8726,-1.8951,-1.9906,-2.0391,-2.0619,-2.144,-2.1487,-2.1021,-2.0887,-2.1591,-2.2703,-2.2859,-2.2937,-2.3119,-2.4136,-2.5561,-2.6961,-2.7005,-2.7567,-2.8182,-2.8209,-2.8836,-2.9707,-3.0564,-3.1459,-3.2347,-3.3164,-3.3452,-3.3556,-3.3751,-3.3799,-3.3844,-3.396,-3.3983,-3.4023,-3.4099,-3.4269,-3.4386,-3.4386,-3.4517,-3.4639,-3.4773,-3.467,0.0,-3.4837,-3.4776,-3.5423,-3.7237,-3.7468,-3.8192,-4.0043,-3.9488,-3.9407,-4.025,-3.8908,-3.8796,-4.0446,-3.9006,-3.8987,-4.0667,-4.0765,-3.9994,-3.8374,0.0,0.0,0.0,0.0,0.0,0.0,0.0,0.0,0.0,0.0,0.0,0.0,0.0,0.0,0.0,0.0,0.0,0.0,0.0,0.0,0.0,0.0,-1.454,-1.4635,-1.4104,-1.407,-1.5027,-1.4993,-1.5116,-1.5709,-1.5667,-1.5609,-1.5653,-1.5536,-1.5522,-1.5609,-1.5551,-1.5551,-1.5609,-1.561,-1.558,-1.5566,-1.5522,-1.5536,-1.561,-1.6533,-1.6893,-1.6815,-1.8019,-1.8825,-1.931,-1.9901,-2.0594,-2.133,-2.1642,-2.1707,-2.1595,-2.1658,-2.2033,-2.2569,-2.264,-2.35,-2.4768,-2.5773,-2.6817,-2.7723,-2.7816,-2.8031,-2.8209,-2.8318,-2.9322,-3.052,-3.0848,-3.197,-3.3092,-3.3339,-3.3481,-3.3595,-3.3642,-3.3735,-3.3852,-3.3965,-3.4053,-3.4086,-3.4141,-3.4298,-3.4386,-3.4386,-3.4473,-3.4558,-3.4639,-3.462,0.0,-3.5838,-3.5765,-3.634,-3.821,-3.846,-3.8957,-4.0101,-4.0114,-4.0181,-4.0372,-4.0069,-4.0116,-4.0623,-4.0224,-4.0254,-4.0826,-4.0868,-4.0655,0.0,0.0,0.0,0.0,0.0,0.0,0.0,0.0,0.0,0.0,0.0,0.0,0.0,0.0,0.0,0.0,0.0,0.0,0.0,0.0,0.0,0.0,-1.4495,-1.4615,-1.4444,-1.3766,-1.3605,-1.446,-1.4694,-1.4966,-1.5448,-1.5403,-1.5314,-1.5225,-1.5133,-1.5086,-1.5163,-1.5117,-1.5117,-1.5163,-1.5147,-1.5147,-1.5149,-1.5163,-1.5254,-1.5388,-1.604,-1.6548,-1.691,-1.7652,-1.8546,0.0,-1.989,-2.06,-2.1499,-2.1711,-2.1797,0.0,0.0,0.0,0.0,0.0,-2.3991,-2.5397,-2.6342,-2.7275,-2.8014,-2.8126,-2.8209,-2.8264,-2.8327,-2.926,-3.0304,-3.0414,-3.1598,-3.2875,-3.2915,-3.3265,-3.3605,-3.3633,-3.3726,-3.3842,-3.3998,-3.4086,-3.4154,-3.4274,-3.4367,0.0,-3.4918,-3.4738,-3.4561,-3.4666,-3.5061,-3.5593,-3.6226,-3.6453,-3.716,-3.865,-3.8861,-3.9261,-4.0176,-3.9761,0.0,0.0,0.0,-3.9907,-4.0706,-4.0781,0.0,0.0,0.0,-4.0936,-4.0907,0.0,0.0,0.0,-3.9228,-3.9015,0.0,0.0,0.0,0.0,0.0,0.0,0.0,0.0,0.0,0.0,0.0,0.0,0.0,0.0,0.0,0.0,-1.407,-1.4448,-1.4309,-1.3798,-1.3652,-1.4093,-1.4531,-1.4962,-1.5419,-1.5285,-1.5092,-1.4882,-1.4805,-1.4758,-1.4665,0.0,0.0,0.0,0.0,-1.4839,-1.4777,-1.4904,-1.5027,-1.5178,-1.5506,-1.6069,-1.6817,-1.7227,-1.8207,-1.9623,-1.9956,-2.0541,-2.1341,-2.1636,-2.1771,-2.1857,-2.2111,-2.2293,-2.2525,-2.3294,-2.4257,-2.5314,-2.6114,0.0,0.0,-2.8063,-2.8191,-2.83,-2.8327,-2.8937,-2.9638,-2.9701,-3.0884,-3.2141,-3.2264,-3.2976,-3.3633,-3.3698,-3.378,-3.3887,-3.4074,-3.4179,-3.4247,-3.4381,-3.4454,-3.4738,-3.5548,-3.5086,-3.4663,-3.4881,-3.573,-3.6335,-3.6347,-3.7028,-3.7902,-3.8861,0.0,0.0,-4.025,-3.9045,-3.8911,-4.0427,-3.9185,-3.911,-4.0723,-4.0856,-4.0898,-4.0907,-4.0954,-4.0954,-4.0907,-4.0954,-4.0954,-4.0869,-3.9316,-3.9054,0.0,0.0,0.0,0.0,0.0,0.0,0.0,0.0,0.0,0.0,0.0,0.0,0.0,0.0,0.0,-1.3681,-1.402,-1.4358,-1.4168,-1.4364,-1.4513,-1.4504,-1.4214,-1.4332,-1.5182,-1.4702,-1.427,-1.4109,-1.4093,-1.402,-1.3843,-1.4301,-1.456,-1.4493,-1.4493,-1.4493,-1.4493,-1.4669,-1.4825,-1.4963,0.0,0.0,-1.7471,-1.8336,-1.9333,-2.0405,-2.0476,-2.0879,-2.1454,-2.1542,-2.1721,-2.1986,-2.2123,-2.2654,-2.3238,-2.2918,-2.3826,-2.5272,-2.5639,-2.6339,-2.7164,-2.7977,-2.8273,-2.8327,-2.8432,-2.9025,0.0,-2.9834,-3.1003,-3.2264,-3.2365,-3.3031,-3.3698,-3.378,-3.3879,-3.4002,-3.4167,-3.429,-3.4357,-3.4394,-3.4458,-3.4595,-3.487,-3.4736,-3.4849,-3.5571,-3.5875,-3.6276,-3.7083,-3.7919,-3.8836,-3.9833,-3.9929,-4.0061,-4.0362,-4.0172,-4.0177,-4.0554,-4.0391,-4.0436,-4.0796,-4.0849,-4.0898,-4.0907,-4.0917,-4.0917,-4.0907,-4.0917,-4.0917,-4.0888,-4.0558,-4.0849,0.0,0.0,0.0,0.0,0.0,0.0,0.0,0.0,0.0,0.0,0.0,-1.4395,0.0,0.0,-1.4475,-1.3581,-1.3945,-1.4379,-1.443,-1.4328,-1.4252,-1.4201,-1.4168,-1.4153,-1.4184,-1.3813,-1.3446,-1.3233,-1.3436,-1.3555,-1.3421,-1.401,-1.4305,-1.4208,-1.4287,-1.4365,-1.4365,-1.4529,-1.4872,-1.54,-1.605,-1.6963,-1.8123,-1.8627,-1.9461,-2.0559,-2.0742,-2.1021,-2.1405,-2.1587,-2.1794,-2.2027,-2.218,-2.2779,-2.3551,-2.371,-2.4642,-2.5928,-2.6465,-2.6992,-2.7538,-2.8084,-2.8318,-2.838,-2.8466,-2.9078,-2.9691,-2.9377,-3.0747,-3.2229,-3.1963,-3.2828,-3.378,-3.3868,-3.3947,-3.4049,-3.4221,-3.4386,-3.4512,-3.4498,-3.452,-3.4711,-3.5227,-3.4945,-3.4816,-3.5273,-3.609,-3.6831,-3.733,-3.8548,-3.958,-4.0138,-4.0215,-4.0098,-3.9766,-3.9873,-3.9947,-4.0009,-4.0505,-4.0807,-4.0807,-4.0859,-4.0907,-4.0907,-4.0917,-4.0945,-4.0945,-4.1353,-4.1548,-4.1567,-4.1995,-4.2209,0.0,0.0,0.0,0.0,0.0,0.0,0.0,0.0,-1.3802,-1.3803,-1.42,-1.4346,-1.3738,-1.3961,-1.4012,-1.3298,-1.3675,-1.4135,-1.4345,-1.394,-1.3629,-1.3617,-1.4001,-1.4003,-1.3375,-1.3003,-1.2635,-1.2334,-1.2817,-1.3108,-1.3001,-1.3749,-1.4124,-1.3967,-1.4144,-1.4254,-1.43,-1.4465,-1.4924,-1.5702,-1.625,-1.7118,-1.8263,-1.8672,-1.9402,-2.0462,-2.0872,-2.1183,-2.1388,-2.1678,-2.1899,-2.2027,-2.2237,-2.2949,-2.391,-2.4488,-2.5478,-2.6597,-2.728,-2.7664,-2.7913,-2.8156,-2.8318,-2.8432,-2.8518,-2.9021,-2.9479,-2.89,-3.0363,-3.2019,-3.1524,-3.2603,-3.3868,-3.3998,-3.4037,-3.4093,-3.4293,-3.4479,-3.4585,-3.4599,-3.4602,-3.4849,-3.5544,-3.5136,-3.4804,-3.4996,-3.6379,-3.7406,-3.743,-3.8931,-4.0077,-4.0177,-4.0271,-3.9998,-3.9218,-3.9316,-3.9322,-3.9174,-3.9879,-4.04,-4.0555,-4.0626,-4.0723,-4.0907,-4.0945,-4.0982,-4.0982,-4.1634,-4.2023,-4.2218,-4.2762,-4.2908,-1.2892,-1.2805,-1.2703,-1.2703,-1.2757,-1.2794,0.0,0.0,-1.3181,-1.3771,-1.3387,-1.3102,-1.3599,-1.3125,-1.2587,-1.237,-1.2851,-1.3137,-1.2893,-1.3136,-1.3235,-1.2961,-1.3162,-1.3457,-1.3715,-1.269,-1.1906,-1.1642,-1.2224,-1.2463,-1.2245,-1.3369,-1.398,-1.3908,-1.398,-1.4111,-1.43,-1.4543,-1.4805,-1.5015,-1.6561,-1.7169,-1.7059,-1.8857,-1.9823,-2.0187,-2.0942,-2.142,-2.1669,-2.1754,-2.1899,-2.2027,-2.2237,-2.33,-2.4677,-2.4195,-2.5101,-2.6613,-2.6767,-2.6951,-2.7272,-2.8094,-2.8432,-2.8518,-2.8644,-2.8742,-2.8846,-2.8876,-3.0137,-3.1513,-3.1477,-3.273,-3.3998,-3.4148,-3.4173,-3.4227,-3.4431,-3.4514,-3.4536,-3.4602,-3.4602,-3.4682,-3.49,-3.4864,-3.5034,-3.5769,-3.6757,-3.7406,-3.7489,-3.9011,-4.0118,-4.0177,-4.0307,-4.0117,-3.9427,-3.9386,-3.911,-3.838,-3.8485,-3.8924,-3.9712,-3.9733,-4.0112,-4.0888,-4.0907,-4.0907,-4.0907,-4.1005,-4.1441,-4.2199,-4.1576,-4.2451,-1.2675,-1.2697,0.0,0.0,-1.26,-1.2639,-1.27,-1.2759,-1.2932,-1.3257,-1.3078,-1.2913,-1.3047,-1.2732,-1.2383,0.0,-1.2268,-1.2381,-1.2454,-1.2465,-1.2554,-1.2753,-1.2416,-1.2195,-1.233,-1.1556,-1.0947,-1.0768,-1.1294,-1.174,-1.1965,-1.2944,-1.3616,-1.3908,-1.4124,-1.4287,-1.4365,-1.4588,-1.5174,-1.6137,-1.6967,-1.7719,-1.847,-1.9319,-2.001,-2.0543,-2.1119,-2.145,-2.1653,-2.1857,-2.1986,-2.2147,-2.2388,-2.323,-2.4389,-2.4594,-2.5771,-2.7331,-2.7444,-2.761,-2.7826,-2.8246,-2.8458,-2.8587,-2.8669,-2.9046,-2.9478,-2.9558,-3.0473,-3.1427,-3.1573,-3.2519,-3.3443,-3.3645,-3.4027,-3.4404,-3.4517,-3.4561,-3.458,-3.4583,-3.4645,-3.4666,-3.4747,-3.481,-3.5133,-3.5945,-3.6857,-3.7658,-3.8173,-3.9375,-4.0215,-4.0362,-3.9547,-3.9123,-3.9378,-3.8511,-3.8028,-3.8187,-3.8272,-3.8459,-3.8829,-3.9325,-3.9791,-4.0189,-4.0655,-4.0917,-4.0954,-4.1431,-4.1868,-4.2255,-4.2438,-4.3071,-1.2613,0.0,0.0,-1.2463,-1.2499,-1.2562,-1.2646,-1.2797,-1.2924,-1.2975,-1.2977,-1.2942,-1.2706,-1.26,-1.2439,-1.2226,-1.1961,-1.1859,-1.2081,-1.1836,-1.184,-1.2333,-1.1629,-1.1097,-1.1148,-1.0677,-1.0324,-1.0173,-1.0816,-1.1407,-1.1848,-1.2786,-1.3485,-1.3914,-1.4222,-1.4383,-1.4447,-1.4651,-1.5322,-1.6446,-1.6884,-1.7611,-1.8589,-1.9316,-1.9989,-2.0553,-2.115,-2.1495,-2.1634,-2.1928,-2.2118,-2.2248,-2.2525,-2.3204,-2.411,-2.4731,-2.5928,-2.7247,-2.7607,-2.7843,-2.8048,-2.8308,-2.851,-2.8637,-2.8712,-2.9186,-2.9716,-2.9813,-3.0472,-3.1188,-3.1335,-3.2228,-3.3101,-3.3275,-3.3936,-3.4539,-3.4645,-3.4645,-3.4645,-3.4645,-3.4687,-3.4728,-3.4749,-3.4831,-3.5192,-3.6064,-3.6977,-3.7776,-3.8384,-3.9108,-3.9712,-4.0134,-3.8888,-3.8411,-3.9347,-3.788,-3.717,-3.7812,-3.768,-3.781,-3.8287,-3.8908,-3.95,-4.0014,-4.0597,-4.0917,-4.0974,-4.1557,-4.1993,-4.2291,-4.27,-4.3147,0.0,0.0,-1.2226,-1.2287,-1.2451,-1.2591,-1.261,-1.2909,-1.3192,-1.3189,-1.3084,-1.2979,-1.2889,-1.2716,-1.2495,-1.2149,-1.194,-1.1689,-1.1379,-1.1165,-1.1116,-1.1316,-1.0743,-1.047,0.0,-1.0495,-1.0249,-1.011,-1.1148,-1.1789,-1.1814,-1.307,-1.3848,-1.4,-1.4189,-1.4383,-1.4501,-1.4763,-1.4949,-1.5088,-1.6062,-1.6316,-1.6005,-1.8389,-1.9625,-1.9893,-2.0939,-2.1509,-2.1708,-2.2049,-2.2237,-2.2338,-2.2579,-2.3257,-2.4121,-2.4321,-2.4935,-2.5782,-2.657,-2.7005,-2.7345,-2.8154,-2.8536,-2.8694,-2.8785,-2.8876,-2.8965,-2.9081,-2.9806,-3.0524,-3.0612,-3.1908,-3.3231,-3.3358,-3.402,-3.4645,-3.4768,-3.4788,-3.4788,-3.4788,-3.4788,-3.4829,-3.4889,-3.4908,-3.5249,-3.6232,-3.7142,-3.7695,-3.7622,-3.7819,-3.8328,-3.9244,-3.8593,-3.8473,-3.9417,-3.7909,-3.6922,-3.6942,-3.6207,-3.6549,-3.8228,-3.8325,-3.9151,-4.083,-4.0888,-4.0907,-4.0907,-4.0927,-4.1364,-4.2188,-4.1429,-4.198,0.0,0.0,-1.2246,-1.2236,-1.2372,-1.2556,-1.2665,-1.2871,-1.3103,-1.3172,-1.319,-1.3139,-1.2997,-1.2794,-1.26,-1.2403,-1.1961,-1.1571,-1.1345,-1.0982,-1.0702,-1.0638,-1.0315,0.0,0.0,0.0,0.0,-1.0595,-1.1045,-1.1613,-1.2419,-1.3053,-1.364,-1.4111,-1.4415,-1.4606,-1.47,-1.4873,-1.5258,-1.5816,-1.6804,-1.7294,-1.7299,-1.83,-1.9155,-1.983,-2.0439,-2.1101,-2.1724,-2.2077,-2.2265,-2.2377,-2.2659,-2.2998,-2.3328,-2.348,-2.3781,-2.4268,-2.5664,-2.6262,-2.6554,-2.7345,-2.7773,-2.8075,-2.8621,-2.8881,-2.9104,-2.9711,-2.9806,-2.9842,-3.0429,-3.1544,-3.2491,-3.2635,-3.3689,-3.4687,-3.4848,-3.483,-3.4811,-3.4811,-3.487,-3.4946,-3.4945,-3.5037,-3.5427,-3.6438,-3.7723,-3.8797,-3.9442,-3.9583,-3.9546,-3.9321,-3.9102,-3.8884,-3.8646,-3.811,-3.7785,-3.7827,-3.7575,-3.7704,-3.8278,-3.886,-3.9452,-4.0092,-4.0635,-4.0907,-4.0907,-4.0945,-4.1118,-4.1388,-4.114,-4.133,0.0,-1.1829,-1.1829,-1.1769,-1.2164,-1.2556,-1.2684,-1.2924,-1.3156,-1.3208,-1.3243,-1.3226,-1.3104,-1.2887,-1.2681,-1.2542,-1.2066,-1.1637,-1.1353,-1.0968,-1.0621,-1.0324,-1.011,0.0,0.0,0.0,0.0,-1.1026,-1.134,-1.1891,-1.2753,-1.3253,-1.3704,-1.4222,-1.4556,-1.4777,-1.4808,-1.5027,-1.5458,-1.6095,-1.6817,-1.7243,-1.741,-1.7941,-1.8523,-1.919,-2.0059,-2.0783,-2.1404,-2.2005,-2.2321,-2.246,-2.2712,-2.2868,-2.2944,-2.3095,-2.3217,-2.3513,-2.4889,-2.5481,-2.5745,-2.6543,-2.7164,-2.7697,-2.8231,-2.8709,-2.9154,-2.9779,-2.965,-2.9479,-3.0064,-3.1158,-3.2162,-3.2298,-3.3582,-3.481,-3.4927,-3.4927,-3.4908,-3.4908,-3.4982,-3.5037,-3.5073,-3.5439,-3.5967,-3.6599,-3.7832,-3.8812,-3.9131,-3.9176,-3.8989,-3.8497,-3.8473,-3.8537,-3.8658,-3.838,-3.8346,-3.8709,-3.8457,-3.8431,-3.8753,-3.9296,-3.9772,-4.013,-4.0635,-4.0907,-4.0907,-4.0945,-4.0991,-4.0996,-4.1011,-4.1052,-1.08,-1.0955,-1.1009,-1.1017,-1.1788,-1.2581,-1.2687,-1.3069,-1.3379,-1.3312,-1.3227,-1.3192,0.0,0.0,-1.2738,-1.2537,-1.2231,-1.1826,-1.1376,-1.1062,-1.0729,0.0,0.0,0.0,0.0,0.0,0.0,-1.1449,0.0,-1.2545,-1.2844,-1.361,-1.4098,-1.43,-1.4651,-1.4808,-1.4839,-1.5209,-1.558,-1.5928,-1.6111,-1.6234,-1.6344,-1.7318,-1.7844,-1.8076,-1.9703,-2.0525,-2.0833,-2.1827,-2.2326,-2.2463,-2.2721,-2.2876,-2.302,-2.3144,-2.3289,-2.3508,-2.4277,-2.4688,-2.4959,-2.5786,-2.6721,-2.7575,-2.7661,-2.8356,-2.913,-2.9259,-2.9349,-2.9412,-2.9492,-3.0865,-3.2241,-3.2372,-3.3677,-3.4945,-3.5075,-3.5092,-3.5111,-3.5111,-3.5108,-3.5122,-3.5209,-3.5998,-3.6636,-3.6642,-3.7442,-3.7758,-3.7024,-3.691,-3.6897,-3.6953,-3.7011,-3.7692,-3.9301,-3.876,-3.8694,-3.9503,-3.8844,-3.88,-3.9626,-3.9665,-4.0073,-4.0888,-4.0907,-4.0907,-4.0907,-4.0907,-4.0935,-4.0996,-4.0996,-4.103,-1.0851,-1.0896,-1.097,-1.1109,-1.1589,-1.2166,-1.2775,-1.3122,-1.3312,-1.3227,-1.3208,-1.3173,0.0,0.0,0.0,-1.261,-1.221,0.0,-1.1437,-1.093,0.0,0.0,0.0,-0.9955,-1.0828,-1.1034,0.0,0.0,-1.2717,-1.2981,-1.3663,-1.403,-1.4254,-1.4365,-1.4714,-1.4963,-1.5086,-1.5507,-1.5827,-1.6055,-1.6166,-1.6289,-1.6448,-1.6876,-1.7444,-1.8092,-1.869,-1.9326,-2.005,-2.1063,-2.1572,-2.1764,-2.2565,-2.2893,-2.2944,-2.3144,-2.3265,-2.3372,-2.3725,-2.3916,-2.4132,-2.501,-2.5923,-2.6826,-2.7447,-2.8311,-2.913,-2.9197,-2.9307,-2.9433,-2.9531,-3.0884,-3.2222,-3.2371,-3.3676,-3.4945,-3.5075,-3.5147,-3.5164,-3.5164,-3.5212,-3.5258,-3.5335,-3.56,-3.5809,-3.5817,-3.6595,-3.7585,-3.8607,-3.8209,-3.7848,-3.7861,-3.8446,-3.876,-3.8547,-3.9514,-4.0222,-4.0452,-4.0281,-4.0294,-4.0558,-4.0578,-4.0665,-4.0907,-4.0907,-4.0907,-4.0907,-4.0907,-4.0926,-4.0991,-4.0991,-4.1007,-1.0249,-1.0588,-1.0875,-1.0776,-1.1514,-1.2363,-1.2878,-1.3173,-1.3278,-1.321,-1.3192,0.0,0.0,0.0,0.0,0.0,0.0,0.0,-1.1445,-1.0954,-1.0485,0.0,-1.0026,0.0,-1.118,-1.1573,-1.2246,0.0,-1.331,-1.35,-1.4065,-1.4273,-1.4433,-1.4588,-1.4871,-1.5178,-1.5507,-1.5712,-1.597,-1.6207,-1.6277,-1.6386,-1.6501,-1.6727,-1.7133,-1.7649,0.0,-1.8733,-1.9336,-2.0339,-2.1028,-2.1507,-2.2158,-2.2623,-2.2952,-2.3144,-2.3241,-2.3336,-2.3544,-2.3656,-2.3793,-2.4292,-2.5346,-2.6498,-2.6999,-2.8084,-2.9156,-2.9262,-2.937,-2.9511,-2.955,-3.0903,-3.2317,-3.2387,-3.3731,-3.502,-3.5108,-3.5215,-3.5248,-3.528,-3.5308,-3.5354,-3.5427,-3.5795,-3.5951,-3.5605,-3.633,-3.7243,-3.8177,-3.7912,-3.7634,-3.7677,-3.8114,-3.8357,-3.826,-3.9143,-3.9871,-4.0261,-4.0264,-4.047,-4.0878,-4.0898,-4.0907,-4.0907,-4.0936,-4.0936,-4.0907,-4.0936,-4.0954,-4.101,-4.1352,-4.1535,-0.97,-1.0273,-1.0799,-1.0475,-1.1548,-1.2734,-1.2944,-1.3139,-1.3261,-1.321,0.0,-1.3123,-1.3013,0.0,-1.2646,-1.2553,0.0,-1.1747,-1.1423,-1.1118,-1.0753,-1.0366,-1.0617,-1.106,-1.1668,-1.2165,-1.28,-1.3735,-1.3854,-1.3974,-1.4222,-1.442,-1.461,-1.4839,-1.5086,-1.5448,-1.59,-1.5928,-1.6055,-1.6301,-1.6429,-1.651,-1.6554,-1.6785,-1.694,-1.7066,-1.7896,0.0,-1.8648,-1.9644,-2.0558,-2.1411,-2.1704,-2.2307,-2.3045,-2.3168,-2.3265,-2.336,-2.3611,-2.3772,-2.3847,-2.3828,-2.4969,-2.6428,-2.6554,-2.7822,-2.924,-2.9368,-2.949,-2.9588,-2.9551,-3.0885,-3.2276,-3.2386,-3.3709,-3.4994,-3.5174,-3.5261,-3.5324,-3.5398,-3.5412,-3.5412,-3.5493,-3.6131,-3.6395,-3.5707,-3.6245,-3.6733,-3.6748,-3.6748,-3.6798,-3.6966,-3.6985,-3.7304,-3.805,-3.8324,-3.8791,-3.9557,-3.9713,-4.0102,-4.0859,-4.0907,-4.0907,-4.0907,-4.0974,-4.0974,-4.0907,-4.0974,-4.1002,-4.1002,-4.1693,-4.206,-1.0723,-1.0743,-1.0905,-1.1264,-1.1671,-1.2151,-1.2829,-1.3067,0.0,0.0,0.0,-1.2926,-1.2922,-1.2713,0.0,-1.2291,0.0,0.0,0.0,0.0,-1.136,0.0,0.0,0.0,0.0,0.0,0.0,0.0,0.0,-1.4351,-1.4452,-1.447,-1.4704,-1.5117,-1.5225,-1.5492,-1.59,-1.6057,-1.621,-1.6382,-1.6398,-1.6532,-1.6743,-1.6795,-1.6949,-1.7174,-1.7436,0.0,-1.7939,-1.8886,-1.9836,-2.0759,-2.1639,-2.2428,-2.3119,-2.3289,-2.3407,-2.3494,-2.3656,-2.4154,-2.4671,-2.4009,-2.4969,-2.6407,-2.6493,-2.7761,-2.9222,-2.9351,-2.9491,-2.9626,-2.9719,-3.056,-3.1608,-3.2376,-3.3358,-3.432,-3.5108,-3.5289,-3.5315,-3.5398,-3.5412,-3.5412,-3.5493,-3.563,-3.5689,-3.5611,-3.5743,-3.5844,-3.5897,-3.5916,-3.6168,-3.6856,-3.6933,-3.6991,-3.7218,-3.8496,-3.9389,-3.9585,-4.0285,-4.0732,-4.0888,-4.0898,-4.0907,-4.0907,-4.0974,-4.0974,-4.0907,-4.0974,-4.0974,-4.0917,-4.1072,-4.113,-1.0916,-1.1137,-1.1519,-1.1537,-1.1963,-1.2461,-1.2875,0.0,0.0,0.0,0.0,-1.2906,-1.277,0.0,0.0,0.0,0.0,0.0,0.0,0.0,0.0,0.0,0.0,0.0,0.0,0.0,0.0,0.0,0.0,-1.4433,-1.4501,-1.4766,-1.5058,-1.5344,-1.5477,-1.5682,-1.597,-1.6098,-1.621,-1.6289,-1.6371,-1.6506,-1.6649,-1.6795,-1.694,-1.7099,-1.7353,0.0,-1.7635,-1.8346,-1.9361,-2.0558,-2.1155,-2.2107,-2.3168,-2.3289,-2.3407,-2.3517,-2.3656,-2.4306,-2.4986,-2.4596,-2.5627,-2.6954,-2.6683,-2.7822,-2.9222,-2.9372,-2.9531,-2.9664,-2.9738,-3.0502,-3.1377,-3.1825,-3.2969,-3.4079,-3.4561,-3.5028,-3.5364,-3.5446,-3.546,-3.5474,-3.5495,-3.5489,-3.5528,-3.5596,-3.5589,-3.5612,-3.5684,-3.5704,-3.6024,-3.6848,-3.6557,-3.6471,-3.6966,-3.7325,-3.7734,-3.8228,-3.9054,-3.9772,-4.0267,-4.0684,-4.0917,-4.0945,-4.0982,-4.0982,-4.0945,-4.0982,-4.0974,-4.0907,-4.1374,-4.1587,-1.1115,-1.1586,-1.2106,-1.1788,-1.2279,-1.2846,-1.2827,-1.2957,0.0,0.0,-1.2922,-1.2922,-1.2691,0.0,0.0,0.0,0.0,0.0,0.0,0.0,0.0,0.0,0.0,0.0,0.0,0.0,0.0,0.0,0.0,0.0,-1.4578,-1.5041,-1.5358,-1.5477,-1.549,-1.5662,-1.5996,-1.5915,-1.597,-1.6207,-1.6344,-1.6436,-1.6501,-1.6743,-1.693,-1.7032,-1.7353,0.0,0.0,-1.8018,-1.8996,-2.0322,-2.0688,-2.1713,-2.3012,-2.3242,-2.3448,-2.3562,-2.3656,-2.431,-2.5107,-2.5114,-2.6271,-2.7565,-2.7117,-2.8012,-2.9243,-2.9392,-2.9569,-2.972,-2.9738,-3.0387,-3.1102,-3.129,-3.2711,-3.404,-3.4103,-3.4803,-3.5446,-3.5488,-3.5501,-3.5515,-3.5515,-3.5515,-3.554,-3.5601,-3.5601,-3.562,-3.5673,-3.5673,-3.5936,-3.6626,-3.6104,-3.5979,-3.6667,-3.6261,-3.627,-3.6978,-3.7841,-3.8656,-3.9392,-4.0208,-4.0664,-4.0721,-4.0904,-4.0982,-4.0982,-4.0982,-4.0974,-4.0936,-4.1616,-4.1927,-1.1936,-1.2077,-1.2231,-1.238,-1.253,-1.262,-1.2632,0.0,0.0,-1.2901,-1.294,-1.2959,-1.2811,-1.2665,0.0,0.0,0.0,0.0,0.0,0.0,0.0,0.0,0.0,0.0,0.0,0.0,0.0,0.0,0.0,0.0,-1.4856,-1.5147,-1.5328,-1.5418,-1.4846,-1.5,-1.5996,-1.5327,-1.5434,-1.6301,-1.6371,-1.6436,-1.6485,-1.6659,-1.685,-1.7101,-1.7313,0.0,0.0,-1.8031,-1.8702,-1.9687,-2.0565,-2.1445,-2.2397,-2.3181,-2.3585,-2.3678,-2.37,-2.4313,-2.5114,-2.5157,-2.6359,-2.7769,-2.7782,-2.8476,-2.9326,-2.953,-2.9626,-2.9738,-2.9844,-3.0051,-3.0422,-3.1288,-3.2819,-3.4103,-3.4093,-3.4826,-3.5488,-3.5489,-3.5502,-3.5515,-3.5591,-3.5591,-3.5584,-3.5601,-3.5596,-3.5596,-3.5601,-3.5608,-3.5635,-3.5728,-3.5712,-3.5745,-3.5804,-3.6474,-3.6939,-3.7084,-3.7907,-3.8421,-3.8518,-3.9353,-3.982,-3.982,-4.0604,-4.0974,-4.0907,-4.0974,-4.1002,-4.0982,-4.1014,-4.1053,-1.2112,-1.22,-1.2287,-1.2419,-1.2522,-1.2581,-1.2554,0.0,0.0,-1.2748,-1.2792,-1.2848,-1.2694,-1.26,-1.2569,0.0,0.0,0.0,0.0,0.0,0.0,0.0,0.0,0.0,0.0,0.0,0.0,0.0,0.0,0.0,-1.447,-1.4703,-1.4876,-1.4974,-1.479,-1.4953,-1.5457,-1.5606,-1.586,-1.6163,-1.6344,-1.6409,-1.6463,-1.6743,-1.6959,-1.7126,-1.7408,0.0,0.0,-1.807,-1.8663,-1.9539,-2.042,-2.1366,-2.2309,-2.3076,-2.3522,-2.37,-2.37,-2.4335,-2.5157,-2.5178,-2.6423,-2.7935,-2.7957,-2.8595,-2.933,-2.9472,-2.9626,-2.9719,-2.9827,-2.9959,-3.0194,-3.0605,-3.2039,-3.3341,-3.3377,-3.4466,-3.5455,-3.5502,-3.5515,-3.5515,-3.5591,-3.5596,-3.5608,-3.5601,-3.5589,-3.5608,-3.5596,-3.5604,-3.5604,-3.5596,-3.562,-3.5654,-3.5706,-3.6471,-3.6734,-3.628,-3.757,-3.8113,-3.7646,-3.8451,-3.9168,-3.9682,-4.0032,-4.0459,-4.0954,-4.0945,-4.0945,-4.0945,-4.0917,-4.0917,-1.2033,-1.2159,-1.2282,-1.2338,-1.2443,-1.2522,0.0,0.0,-1.2773,-1.2636,-1.2697,-1.2754,-1.2613,-1.2558,-1.2601,0.0,0.0,-1.2543,0.0,0.0,0.0,0.0,0.0,0.0,0.0,0.0,0.0,0.0,0.0,0.0,0.0,-1.3903,-1.4112,-1.4629,-1.4573,-1.4769,-1.5339,-1.5667,-1.594,-1.6123,-1.6316,-1.6398,-1.6409,-1.6827,-1.7041,-1.7109,-1.7415,0.0,0.0,-1.8048,-1.8504,-1.9187,-2.0266,-2.118,-2.1972,-2.2964,-2.3499,-2.37,-2.37,-2.4212,-2.4889,-2.5147,-2.6319,-2.7684,-2.7945,-2.8639,-2.9353,-2.9472,-2.9608,-2.9756,-2.9842,-2.9975,-3.0175,-3.051,-3.1718,-3.2872,-3.3185,-3.4408,-3.5364,-3.5175,-3.5354,-3.5463,-3.5256,-3.5434,-3.5601,-3.5589,-3.5577,-3.5565,-3.5572,-3.5566,-3.5566,-3.556,-3.5565,-3.5589,-3.5654,-3.6187,-3.6392,-3.6095,-3.7239,-3.7773,-3.7463,-3.8034,-3.8654,-3.9274,-3.9548,-4.0004,-4.0624,-4.08,-4.0907,-4.0936,-4.0907,-4.0907,-1.1747,-1.1949,-1.221,-1.221,-1.2298,-1.2419,0.0,0.0,-1.261,-1.261,-1.2703,-1.2754,-1.2613,-1.26,-1.2455,-1.2075,-1.2075,0.0,0.0,0.0,0.0,0.0,0.0,0.0,0.0,0.0,0.0,0.0,0.0,0.0,0.0,-1.2787,-1.306,-1.4466,-1.3918,-1.4359,-1.587,-1.5303,-1.5411,-1.6194,-1.6344,-1.6398,-1.6409,-1.6827,-1.7041,0.0,0.0,0.0,0.0,-1.7983,-1.8117,-1.8467,-2.0062,-2.0829,-2.1214,-2.2815,-2.3522,-2.37,-2.37,-2.385,-2.4162,-2.5027,-2.5993,-2.6964,-2.7843,-2.8721,-2.9412,-2.9472,-2.9645,-2.9842,-2.9956,-3.0038,-3.0342,-3.1264,-3.2168,-3.3044,-3.3901,-3.4826,-3.527,-3.4468,-3.5017,-3.533,-3.4461,-3.5021,-3.5589,-3.5604,-3.5528,-3.5496,-3.5515,-3.5495,-3.5501,-3.5502,-3.5496,-3.554,-3.5601,-3.5615,-3.6005,-3.6927,-3.7006,-3.7395,-3.8248,-3.8287,-3.8307,-3.8307,-3.9219,-3.9703,-3.9723,-4.0519,-4.0926,-4.1002,-4.0917,-4.0907,-1.2024,-1.2117,-1.2216,-1.2318,-1.2399,-1.2565,-1.2958,0.0,-1.3367,-1.3631,-1.3851,-1.3911,-1.3733,-1.3695,-1.376,-1.3949,-1.3875,0.0,0.0,0.0,0.0,0.0,0.0,0.0,0.0,0.0,0.0,0.0,0.0,0.0,0.0,-1.1937,-1.2303,-1.3897,-1.3808,-1.4225,-1.5276,-1.564,-1.5924,-1.6123,-1.6274,-1.6355,-1.6425,-1.6717,-1.6984,0.0,0.0,0.0,0.0,-1.7983,-1.84,-1.9104,-2.0204,-2.1073,-2.1824,-2.287,-2.3383,-2.3585,-2.3607,-2.3747,-2.3992,-2.4366,-2.5533,-2.6853,-2.7175,-2.8313,-2.9492,-2.9608,-2.9718,-2.9842,-2.9975,-3.0038,-3.0346,-3.1274,-3.2158,-3.2891,-3.321,-3.3947,-3.4474,-3.4269,-3.4492,-3.4793,-3.5058,-3.5384,-3.5589,-3.5528,-3.5509,-3.5699,-3.6243,-3.5758,-3.559,-3.62,-3.5753,-3.5482,-3.5584,-3.6682,-3.7247,-3.6938,-3.8059,-3.8565,-3.8236,-3.8277,-3.8578,-3.918,-3.9529,-3.9975,-4.0519,-4.0771,-4.0907,-4.0917,-4.0907,-4.0907,0.0,-1.275,-1.2749,-1.2627,-1.265,0.0,0.0,0.0,-1.3568,-1.4029,-1.4216,-1.4279,-1.4111,-1.4062,-1.4126,-1.4382,-1.4261,0.0,0.0,0.0,0.0,0.0,0.0,0.0,0.0,0.0,0.0,0.0,0.0,0.0,0.0,-1.1499,-1.1875,-1.3168,-1.3257,-1.3763,-1.4809,-1.5379,-1.5796,-1.6026,-1.6179,-1.6274,-1.6344,-1.6633,-1.6866,0.0,0.0,0.0,0.0,-1.79,-1.8493,-1.9366,-1.9946,-2.0917,-2.2072,-2.2617,-2.3111,-2.3517,-2.3607,-2.3747,-2.3917,-2.4054,-2.5332,-2.6988,-2.766,-2.8651,-2.9569,-2.9664,-2.9736,-2.9825,-2.9943,-3.0022,-3.0403,-3.166,-3.2139,-3.2508,-3.319,-3.3506,-3.3667,-3.3718,-3.4056,-3.4441,-3.4931,-3.5323,-3.5528,-3.543,-3.5422,-3.572,-3.6569,-3.6155,-3.6121,-3.6999,-3.6646,-3.6383,-3.6498,-3.7225,-3.7713,-3.7841,-3.8895,-3.9414,-3.9189,-3.8905,-3.9014,-3.9587,-3.9636,-3.9927,-4.0461,-4.0752,-4.0907,-4.0907,-4.0907,-4.0907,0.0,0.0,0.0,0.0,0.0,0.0,0.0,0.0,0.0,0.0,0.0,-1.4116,-1.4016,-1.3976,-1.3899,-1.3757,0.0,0.0,0.0,0.0,0.0,0.0,0.0,0.0,0.0,0.0,0.0,0.0,0.0,0.0,0.0,-1.1376,-1.1673,-1.2289,-1.2303,-1.2987,-1.4405,-1.4626,-1.5091,-1.5777,-1.6019,-1.6117,-1.6145,-1.6512,-1.6696,0.0,0.0,0.0,0.0,-1.7794,-1.8432,-1.9292,-1.9359,-2.0418,-2.1931,-2.2117,-2.2709,-2.3445,-2.3616,-2.3768,-2.3915,-2.4202,-2.5501,-2.7307,-2.8987,-2.955,-2.9607,-2.9683,-2.9737,-2.9808,-2.9876,-3.001,-3.0517,-3.2214,-3.2029,-3.1952,-3.3574,-3.3384,-3.2923,-3.2967,-3.3697,-3.4294,-3.4295,-3.4955,-3.5446,-3.5315,-3.53,-3.5626,-3.6581,-3.6638,-3.6945,-3.7878,-3.7932,-3.7947,-3.807,-3.7404,-3.7668,-3.9297,-3.9521,-3.9939,-4.0771,-4.0014,-3.9611,-3.9682,-3.9694,-3.9714,-3.9791,-4.0529,-4.0907,-4.0907,-4.0907,-4.0907,0.0,0.0,0.0,0.0,0.0,0.0,0.0,0.0,0.0,0.0,0.0,0.0,0.0,0.0,0.0,0.0,0.0,0.0,0.0,0.0,0.0,0.0,0.0,0.0,0.0,0.0,0.0,0.0,0.0,0.0,0.0,-1.1108,-1.1179,-1.132,-1.1381,-1.2172,-1.3797,-1.407,-1.4273,-1.444,-1.506,-1.54,-1.5468,-1.6095,-1.6474,0.0,0.0,0.0,-1.7392,-1.7704,-1.8325,-1.9081,-1.9258,-1.998,-2.1022,-2.1704,-2.2171,-2.2534,-2.3234,-2.3589,-2.4006,-2.558,-2.6871,-2.8032,-2.9174,-2.955,-2.9608,-2.9682,-2.9699,-2.9753,-2.9874,-2.9956,-3.0319,-3.1424,-3.1642,-3.1692,-3.2095,-3.2551,-3.2891,-3.2923,-3.3628,-3.4404,-3.5004,-3.5278,-3.5398,-3.5315,-3.5304,-3.5844,-3.7338,-3.6941,-3.7113,-3.8657,-3.8271,-3.8185,-3.8866,-3.8787,-3.8901,-3.9367,-4.0043,-4.0533,-4.079,-4.0599,-4.0505,-4.0516,-4.0557,-4.0597,-4.0626,-4.0761,-4.0858,-4.0898,-4.0898,-4.0908,-1.5389,-1.4813,-1.4065,0.0,0.0,0.0,0.0,0.0,0.0,0.0,0.0,0.0,0.0,0.0,0.0,0.0,0.0,0.0,0.0,0.0,0.0,0.0,0.0,0.0,0.0,0.0,0.0,0.0,0.0,0.0,0.0,-1.1085,-1.1015,-1.0991,-1.1342,-1.1954,-1.2893,-1.3193,-1.3466,-1.382,-1.4318,-1.4745,-1.5128,-1.5587,-1.606,0.0,0.0,0.0,-1.7175,-1.7526,-1.8188,-1.8948,-1.8767,-1.9452,-2.0628,-2.1185,-2.1662,-2.2194,-2.3117,-2.3589,-2.4009,-2.558,-2.672,-2.7616,-2.8573,-2.9154,-2.9531,-2.9664,-2.97,-2.9718,-2.9823,-2.9907,-3.0197,-3.1161,-3.146,-3.1632,-3.2108,-3.2538,-3.2968,-3.3365,-3.3832,-3.4414,-3.5234,-3.5354,-3.5339,-3.5254,-3.5258,-3.5739,-3.7039,-3.6793,-3.7175,-3.891,-3.8712,-3.8821,-3.9714,-3.9869,-3.9755,-3.943,-3.987,-3.9985,-3.9635,-4.0394,-4.0618,-4.0203,-3.9887,-3.9897,-4.0305,-4.0275,-4.0469,-4.0848,-4.0848,-4.0858,-1.5389,-1.4921,-1.4337,-1.3977,0.0,0.0,0.0,0.0,0.0,0.0,0.0,0.0,0.0,0.0,0.0,0.0,0.0,0.0,0.0,0.0,0.0,0.0,0.0,0.0,0.0,0.0,0.0,0.0,0.0,0.0,0.0,-1.1108,-1.1015,-1.0968,-1.1531,-1.1914,-1.2063,-1.2357,-1.2888,-1.3642,-1.3805,-1.4278,-1.4981,-1.5231,-1.569,-1.6355,0.0,0.0,-1.6993,-1.746,-1.8057,-1.866,-1.8291,-1.903,-2.0327,-2.066,-2.1294,-2.2125,-2.3135,-2.3777,-2.4306,-2.5246,-2.6229,-2.7195,-2.8025,-2.8793,-2.9412,-2.9626,-2.9683,-2.9701,-2.9773,-2.9841,-3.0148,-3.1146,-3.1397,-3.1666,-3.2664,-3.2933,-3.3221,-3.3958,-3.4199,-3.4496,-3.5178,-3.5277,-3.5261,-3.5209,-3.5209,-3.5515,-3.6394,-3.6491,-3.7118,-3.8755,-3.8922,-3.9243,-4.0041,-4.0062,-3.9735,-3.905,-3.9438,-3.9294,-3.8427,-3.9712,-4.006,-3.934,-3.8653,-3.8655,-3.9392,-3.9392,-3.9807,-4.0602,-4.0602,-4.0602,-1.5359,-1.4761,-1.4184,-1.4686,-1.4741,0.0,0.0,0.0,0.0,0.0,0.0,0.0,0.0,0.0,0.0,0.0,0.0,0.0,0.0,0.0,0.0,0.0,0.0,0.0,0.0,0.0,0.0,0.0,0.0,0.0,0.0,-1.0968,-1.0873,-1.0753,-1.0969,-1.1308,-1.1846,-1.2287,-1.2917,-1.3784,-1.381,-1.4206,-1.4947,-1.5573,-1.5988,-1.6179,0.0,-1.6773,-1.6914,-1.7938,-1.8087,-1.779,-1.8485,-1.9011,-1.9493,-2.0327,-2.1173,-2.2054,-2.307,-2.4444,-2.5804,-2.6126,-2.7295,-2.8627,-2.9018,-2.9212,-2.9347,-2.9491,-2.9569,-2.9645,-2.9773,-2.9842,-3.0135,-3.108,-3.1348,-3.1671,-3.2613,-3.3403,-3.3935,-3.4064,-3.4634,-3.5159,-3.5273,-3.5261,-3.5209,-3.5209,-3.5209,-3.5515,-3.6394,-3.6491,-3.6924,-3.7983,-3.8079,-3.8166,-3.8377,-3.7767,-3.7327,-3.7218,-3.9297,-4.0159,-3.9329,-3.8903,-3.8623,-3.8489,-3.8363,-3.8371,-3.8507,-3.8435,-3.886,-3.9708,-3.9704,-3.9704,-1.5102,-1.4797,-1.4504,-1.4772,0.0,-1.4378,0.0,0.0,0.0,0.0,0.0,0.0,0.0,0.0,0.0,0.0,0.0,0.0,0.0,0.0,0.0,0.0,0.0,0.0,0.0,0.0,0.0,0.0,0.0,0.0,0.0,0.0,-1.0753,-1.0632,-1.1091,-1.1658,-1.2332,-1.2663,-1.3066,-1.3539,-1.3668,-1.4128,-1.4866,-1.5273,-1.5662,-1.6083,0.0,-1.7203,-1.7305,-1.8421,-1.8775,-1.8634,-1.9177,-1.9519,-1.9805,-2.0852,-2.1825,-2.2669,-2.3212,-2.3981,-2.4846,-2.5451,-2.6512,-2.7661,-2.8298,-2.8867,-2.9304,-2.9353,-2.9472,-2.9589,-2.9718,-2.9808,-2.9971,-3.043,-3.129,-3.2118,-3.2596,-3.3719,-3.4636,-3.4633,-3.4945,-3.5196,-3.5231,-3.5231,-3.5196,-3.5209,-3.5209,-3.5343,-3.5763,-3.5837,-3.6179,-3.7056,-3.7198,-3.7437,-3.7913,-3.7676,-3.7321,-3.689,-3.7576,-3.8237,-3.8783,-3.7575,-3.7102,-3.7547,-3.713,-3.7119,-3.7541,-3.751,-3.7924,-3.8735,-3.8742,-3.8994,-1.4918,-1.4856,-1.4777,-1.4714,0.0,-1.4004,-1.4195,0.0,0.0,0.0,0.0,0.0,0.0,0.0,0.0,0.0,0.0,0.0,0.0,0.0,0.0,0.0,0.0,0.0,0.0,0.0,0.0,0.0,0.0,0.0,0.0,0.0,-1.0632,-1.0523,-1.1102,-1.1829,-1.2678,-1.294,-1.3286,-1.3776,-1.3885,-1.4299,-1.5049,-1.517,-1.5509,-1.607,-1.7102,-1.7474,-1.7464,-1.8869,-1.9381,-1.9322,-1.9867,-2.022,-2.0542,-2.1648,-2.2513,-2.321,-2.3501,-2.3839,-2.4265,-2.5203,-2.6118,-2.7018,-2.7812,-2.8588,-2.924,-2.9289,-2.9372,-2.9492,-2.9664,-2.9887,-3.0073,-3.0158,-3.1497,-3.2779,-3.2844,-3.4044,-3.5073,-3.5089,-3.5091,-3.5129,-3.5183,-3.52,-3.5198,-3.5212,-3.5193,-3.5209,-3.5209,-3.5242,-3.5509,-3.6143,-3.6316,-3.6646,-3.7268,-3.743,-3.7224,-3.66,-3.6002,-3.6334,-3.7839,-3.6469,-3.5966,-3.6582,-3.6002,-3.5979,-3.6593,-3.6593,-3.7006,-3.7791,-3.781,-3.8144,-1.4996,-1.4842,-1.4714,-1.4714,-1.4582,0.0,-1.4645,-1.4547,0.0,0.0,0.0,0.0,0.0,0.0,0.0,0.0,0.0,0.0,0.0,0.0,0.0,0.0,0.0,0.0,0.0,0.0,0.0,0.0,0.0,0.0,0.0,0.0,0.0,-1.0324,-1.0489,-1.1148,-1.2327,-1.2733,-1.3699,-1.5242,-1.477,-1.4941,-1.5724,-1.5879,-1.595,-1.607,-1.7001,-1.7136,-1.6844,-1.9174,-1.9512,-1.8715,-2.0244,-2.1059,-2.1498,-2.2401,-2.2892,-2.3225,-2.397,-2.4863,-2.5786,-2.6662,-2.7587,-2.8399,-2.8652,-2.8868,-2.9062,-2.924,-2.9323,-2.9368,-2.9626,-3.0246,-3.0847,-3.0993,-3.2315,-3.3563,-3.369,-3.4393,-3.502,-3.5092,-3.5092,-3.5092,-3.5111,-3.5147,-3.52,-3.52,-3.5196,-3.5209,-3.5209,-3.5209,-3.5261,-3.5362,-3.5377,-3.5479,-3.5666,-3.5669,-3.5669,-3.5592,-3.5596,-3.6018,-3.6953,-3.6095,-3.5631,-3.5689,-3.5635,-3.5642,-3.57,-3.57,-3.6105,-3.6884,-3.6883,-3.6928,-1.4887,-1.4794,-1.4714,-1.4714,0.0,0.0,0.0,0.0,0.0,0.0,0.0,0.0,0.0,0.0,0.0,0.0,0.0,0.0,0.0,0.0,0.0,0.0,0.0,0.0,0.0,0.0,0.0,0.0,0.0,0.0,0.0,0.0,0.0,-1.0374,-1.0498,-1.096,-1.179,-1.2567,-1.3557,-1.4703,-1.5051,-1.543,-1.5799,-1.5983,-1.6039,-1.6085,-1.7479,-1.8013,-1.8048,-2.0013,-2.0687,-2.0582,-2.1457,-2.1908,-2.2175,-2.2634,-2.3146,-2.3728,-2.4198,-2.4943,-2.5825,-2.6798,-2.7417,-2.7868,-2.8524,-2.8834,-2.8952,-2.9085,-2.9108,-2.9178,-2.9491,-3.0168,-3.0675,-3.0321,-3.1883,-3.3373,-3.2959,-3.3942,-3.4888,-3.4907,-3.4965,-3.4984,-3.4983,-3.5075,-3.5147,-3.52,-3.5196,-3.5209,-3.5209,-3.5245,-3.5261,-3.5239,-3.5273,-3.5354,-3.5493,-3.5422,-3.5422,-3.5482,-3.556,-3.5751,-3.6079,-3.5726,-3.554,-3.554,-3.5496,-3.5489,-3.5468,-3.5468,-3.5622,-3.5864,-3.5869,-3.6161,-1.4774,-1.47,-1.4683,0.0,0.0,0.0,0.0,0.0,0.0,0.0,0.0,0.0,0.0,0.0,0.0,0.0,0.0,0.0,0.0,0.0,0.0,0.0,0.0,0.0,0.0,0.0,0.0,0.0,0.0,0.0,0.0,0.0,0.0,0.0,-1.0498,-1.0933,-1.171,-1.2526,-1.3459,-1.453,-1.5213,-1.5668,-1.5827,-1.5983,-1.6067,-1.61,-1.7773,-1.8435,-1.8519,-2.0159,-2.1077,-2.1499,-2.2068,-2.2394,-2.2515,-2.2685,-2.3257,-2.4041,-2.4489,-2.5191,-2.6074,-2.7068,-2.7476,-2.772,-2.8431,-2.8761,-2.8881,-2.897,-2.8975,-2.9021,-2.9289,-3.0006,-3.0474,-3.0054,-3.1669,-3.3193,-3.2728,-3.3728,-3.4747,-3.4788,-3.4848,-3.4907,-3.4908,-3.4983,-3.5075,-3.5129,-3.5162,-3.5212,-3.5212,-3.5245,-3.5261,-3.5226,-3.5258,-3.5339,-3.5446,-3.5595,-3.5752,-3.5849,-3.6142,-3.6086,-3.5605,-3.5489,-3.5463,-3.543,-3.5397,-3.5489,-3.5752,-3.5499,-3.5484,-3.5699,-3.5431,-3.5622,-1.4731,-1.4592,0.0,0.0,0.0,0.0,0.0,0.0,0.0,0.0,0.0,0.0,0.0,0.0,0.0,0.0,0.0,0.0,0.0,0.0,0.0,0.0,0.0,0.0,0.0,0.0,0.0,0.0,0.0,0.0,0.0,0.0,0.0,0.0,-1.0424,-1.1043,-1.2171,-1.258,-1.3529,-1.4984,-1.5315,-1.5639,-1.59,-1.5983,-1.6039,-1.6172,-1.7713,-1.8124,-1.782,-1.9363,-2.0358,-2.0972,-2.1922,-2.2394,-2.2515,-2.2596,-2.3168,-2.4046,-2.491,-2.5834,-2.6764,-2.771,-2.8136,-2.8327,-2.844,-2.8637,-2.8828,-2.897,-2.8952,-2.8929,-2.9067,-2.9724,-3.0405,-3.0494,-3.1846,-3.3146,-3.3253,-3.3977,-3.4645,-3.4768,-3.4848,-3.4887,-3.4887,-3.4965,-3.5001,-3.5001,-3.511,-3.52,-3.52,-3.5196,-3.5226,-3.5296,-3.5304,-3.532,-3.5335,-3.6121,-3.66,-3.66,-3.7357,-3.7105,-3.5589,-3.5465,-3.5383,-3.532,-3.532,-3.5707,-3.6498,-3.5687,-3.5756,-3.6581,-3.5699,-3.53,-1.4788,0.0,0.0,0.0,0.0,0.0,0.0,0.0,0.0,0.0,0.0,0.0,0.0,0.0,0.0,0.0,0.0,0.0,0.0,0.0,0.0,0.0,0.0,0.0,0.0,0.0,0.0,0.0,0.0,0.0,0.0,0.0,0.0,0.0,-1.0349,-1.057,-1.1003,-1.2197,-1.3081,-1.3615,-1.479,-1.5536,-1.59,-1.5983,-1.6039,-1.6141,-1.7219,-1.7938,-1.8474,-2.0342,-2.1055,-2.0989,-2.1883,-2.231,-2.25,-2.3134,-2.3904,-2.4718,-2.5663,-2.6545,-2.7379,-2.7736,-2.8025,-2.8264,-2.838,-2.851,-2.8637,-2.8761,-2.8737,-2.8712,-2.8858,-2.9064,-2.9405,-3.018,-3.2083,-3.3599,-3.3115,-3.378,-3.4473,-3.445,-3.4623,-3.4747,-3.4706,-3.4811,-3.4927,-3.4927,-3.5038,-3.5147,-3.52,-3.5198,-3.5441,-3.6077,-3.6138,-3.6405,-3.7064,-3.7264,-3.7417,-3.752,-3.7634,-3.754,-3.7124,-3.7001,-3.6931,-3.6931,-3.6915,-3.705,-3.726,-3.6474,-3.6205,-3.6434,-3.5608,-3.5223,-1.4667,0.0,0.0,0.0,0.0,0.0,0.0,0.0,0.0,0.0,0.0,0.0,0.0,0.0,0.0,0.0,0.0,0.0,0.0,0.0,0.0,0.0,0.0,0.0,0.0,0.0,0.0,0.0,0.0,0.0,0.0,0.0,0.0,0.0,-1.0236,-1.0508,-1.1004,-1.1818,-1.2692,-1.357,-1.4354,-1.5081,-1.5668,-1.5841,-1.5983,-1.6113,-1.7368,-1.8153,-1.8773,-2.0695,-2.1177,-2.0832,-2.1735,-2.2377,-2.2869,-2.3426,-2.432,-2.5373,-2.5996,-2.6805,-2.7557,-2.773,-2.795,-2.8182,-2.83,-2.8458,-2.8562,-2.8637,-2.8662,-2.8662,-2.8737,-2.9166,-2.9792,-3.0503,-3.1813,-3.2992,-3.3234,-3.379,-3.4245,-3.4245,-3.4431,-3.4561,-3.4517,-3.4668,-3.4791,-3.4811,-3.4927,-3.5038,-3.511,-3.5147,-3.5486,-3.6356,-3.6436,-3.6797,-3.7742,-3.8018,-3.8173,-3.8299,-3.8499,-3.848,-3.8156,-3.7794,-3.7433,-3.709,-3.7072,-3.7072,-3.7072,-3.6272,-3.606,-3.6382,-3.5543,-3.516,0.0,0.0,0.0,0.0,0.0,0.0,0.0,0.0,0.0,0.0,0.0,0.0,0.0,0.0,0.0,0.0,0.0,0.0,0.0,0.0,0.0,0.0,0.0,0.0,0.0,0.0,0.0,0.0,0.0,0.0,0.0,0.0,0.0,-0.997,-1.0097,-1.0624,-1.1638,-1.1451,-1.2288,-1.4114,-1.3931,-1.4296,-1.5166,-1.5566,-1.5841,-1.6072,-1.7831,-1.8572,-1.8724,-2.054,-2.0965,-2.0603,-2.1595,-2.2534,-2.341,-2.3616,-2.4628,-2.5914,-2.6103,-2.6722,-2.7417,-2.7672,-2.7893,-2.8099,-2.8246,-2.8406,-2.858,-2.8677,-2.8746,-2.8796,-2.8869,-2.995,-3.103,-3.1237,-3.1389,-3.195,-3.3529,-3.3921,-3.4023,-3.4148,-3.4293,-3.4386,-3.4386,-3.4495,-3.4623,-3.4687,-3.4791,-3.4908,-3.4983,-3.5038,-3.5416,-3.6307,-3.6329,-3.669,-3.7618,-3.8309,-3.8728,-3.8785,-3.9411,-3.9406,-3.8624,-3.8022,-3.7281,-3.6407,-3.6407,-3.6407,-3.6388,-3.5589,-3.5624,-3.6365,-3.5491,-3.5129,0.0,0.0,0.0,0.0,0.0,0.0,0.0,0.0,0.0,0.0,0.0,0.0,0.0,0.0,0.0,0.0,0.0,0.0,0.0,0.0,0.0,0.0,0.0,0.0,0.0,0.0,0.0,0.0,0.0,0.0,0.0,0.0,0.0,-0.9828,-0.9828,-1.0018,-1.0443,-1.0925,-1.1453,0.0,-1.3043,-1.3686,-1.4076,-1.4977,-1.561,-1.6017,-1.7547,-1.8035,-1.7943,-2.0083,-2.0764,-2.058,-2.204,-2.2851,-2.3331,-2.4664,-2.537,-2.5758,-2.6593,-2.706,-2.7293,-2.7478,-2.7689,-2.7893,-2.8081,-2.8246,-2.8505,-2.9206,-2.9422,-2.9646,-3.0279,-3.0704,-3.1175,-3.1809,-3.2528,-3.313,-3.357,-3.3807,-3.3921,-3.3947,-3.4124,-3.4245,-3.4245,-3.434,-3.4495,-3.4666,-3.4728,-3.479,-3.4908,-3.4927,-3.5305,-3.6215,-3.631,-3.6671,-3.7547,-3.7757,-3.7871,-3.789,-3.7926,-3.7885,-3.7675,-3.813,-3.7974,-3.7098,-3.7141,-3.7162,-3.716,-3.6407,-3.614,-3.631,-3.5473,-3.5129,0.0,0.0,0.0,0.0,0.0,0.0,0.0,0.0,0.0,0.0,0.0,0.0,0.0,0.0,0.0,0.0,0.0,0.0,0.0,0.0,0.0,0.0,0.0,0.0,0.0,0.0,0.0,0.0,0.0,0.0,0.0,-0.9328,-0.9381,-0.9526,-0.954,-0.9741,-1.0148,-1.0334,-1.0915,-1.1838,-1.243,-1.3195,-1.4056,-1.4913,-1.5654,-1.6293,-1.7516,-1.8161,-1.85,-2.0065,-2.067,-2.0763,-2.2021,-2.2899,-2.3632,-2.4879,-2.5631,-2.6168,-2.6706,-2.7021,-2.7181,-2.7417,-2.763,-2.7847,-2.8025,-2.8191,-2.8479,-2.9322,-2.962,-2.9882,-3.0694,-3.1237,-3.1582,-3.1618,-3.2262,-3.3009,-3.3504,-3.3671,-3.378,-3.3842,-3.3972,-3.4049,-3.4049,-3.4197,-3.4363,-3.4517,-3.4623,-3.4687,-3.4791,-3.4831,-3.521,-3.616,-3.6217,-3.6578,-3.7528,-3.7528,-3.7509,-3.7509,-3.7449,-3.7177,-3.6696,-3.7071,-3.7109,-3.6696,-3.6699,-3.6549,-3.6212,-3.5817,-3.5647,-3.5684,-3.5647,-3.5665,0.0,0.0,0.0,0.0,0.0,0.0,0.0,0.0,0.0,0.0,0.0,0.0,0.0,0.0,0.0,0.0,0.0,0.0,0.0,0.0,0.0,0.0,0.0,0.0,0.0,0.0,0.0,0.0,0.0,0.0,-0.8844,-0.896,-0.9054,-0.9124,-0.9259,-0.9568,-1.0052,-0.9882,-1.0521,-1.1995,-1.2101,-1.2896,-1.4332,-1.5015,-1.5721,-1.6424,-1.7466,-1.8355,-1.9098,-2.0051,-2.0579,-2.0923,-2.1935,-2.2929,-2.3951,-2.486,-2.5779,-2.6555,-2.6674,-2.6875,-2.7135,-2.7355,-2.7687,-2.8,-2.818,-2.8439,-2.8818,-2.9633,-2.995,-3.0224,-3.1034,-3.1823,-3.2206,-3.1536,-3.1898,-3.2534,-3.3085,-3.3186,-3.3241,-3.3358,-3.3574,-3.3755,-3.3902,-3.4074,-3.4245,-3.4363,-3.4495,-3.4583,-3.4687,-3.4747,-3.5073,-3.5854,-3.591,-3.6195,-3.7034,-3.6994,-3.6933,-3.6933,-3.6909,-3.6521,-3.5694,-3.5653,-3.5678,-3.5727,-3.5748,-3.5449,-3.4848,-3.4868,-3.4983,-3.5211,-3.5875,-3.6292,0.0,0.0,0.0,0.0,0.0,0.0,0.0,0.0,0.0,0.0,0.0,0.0,0.0,0.0,0.0,0.0,0.0,0.0,0.0,0.0,0.0,0.0,0.0,0.0,0.0,0.0,0.0,0.0,0.0,0.0,-0.8544,-0.8628,-0.8728,-0.8844,-0.8999,-0.917,-0.9407,-0.9897,-1.0338,-1.0772,-1.2066,-1.3102,-1.3934,-1.4996,-1.5453,-1.5471,-1.6922,-1.7712,-1.804,-1.9546,-2.0308,-2.0704,-2.2236,-2.309,-2.3728,-2.5297,-2.6071,-2.6365,-2.6624,-2.6859,-2.704,-2.7198,-2.79,-2.8675,-2.8785,-2.9382,-3.0194,-3.1067,-3.1355,-3.1625,-3.2491,-3.287,-3.2967,-3.3003,-3.3057,-3.2828,-3.1765,-3.1527,-3.1553,-3.1689,-3.2366,-3.316,-3.3887,-3.4099,-3.4245,-3.4363,-3.4381,-3.4427,-3.4666,-3.4666,-3.4703,-3.496,-3.4978,-3.4996,-3.507,-3.5068,-3.5047,-3.4986,-3.4921,-3.482,-3.4686,-3.4641,-3.46,-3.46,-3.473,-3.4757,-3.4645,-3.4768,-3.5247,-3.6045,-3.6081,-3.6516,0.0,0.0,0.0,0.0,0.0,0.0,0.0,0.0,0.0,0.0,0.0,0.0,0.0,0.0,0.0,0.0,0.0,0.0,0.0,0.0,0.0,0.0,0.0,0.0,0.0,0.0,0.0,0.0,0.0,-0.8442,-0.8283,-0.8442,-0.8572,-0.8617,-0.8767,-0.9012,-0.9408,-0.9857,-1.0552,-1.1486,-1.2512,-1.3329,-1.3901,-1.4843,-1.5529,-1.6057,-1.733,-1.817,-1.8728,-1.9557,-2.0259,-2.0936,-2.2108,-2.308,-2.3975,-2.5174,-2.5828,-2.6154,-2.64,-2.691,-2.7488,-2.7755,-2.8468,-2.9271,-2.9464,-2.9836,-3.037,-3.1292,-3.1631,-3.1867,-3.2751,-3.2719,-3.2391,-3.2036,-3.1614,-3.102,-3.0002,-3.0899,-3.19,-3.2056,-3.2433,-3.3006,-3.385,-3.4074,-3.4197,-3.4316,-3.434,-3.4409,-3.4561,-3.4561,-3.4561,-3.4666,-3.4645,-3.4645,-3.4645,-3.4645,-3.4602,-3.4495,-3.4495,-3.445,-3.434,-3.434,-3.4316,-3.4293,-3.4427,-3.4517,-3.4558,-3.5096,-3.5574,-3.6054,-3.7001,-3.7664,0.0,0.0,0.0,0.0,0.0,0.0,0.0,0.0,0.0,0.0,0.0,0.0,0.0,0.0,0.0,0.0,0.0,0.0,0.0,0.0,0.0,0.0,0.0,0.0,0.0,0.0,0.0,0.0,0.0,-0.8358,-0.8169,-0.8386,-0.8516,-0.8516,-0.8737,-0.9093,-0.9601,-1.0182,-1.114,-1.2444,-1.301,-1.3425,-1.3834,-1.4868,-1.5749,-1.6486,-1.7584,-1.8419,-1.9068,-1.9449,-2.0152,-2.1075,-2.1949,-2.2985,-2.4056,-2.4946,-2.5584,-2.5974,-2.6189,-2.6803,-2.7588,-2.8066,-2.8835,-2.9643,-3.0068,-3.0392,-3.0788,-3.1535,-3.1806,-3.1987,-3.2428,-3.2344,-3.193,-3.1031,-3.052,-2.9927,-2.8916,-3.0327,-3.1881,-3.2188,-3.2467,-3.293,-3.3799,-3.4023,-3.4124,-3.4245,-3.4293,-3.434,-3.4473,-3.445,-3.4473,-3.4539,-3.4495,-3.4473,-3.4495,-3.4495,-3.4544,-3.4609,-3.447,-3.4386,-3.4482,-3.4333,-3.4221,-3.4148,-3.4269,-3.4386,-3.445,-3.5136,-3.5593,-3.5904,-3.7438,-3.8275,0.0,0.0,0.0,0.0,0.0,0.0,0.0,0.0,0.0,0.0,0.0,0.0,0.0,0.0,0.0,0.0,0.0,0.0,0.0,0.0,0.0,0.0,0.0,0.0,0.0,0.0,0.0,0.0,0.0,-0.8319,-0.829,-0.8488,-0.86,-0.86,-0.9047,-0.9477,-0.9868,-1.1176,-1.2219,-1.3069,-1.3276,-1.3425,-1.3586,-1.5198,-1.5964,-1.6091,-1.7245,-1.787,-1.8137,-1.9038,-1.9923,-2.082,-2.1828,-2.2794,-2.3772,-2.4869,-2.5454,-2.5775,-2.6079,-2.6397,-2.6809,-2.7725,-2.8682,-2.9679,-3.0508,-3.1377,-3.2109,-3.2318,-3.2386,-3.2311,-3.1738,-3.209,-3.2228,-3.0939,-3.113,-3.1058,-2.9127,-2.9435,-3.0341,-3.1125,-3.1978,-3.2871,-3.366,-3.3921,-3.4049,-3.4197,-3.4099,-3.4124,-3.4363,-3.4293,-3.4269,-3.4404,-3.4404,-3.434,-3.4221,-3.4221,-3.4525,-3.5225,-3.4485,-3.4393,-3.5217,-3.4518,-3.4074,-3.4023,-3.4148,-3.4245,-3.4316,-3.4419,-3.4918,-3.5833,-3.6761,-3.7573,0.0,0.0,0.0,0.0,0.0,0.0,0.0,0.0,0.0,0.0,0.0,0.0,0.0,0.0,0.0,0.0,0.0,0.0,0.0,0.0,0.0,0.0,0.0,0.0,0.0,0.0,0.0,0.0,0.0,0.0,-0.8365,-0.8449,-0.8477,-0.8544,-0.8689,-0.9333,-1.0463,-1.1657,-1.2516,-1.3107,-1.3571,-1.3912,-1.4188,-1.5649,-1.642,-1.6715,-1.8048,-1.8756,-1.9059,-1.9662,-2.0666,-2.1898,-2.2365,-2.3243,-2.4238,-2.4887,-2.5317,-2.5659,-2.5954,-2.6909,-2.7967,-2.7961,-2.8849,-2.9947,-2.9972,-3.0214,-3.0491,-3.0746,-3.0878,-3.1029,-3.1306,-3.1246,-3.104,-3.0642,-3.0761,-3.0755,-3.0188,-3.0785,-3.1529,-3.1901,-3.2273,-3.2792,-3.3597,-3.386,-3.3947,-3.3998,-3.4049,-3.4099,-3.4197,-3.4197,-3.4221,-3.4269,-3.4269,-3.4221,-3.4148,-3.4148,-3.4203,-3.4408,-3.4157,-3.412,-3.4381,-3.4215,-3.4099,-3.4074,-3.4148,-3.4197,-3.4173,-3.4828,-3.5328,-3.5693,-3.6563,-3.7159,0.0,0.0,0.0,0.0,0.0,0.0,0.0,0.0,0.0,0.0,0.0,0.0,0.0,0.0,0.0,0.0,0.0,0.0,0.0,0.0,0.0,0.0,0.0,0.0,0.0,0.0,0.0,0.0,0.0,0.0,-0.8551,-0.8551,-0.8742,-0.9079,-0.9362,-1.0044,-1.1244,-1.2071,-1.2662,-1.3002,-1.37,-1.4145,-1.4462,-1.5826,-1.6692,-1.7221,-1.8495,-1.9266,-1.9648,-2.0171,-2.1208,-2.2443,-2.272,-2.3416,-2.44,-2.4806,-2.5321,-2.5841,-2.6167,-2.7255,-2.8515,-2.8541,-2.9279,-3.0173,-3.012,-3.0195,-3.0317,-3.0473,-3.066,-3.0812,-3.1107,-3.068,-3.0264,-3.0588,-3.0738,-3.0818,-3.0969,-3.1559,-3.2112,-3.2226,-3.2528,-3.2958,-3.3514,-3.3698,-3.378,-3.3834,-3.3895,-3.3947,-3.4023,-3.4049,-3.4074,-3.4124,-3.4383,-3.4543,-3.4467,-3.4467,-3.4637,-3.5082,-3.4355,-3.4308,-3.511,-3.4441,-3.4203,-3.45,-3.4297,-3.4173,-3.4099,-3.4797,-3.5125,-3.5144,-3.6056,-3.6526,0.0,0.0,0.0,0.0,0.0,0.0,0.0,0.0,0.0,0.0,0.0,0.0,0.0,0.0,0.0,0.0,0.0,0.0,0.0,0.0,0.0,0.0,0.0,0.0,0.0,0.0,0.0,0.0,0.0,-0.8944,-0.8816,-0.8878,-0.9338,-1.0231,-1.1078,-1.1676,-1.2079,-1.2473,-1.2745,-1.2827,-1.3702,-1.4147,-1.427,-1.5711,-1.677,-1.7583,-1.8547,-1.9239,-1.9707,-2.0482,-2.1409,-2.2374,-2.2709,-2.3349,-2.4162,-2.4645,-2.5408,-2.6246,-2.6659,-2.7421,-2.8372,-2.9399,-2.99,-3.0226,-3.0985,-3.1435,-3.1731,-3.1731,-3.186,-3.1846,-3.1081,-3.0436,-3.0154,-3.0852,-3.1179,-3.1361,-3.1409,-3.1631,-3.1882,-3.2008,-3.2709,-3.3292,-3.3382,-3.3452,-3.3549,-3.3671,-3.3633,-3.3671,-3.3868,-3.386,-3.3842,-3.3972,-3.4792,-3.5256,-3.522,-3.5239,-3.5873,-3.7379,-3.5202,-3.4954,-3.7429,-3.5283,-3.4404,-3.5262,-3.455,-3.4173,-3.4099,-3.4173,-3.4197,-3.4216,-3.5144,-3.5632,-1.6517,0.0,0.0,0.0,0.0,0.0,0.0,0.0,0.0,0.0,0.0,0.0,0.0,0.0,0.0,0.0,0.0,0.0,0.0,0.0,0.0,0.0,0.0,0.0,0.0,0.0,0.0,0.0,-0.8921,-0.8811,-0.8866,-0.9169,-0.9403,-0.9576,-1.0554,-1.1239,-1.1595,-1.2083,-1.2698,-1.3386,-1.3998,-1.4658,-1.5318,-1.6693,-1.7596,-1.815,-1.9591,-2.0398,-2.0721,-2.1197,-2.199,-2.2908,-2.3255,-2.3743,-2.4302,-2.4766,-2.5234,-2.5747,-2.6629,-2.7569,-2.8406,-2.876,-2.9293,-2.976,-2.9555,-2.9567,-2.9678,-2.986,-2.9968,-3.0125,-3.0576,-3.0974,-3.1321,-3.1602,-3.1689,-3.1777,-3.1951,-3.2105,-3.2323,-3.2612,-3.2867,-3.3091,-3.3122,-3.3244,-3.3364,-3.3481,-3.3491,-3.3577,-3.3671,-3.3753,-3.3815,-3.3842,-3.4713,-3.5256,-3.522,-3.5736,-3.6241,-3.6597,-3.5991,-3.5624,-3.5725,-3.521,-3.4755,-3.4367,-3.4235,-3.4197,-3.4173,-3.4197,-3.4197,-3.4197,-3.453,-3.467,0.0,0.0,0.0,0.0,0.0,0.0,0.0,-1.3654,0.0,0.0,0.0,0.0,0.0,0.0,0.0,0.0,0.0,0.0,0.0,0.0,0.0,0.0,0.0,0.0,0.0,0.0,0.0,-0.9313,-0.9058,-0.8866,-0.8795,-0.9463,-0.981,-0.9675,-1.0754,-1.1406,-1.1594,-1.1999,-1.2612,-1.3456,-1.4114,-1.4848,-1.5608,-1.6837,-1.7808,-1.8658,-1.9696,-2.0584,-2.1421,-2.1741,-2.2347,-2.3127,-2.3465,-2.3867,-2.4245,-2.4726,-2.5465,-2.6302,-2.7039,-2.8092,-2.9066,-2.9228,-2.9629,-2.9919,-2.9621,-2.9566,-2.9681,-2.9871,-3.0037,-3.0287,-3.0825,-3.1308,-3.1688,-3.1709,-3.1765,-3.1839,-3.2001,-3.2126,-3.2284,-3.2657,-3.2787,-3.2852,-3.2902,-3.3028,-3.3152,-3.3214,-3.3334,-3.3452,-3.3509,-3.3605,-3.3671,-3.3726,-3.4559,-3.511,-3.5083,-3.5864,-3.6489,-3.6762,-3.6486,-3.6405,-3.657,-3.5745,-3.5262,-3.5129,-3.4525,-3.4221,-3.4197,-3.4197,-3.4197,-3.4197,-3.4245,-3.4245,0.0,0.0,0.0,0.0,0.0,0.0,-1.375,-1.3514,-1.3391,0.0,0.0,0.0,0.0,0.0,0.0,0.0,0.0,0.0,0.0,0.0,0.0,0.0,0.0,0.0,0.0,-0.9787,-0.9579,-0.9339,-0.9205,-0.9033,-0.877,-0.9786,-1.0308,-1.0266,-1.1279,-1.1844,-1.1881,-1.2135,-1.2596,-1.3324,-1.4205,-1.4935,-1.5627,-1.6663,-1.7841,-1.9088,-1.9415,-2.04,-2.1841,-2.2137,-2.2586,-2.3127,-2.3465,-2.3855,-2.4269,-2.4755,-2.5945,-2.7354,-2.7679,-2.8744,-2.9919,-3.0258,-3.0375,-3.0417,-3.0443,-3.0576,-3.0764,-3.0918,-3.123,-3.144,-3.1479,-3.144,-3.144,-3.1479,-3.1521,-3.1579,-3.1709,-3.1802,-3.1984,-3.2353,-3.2523,-3.2623,-3.274,-3.2838,-3.2916,-3.2979,-3.317,-3.3292,-3.3364,-3.3452,-3.3491,-3.3577,-3.4355,-3.4887,-3.4916,-3.576,-3.6597,-3.7312,-3.678,-3.7011,-3.8332,-3.6565,-3.5816,-3.6374,-3.5008,-3.4245,-3.4197,-3.4173,-3.4173,-3.4173,-3.4173,-3.4173,0.0,0.0,0.0,0.0,0.0,0.0,-1.4425,-1.38,-1.3163,0.0,0.0,0.0,0.0,0.0,0.0,0.0,0.0,0.0,0.0,0.0,0.0,0.0,0.0,0.0,0.0,-0.9917,-0.9434,-0.9381,-0.9019,-0.906,-0.9689,-0.9885,-1.0167,-1.0523,-1.1155,-1.1597,-1.1819,-1.2287,-1.2973,-1.3851,-1.4856,-1.58,-1.6716,-1.8006,-1.9003,-1.9664,-2.063,-2.1349,-2.1983,-2.2434,-2.2754,-2.2979,-2.3421,-2.4157,-2.5047,-2.5456,-2.6267,-2.7344,-2.8259,-2.8858,-2.9284,-3.0009,-3.0231,-3.0231,-3.0231,-3.0359,-3.0526,-3.0831,-3.1032,-3.1112,-3.123,-3.1151,-3.1072,-3.123,-3.1269,-3.1291,-3.1389,-3.1617,-3.1819,-3.1929,-3.2196,-3.2457,-3.2457,-3.2692,-3.2838,-3.2916,-3.2979,-3.3073,-3.3165,-3.3304,-3.3422,-3.3422,-3.4258,-3.483,-3.4887,-3.5666,-3.6263,-3.6523,-3.6982,-3.6798,-3.5771,-3.6646,-3.6307,-3.4541,-3.4315,-3.4197,-3.4124,-3.4074,-3.4049,-3.4049,-3.4049,-3.4049,0.0,0.0,0.0,-1.585,0.0,0.0,0.0,-1.363,-1.331,0.0,0.0,0.0,0.0,0.0,0.0,0.0,0.0,0.0,0.0,0.0,0.0,0.0,0.0,0.0,0.0,-1.0076,-0.9773,-0.9578,-0.9294,-0.9274,-0.954,-0.9982,-1.0323,-1.051,-1.1125,-1.1643,-1.2101,-1.2462,-1.3197,-1.4245,-1.5148,-1.6068,-1.6919,-1.8157,-1.9118,-1.9821,-2.0555,-2.152,-2.249,-2.253,-2.3083,-2.3944,-2.406,-2.4534,-2.5234,-2.5991,-2.665,-2.7317,-2.8319,-2.899,-2.9448,-2.9962,-3.0076,-3.0076,-3.0103,-3.0231,-3.0459,-3.0733,-3.0895,-3.1015,-3.1072,-3.1032,-3.0975,-3.1151,-3.1151,-3.1134,-3.1257,-3.1483,-3.1651,-3.1709,-3.1929,-3.2179,-3.2267,-3.2457,-3.2608,-3.269,-3.2852,-3.2948,-3.3011,-3.3135,-3.3256,-3.3256,-3.3767,-3.412,-3.4149,-3.4947,-3.548,-3.5546,-3.6325,-3.6399,-3.5585,-3.6028,-3.5616,-3.4136,-3.46,-3.46,-3.4099,-3.4023,-3.3998,-3.3998,-3.3998,-3.3972,0.0,0.0,0.0,0.0,0.0,-1.5137,0.0,0.0,0.0,0.0,0.0,0.0,0.0,0.0,0.0,0.0,0.0,0.0,0.0,0.0,0.0,0.0,0.0,0.0,0.0,-1.0428,-1.0279,-0.9981,-0.981,-0.9691,-0.9563,-1.0206,-1.0588,-1.0598,-1.1217,-1.1839,-1.2418,-1.2766,-1.3494,-1.4553,-1.5522,-1.6365,-1.702,-1.8191,-1.9166,-1.9965,-2.0374,-2.1404,-2.2818,-2.2583,-2.3472,-2.5037,-2.4683,-2.4942,-2.5588,-2.6512,-2.7118,-2.7569,-2.8403,-2.9127,-2.9742,-2.9902,-2.9902,-2.9918,-3.0017,-3.0189,-3.0459,-3.0609,-3.0814,-3.0935,-3.0975,-3.0935,-3.0935,-3.1112,-3.1072,-3.1015,-3.1179,-3.1368,-3.15,-3.1559,-3.1728,-3.1912,-3.2108,-3.2284,-3.2422,-3.2473,-3.269,-3.2852,-3.2852,-3.2979,-3.3024,-3.3024,-3.3196,-3.3334,-3.3334,-3.4073,-3.4524,-3.4553,-3.5319,-3.5714,-3.5608,-3.5219,-3.4889,-3.4649,-3.5342,-3.5335,-3.4555,-3.4504,-3.4312,-3.3972,-3.3972,-3.3921,0.0,0.0,0.0,0.0,-1.5533,0.0,0.0,0.0,0.0,0.0,0.0,0.0,0.0,0.0,0.0,0.0,0.0,0.0,0.0,0.0,0.0,0.0,0.0,0.0,0.0,0.0,-1.0825,-1.0844,-1.0518,-1.0565,-1.1103,-1.0762,-1.0748,-1.126,-1.1662,-1.2088,-1.2586,-1.3451,-1.415,-1.4716,-1.6349,-1.7328,-1.7749,-1.9171,-2.0066,-2.0518,-2.0926,-2.1541,-2.233,-2.2555,-2.3705,-2.5224,-2.4652,-2.5377,-2.6854,-2.7195,-2.7907,-2.8731,-2.8979,-2.9348,-2.9697,-2.9742,-2.983,-2.9946,-3.0119,-3.0274,-3.0417,-3.0485,-3.0609,-3.0773,-3.0871,-3.0733,-3.0609,-3.0855,-3.0912,-3.0935,-3.1015,-3.1196,-3.1351,-3.15,-3.1559,-3.1691,-3.1894,-3.2179,-3.2388,-3.2388,-3.2523,-3.2639,-3.2639,-3.2755,-3.2838,-3.2838,-3.2965,-3.3073,-3.3117,-3.3406,-3.3579,-3.3637,-3.4451,-3.4637,-3.3897,-3.4604,-3.5358,-3.6132,-3.6379,-3.6406,-3.6232,-3.6232,-3.5376,-3.3815,-3.3868,-3.3868,0.0,0.0,0.0,0.0,0.0,0.0,-1.4793,0.0,-1.4805,0.0,0.0,0.0,0.0,0.0,0.0,0.0,0.0,0.0,0.0,0.0,0.0,0.0,0.0,0.0,0.0,0.0,0.0,0.0,-1.1035,-1.0934,-1.111,-1.1039,-1.1142,-1.1384,-1.1865,-1.2363,-1.2822,-1.3667,-1.4561,-1.5417,-1.6633,-1.7543,-1.8253,-1.937,-2.0169,-2.061,-2.1033,-2.1773,-2.2656,-2.2651,-2.3844,-2.5639,-2.5168,-2.5811,-2.7096,-2.7636,-2.8015,-2.8294,-2.8887,-2.9259,-2.9502,-2.9637,-2.9786,-2.9962,-3.0162,-3.0231,-3.0316,-3.0485,-3.0609,-3.0692,-3.079,-3.0692,-3.0651,-3.0871,-3.0831,-3.0814,-3.0975,-3.1134,-3.1291,-3.1368,-3.1504,-3.1617,-3.1728,-3.2001,-3.2232,-3.2267,-3.2422,-3.2557,-3.2557,-3.2623,-3.269,-3.269,-3.2787,-3.2902,-3.2916,-3.3073,-3.3183,-3.3196,-3.3683,-3.3855,-3.3481,-3.4503,-3.5009,-3.489,-3.5522,-3.5549,-3.4998,-3.5576,-3.5393,-3.4504,-3.4532,-3.455,-1.792,0.0,0.0,0.0,0.0,0.0,0.0,0.0,0.0,0.0,0.0,0.0,0.0,0.0,0.0,0.0,0.0,0.0,0.0,0.0,0.0,0.0,0.0,0.0,0.0,0.0,0.0,-1.1721,-1.1745,-1.1603,-1.1389,-1.1729,-1.1916,-1.1916,-1.2454,-1.2924,-1.333,-1.4203,-1.5051,-1.5972,-1.6877,-1.7745,-1.8483,-1.9407,-2.0118,-2.061,-2.097,-2.173,-2.2714,-2.28,-2.3918,-2.5701,-2.5701,-2.6288,-2.724,-2.7856,-2.801,-2.7984,-2.867,-2.9045,-2.9305,-2.9547,-2.9726,-2.9874,-3.006,-3.0146,-3.0231,-3.0359,-3.0526,-3.0651,-3.0651,-3.0651,-3.0651,-3.079,-3.0733,-3.0733,-3.0935,-3.1055,-3.119,-3.1312,-3.1466,-3.1596,-3.1634,-3.1893,-3.2108,-3.2179,-3.2318,-3.2422,-3.2422,-3.2438,-3.2472,-3.2472,-3.2557,-3.2641,-3.2692,-3.282,-3.2916,-3.2997,-3.3183,-3.3304,-3.3334,-3.4379,-3.4678,-3.4083,-3.5046,-3.5256,-3.4594,-3.5531,-3.5799,-3.5395,-3.5174,-3.511,0.0,0.0,0.0,-1.6466,0.0,0.0,0.0,0.0,-1.6016,0.0,0.0,0.0,0.0,0.0,0.0,0.0,0.0,0.0,0.0,0.0,0.0,0.0,0.0,0.0,0.0,0.0,0.0,-1.2378,-1.2787,-1.2915,-1.2646,-1.295,-1.3178,-1.3249,-1.3615,-1.3937,-1.4177,-1.5153,-1.5806,-1.6138,-1.7367,-1.8106,-1.8458,-1.9521,-2.0233,-2.061,-2.0885,-2.1388,-2.2113,-2.2927,-2.3903,-2.5034,-2.5992,-2.6877,-2.7595,-2.7775,-2.8039,-2.8381,-2.8396,-2.8716,-2.9167,-2.9425,-2.9576,-2.9726,-2.9766,-3.0,-3.0189,-3.0189,-3.0359,-3.0526,-3.0526,-3.0526,-3.0526,-3.051,-3.0609,-3.0733,-3.0871,-3.0952,-3.1095,-3.144,-3.1517,-3.1555,-3.1763,-3.1965,-3.2108,-3.2108,-3.2144,-3.2214,-3.2214,-3.2144,-3.2108,-3.2108,-3.2179,-3.2267,-3.2388,-3.2523,-3.2737,-3.2979,-3.3028,-3.3042,-3.3117,-3.4075,-3.4673,-3.4783,-3.5768,-3.6305,-3.6325,-3.7116,-3.7116,-3.6343,-3.5615,-3.5264,0.0,0.0,-1.6876,-1.6522,0.0,0.0,0.0,0.0,0.0,0.0,0.0,0.0,0.0,0.0,0.0,0.0,0.0,0.0,0.0,0.0,0.0,0.0,0.0,0.0,0.0,0.0,0.0,-1.3824,-1.3476,-1.3344,-1.3551,-1.3524,-1.3522,-1.3511,-1.3959,-1.4424,-1.4844,-1.5579,-1.6404,-1.7229,-1.776,-1.8362,-1.9086,-1.9633,-2.0169,-2.061,-2.0885,-2.1326,-2.1944,-2.2796,-2.3806,-2.4843,-2.5795,-2.6657,-2.7488,-2.774,-2.8039,-2.8444,-2.8653,-2.8889,-2.9121,-2.9305,-2.9457,-2.9608,-2.9726,-2.9842,-2.9941,-3.006,-3.0189,-3.0316,-3.0316,-3.0359,-3.0443,-3.0443,-3.0485,-3.0609,-3.0733,-3.0871,-3.0992,-3.1151,-3.1291,-3.1406,-3.1576,-3.1763,-3.1929,-3.1948,-3.2073,-3.2144,-3.2144,-3.2037,-3.1984,-3.2073,-3.202,-3.2073,-3.2196,-3.2371,-3.2523,-3.2705,-3.2852,-3.2948,-3.2979,-3.3527,-3.3821,-3.388,-3.428,-3.4511,-3.454,-3.5477,-3.5762,-3.5394,-3.5294,-3.521,-1.7579,-1.7157,0.0,-1.665,-1.6534,0.0,-1.6219,0.0,0.0,0.0,0.0,0.0,0.0,0.0,0.0,0.0,0.0,0.0,0.0,0.0,0.0,0.0,0.0,0.0,0.0,0.0,-1.3976,-1.458,-1.4262,-1.4125,0.0,0.0,-1.4367,-1.4301,-1.4801,-1.5231,-1.5613,-1.6313,-1.7088,-1.7887,-1.8219,-1.8702,-1.942,-1.9772,-2.0156,-2.0623,-2.1259,-2.1749,-2.2228,-2.3322,-2.4248,-2.5041,-2.5945,-2.666,-2.7299,-2.7539,-2.7905,-2.8299,-2.8653,-2.8889,-2.8998,-2.9106,-2.9259,-2.9457,-2.9547,-2.9665,-2.9782,-2.9913,-3.0017,-3.0146,-3.0189,-3.0274,-3.0333,-3.0375,-3.0443,-3.0526,-3.0651,-3.079,-3.0871,-3.1032,-3.1173,-3.1329,-3.1479,-3.1614,-3.1783,-3.1858,-3.1984,-3.2037,-3.2001,-3.1929,-3.1875,-3.1929,-3.1875,-3.1912,-3.202,-3.2232,-3.2371,-3.2523,-3.269,-3.2787,-3.2852,-3.3073,-3.3274,-3.3352,-3.3452,-3.352,-3.3605,-3.454,-3.4806,-3.4467,-3.4917,-3.499]}]]